Time,TemperatureF,DewpointF,PressureIn,WindDirection,WindDirectionDegrees,WindSpeedMPH,WindSpeedGustMPH,Humidity,HourlyPrecipIn,Conditions,Clouds,dailyrainin,SoftwareType,DateUTC
2013-06-06 00:00:00,73.8,67.6,29.91,SE,135,0.0,0.0,81,0.00,,---,0.00,VWS V14.01,2013-06-06 04:00:00,
2013-06-06 00:01:00,73.8,67.6,29.91,SE,135,0.0,0.0,81,0.00,,---,0.00,VWS V14.01,2013-06-06 04:01:00,
2013-06-06 00:02:00,73.8,67.6,29.91,SE,135,0.0,0.0,81,0.00,,---,0.00,VWS V14.01,2013-06-06 04:02:00,
2013-06-06 00:03:00,73.8,67.6,29.91,SSE,158,0.0,1.6,81,0.00,,---,0.00,VWS V14.01,2013-06-06 04:03:00,
2013-06-06 00:04:00,73.8,67.9,29.91,SSE,158,0.0,0.0,82,0.00,,---,0.00,VWS V14.01,2013-06-06 04:04:00,
2013-06-06 00:05:00,73.8,67.9,29.91,SSE,158,0.0,1.3,82,0.00,,---,0.00,VWS V14.01,2013-06-06 04:05:00,
2013-06-06 00:06:00,73.9,68.5,29.91,SSE,158,1.6,1.6,83,0.00,,---,0.00,VWS V14.01,2013-06-06 04:06:00,
2013-06-06 00:07:00,73.8,67.9,29.91,SSE,158,0.0,0.0,82,0.00,,---,0.00,VWS V14.01,2013-06-06 04:07:00,
2013-06-06 00:08:00,73.9,68.5,29.91,ESE,112,4.5,4.5,83,0.00,,---,0.00,VWS V14.01,2013-06-06 04:08:00,
2013-06-06 00:09:00,73.9,68.5,29.91,SSE,158,2.9,4.5,83,0.00,,---,0.00,VWS V14.01,2013-06-06 04:09:00,
2013-06-06 00:10:00,73.9,68.8,29.91,SSE,158,1.3,2.9,84,0.00,,---,0.00,VWS V14.01,2013-06-06 04:10:00,
2013-06-06 00:11:00,73.9,68.8,29.91,South,180,1.6,3.1,84,0.00,,---,0.00,VWS V14.01,2013-06-06 04:11:00,
2013-06-06 00:12:00,73.9,68.8,29.91,SSE,158,0.9,0.9,84,0.00,,---,0.00,VWS V14.01,2013-06-06 04:12:00,
2013-06-06 00:13:00,73.9,68.8,29.91,SSE,158,0.9,0.9,84,0.00,,---,0.00,VWS V14.01,2013-06-06 04:13:00,
2013-06-06 00:14:00,73.9,69.2,29.91,SSW,202,3.6,3.6,85,0.00,,---,0.00,VWS V14.01,2013-06-06 04:14:00,
2013-06-06 00:15:00,73.9,69.2,29.91,SSE,158,0.0,3.6,85,0.00,,---,0.00,VWS V14.01,2013-06-06 04:15:00,
2013-06-06 00:16:00,73.9,69.2,29.91,SSE,158,2.5,2.5,85,0.00,,---,0.00,VWS V14.01,2013-06-06 04:16:00,
2013-06-06 00:17:00,73.9,69.2,29.91,SSE,158,3.1,3.1,85,0.00,,---,0.00,VWS V14.01,2013-06-06 04:17:00,
2013-06-06 00:18:00,73.9,69.2,29.91,ESE,112,0.0,3.1,85,0.00,,---,0.00,VWS V14.01,2013-06-06 04:18:00,
2013-06-06 00:19:00,74.1,69.3,29.91,SE,135,0.0,0.0,85,0.00,,---,0.00,VWS V14.01,2013-06-06 04:19:00,
2013-06-06 00:20:00,74.1,69.3,29.91,SSE,158,2.2,2.2,85,0.00,,---,0.00,VWS V14.01,2013-06-06 04:20:00,
2013-06-06 00:21:00,74.1,69.3,29.91,SSE,158,1.6,3.6,85,0.00,,---,0.00,VWS V14.01,2013-06-06 04:21:00,
2013-06-06 00:22:00,74.1,69.7,29.91,SSE,158,3.1,3.1,86,0.00,,---,0.00,VWS V14.01,2013-06-06 04:22:00,
2013-06-06 00:23:00,74.1,69.7,29.91,SSE,158,3.1,3.1,86,0.00,,---,0.00,VWS V14.01,2013-06-06 04:23:00,
2013-06-06 00:24:00,74.3,69.8,29.91,SSE,158,0.9,3.8,86,0.00,,---,0.00,VWS V14.01,2013-06-06 04:24:00,
2013-06-06 00:25:00,74.3,69.8,29.91,SSE,158,0.0,0.9,86,0.00,,---,0.00,VWS V14.01,2013-06-06 04:25:00,
2013-06-06 00:26:00,74.1,69.7,29.91,SSE,158,0.9,0.9,86,0.00,,---,0.00,VWS V14.01,2013-06-06 04:26:00,
2013-06-06 00:27:00,74.3,69.8,29.91,SSE,158,2.5,2.5,86,0.00,,---,0.00,VWS V14.01,2013-06-06 04:27:00,
2013-06-06 00:28:00,74.3,69.8,29.91,ESE,112,1.6,2.5,86,0.00,,---,0.00,VWS V14.01,2013-06-06 04:28:00,
2013-06-06 00:29:00,74.3,69.8,29.91,ENE,68,4.5,4.5,86,0.00,,---,0.00,VWS V14.01,2013-06-06 04:29:00,
2013-06-06 00:30:00,74.3,69.8,29.91,SE,135,0.0,4.5,86,0.00,,---,0.00,VWS V14.01,2013-06-06 04:30:00,
2013-06-06 00:31:00,74.1,69.7,29.91,SSE,158,0.0,0.0,86,0.00,,---,0.00,VWS V14.01,2013-06-06 04:31:00,
2013-06-06 00:32:00,74.1,69.7,29.91,SSE,158,0.0,2.0,86,0.00,,---,0.00,VWS V14.01,2013-06-06 04:32:00,
2013-06-06 00:33:00,74.1,69.7,29.91,SE,135,2.0,2.0,86,0.00,,---,0.00,VWS V14.01,2013-06-06 04:33:00,
2013-06-06 00:34:00,74.1,69.7,29.91,SE,135,2.5,2.9,86,0.00,,---,0.00,VWS V14.01,2013-06-06 04:34:00,
2013-06-06 00:35:00,74.1,69.7,29.91,South,180,0.0,2.5,86,0.00,,---,0.00,VWS V14.01,2013-06-06 04:35:00,
2013-06-06 00:36:00,74.1,69.7,29.91,SE,135,1.1,1.1,86,0.00,,---,0.00,VWS V14.01,2013-06-06 04:36:00,
2013-06-06 00:37:00,74.1,69.7,29.91,SE,135,2.0,2.5,86,0.00,,---,0.00,VWS V14.01,2013-06-06 04:37:00,
2013-06-06 00:38:00,74.1,69.7,29.91,SSE,158,1.3,2.5,86,0.00,,---,0.00,VWS V14.01,2013-06-06 04:38:00,
2013-06-06 00:39:00,74.1,69.7,29.91,SSE,158,2.0,2.0,86,0.00,,---,0.00,VWS V14.01,2013-06-06 04:39:00,
2013-06-06 00:40:00,73.9,69.5,29.91,SSW,202,0.0,2.5,86,0.00,,---,0.00,VWS V14.01,2013-06-06 04:40:00,
2013-06-06 00:41:00,73.9,69.2,29.91,SE,135,1.1,1.1,85,0.00,,---,0.00,VWS V14.01,2013-06-06 04:41:00,
2013-06-06 00:42:00,73.9,69.2,29.91,SSW,202,0.0,2.7,85,0.00,,---,0.00,VWS V14.01,2013-06-06 04:42:00,
2013-06-06 00:43:00,73.9,69.2,29.91,SSW,202,0.0,2.7,85,0.00,,---,0.00,VWS V14.01,2013-06-06 04:43:00,
2013-06-06 00:44:00,73.9,69.2,29.88,SSE,158,1.1,1.1,85,0.00,,---,0.00,VWS V14.01,2013-06-06 04:44:00,
2013-06-06 00:45:00,73.9,69.2,29.88,NE,45,5.4,5.4,85,0.00,,---,0.00,VWS V14.01,2013-06-06 04:45:00,
2013-06-06 00:46:00,73.9,69.2,29.88,ESE,112,0.0,5.4,85,0.00,,---,0.00,VWS V14.01,2013-06-06 04:46:00,
2013-06-06 00:47:00,73.9,69.2,29.88,WNW,292,3.4,3.4,85,0.00,,---,0.00,VWS V14.01,2013-06-06 04:47:00,
2013-06-06 00:48:00,73.9,69.2,29.88,SSE,158,0.0,3.4,85,0.00,,---,0.00,VWS V14.01,2013-06-06 04:48:00,
2013-06-06 00:49:00,73.9,69.2,29.88,SSE,158,0.0,0.0,85,0.00,,---,0.00,VWS V14.01,2013-06-06 04:49:00,
2013-06-06 00:50:00,73.9,69.2,29.88,SSE,158,0.0,0.0,85,0.00,,---,0.00,VWS V14.01,2013-06-06 04:50:00,
2013-06-06 00:51:00,73.8,69.0,29.88,SSE,158,0.0,0.0,85,0.00,,---,0.00,VWS V14.01,2013-06-06 04:51:00,
2013-06-06 00:52:00,73.9,69.2,29.88,SSE,158,0.0,2.9,85,0.00,,---,0.00,VWS V14.01,2013-06-06 04:52:00,
2013-06-06 00:53:00,73.9,69.2,29.88,SE,135,0.0,2.9,85,0.00,,---,0.00,VWS V14.01,2013-06-06 04:53:00,
2013-06-06 00:54:00,73.9,69.2,29.88,ESE,112,0.0,0.0,85,0.00,,---,0.00,VWS V14.01,2013-06-06 04:54:00,
2013-06-06 00:55:00,73.9,69.2,29.88,SSW,202,0.0,0.0,85,0.00,,---,0.00,VWS V14.01,2013-06-06 04:55:00,
2013-06-06 00:56:00,73.9,69.2,29.88,SSE,158,0.0,0.0,85,0.00,,---,0.00,VWS V14.01,2013-06-06 04:56:00,
2013-06-06 00:57:00,73.9,69.2,29.88,East,90,0.0,1.1,85,0.00,,---,0.00,VWS V14.01,2013-06-06 04:57:00,
2013-06-06 00:58:00,73.9,69.2,29.88,East,90,0.0,1.1,85,0.00,,---,0.00,VWS V14.01,2013-06-06 04:58:00,
2013-06-06 00:59:00,73.9,69.2,29.85,ENE,68,0.0,0.0,85,0.00,,---,0.00,VWS V14.01,2013-06-06 04:59:00,
2013-06-06 01:00:00,73.9,69.2,29.85,SSE,158,0.0,2.0,85,0.00,,---,0.00,VWS V14.01,2013-06-06 05:00:00,
2013-06-06 01:01:00,73.9,69.2,29.85,SSE,158,1.1,2.5,85,0.00,,---,0.00,VWS V14.01,2013-06-06 05:01:00,
2013-06-06 01:02:00,73.9,69.2,29.85,SE,135,2.2,3.1,85,0.00,,---,0.00,VWS V14.01,2013-06-06 05:02:00,
2013-06-06 01:03:00,73.9,69.2,29.85,SE,135,2.2,3.1,85,0.00,,---,0.00,VWS V14.01,2013-06-06 05:03:00,
2013-06-06 01:04:00,73.9,69.2,29.85,SSE,158,2.0,2.2,85,0.00,,---,0.00,VWS V14.01,2013-06-06 05:04:00,
2013-06-06 01:05:00,73.9,69.2,29.85,SE,135,0.0,2.5,85,0.00,,---,0.00,VWS V14.01,2013-06-06 05:05:00,
2013-06-06 01:06:00,73.9,69.2,29.85,SSE,158,0.0,0.0,85,0.00,,---,0.00,VWS V14.01,2013-06-06 05:06:00,
2013-06-06 01:07:00,73.9,69.2,29.85,SSE,158,0.0,0.0,85,0.00,,---,0.00,VWS V14.01,2013-06-06 05:07:00,
2013-06-06 01:08:00,73.9,69.2,29.85,SSE,158,0.0,0.0,85,0.00,,---,0.00,VWS V14.01,2013-06-06 05:08:00,
2013-06-06 01:09:00,73.9,69.2,29.85,SSE,158,0.0,0.0,85,0.00,,---,0.00,VWS V14.01,2013-06-06 05:09:00,
2013-06-06 01:10:00,73.9,69.2,29.85,SSE,158,0.0,4.7,85,0.00,,---,0.00,VWS V14.01,2013-06-06 05:10:00,
2013-06-06 01:11:00,73.9,69.2,29.85,SSE,158,0.0,0.0,85,0.00,,---,0.00,VWS V14.01,2013-06-06 05:11:00,
2013-06-06 01:12:00,73.9,69.2,29.85,SSE,158,0.0,0.0,85,0.00,,---,0.00,VWS V14.01,2013-06-06 05:12:00,
2013-06-06 01:13:00,73.9,69.2,29.85,SSE,158,0.0,0.0,85,0.00,,---,0.00,VWS V14.01,2013-06-06 05:13:00,
2013-06-06 01:14:00,73.9,69.2,29.85,SSE,158,0.0,0.0,85,0.00,,---,0.00,VWS V14.01,2013-06-06 05:14:00,
2013-06-06 01:15:00,73.9,69.2,29.85,SSE,158,0.0,0.0,85,0.00,,---,0.00,VWS V14.01,2013-06-06 05:15:00,
2013-06-06 01:16:00,73.9,69.2,29.85,SSE,158,0.0,0.0,85,0.00,,---,0.00,VWS V14.01,2013-06-06 05:16:00,
2013-06-06 01:17:00,73.9,69.2,29.85,South,180,0.0,0.0,85,0.00,,---,0.00,VWS V14.01,2013-06-06 05:17:00,
2013-06-06 01:18:00,73.9,69.2,29.85,SSW,202,0.0,3.4,85,0.00,,---,0.00,VWS V14.01,2013-06-06 05:18:00,
2013-06-06 01:19:00,73.9,69.2,29.85,ESE,112,1.6,1.6,85,0.00,,---,0.00,VWS V14.01,2013-06-06 05:19:00,
2013-06-06 01:20:00,73.9,69.2,29.85,South,180,1.1,1.6,85,0.00,,---,0.00,VWS V14.01,2013-06-06 05:20:00,
2013-06-06 01:21:00,73.9,69.2,29.85,South,180,1.6,1.6,85,0.00,,---,0.00,VWS V14.01,2013-06-06 05:21:00,
2013-06-06 01:22:00,73.9,69.2,29.85,SSE,158,0.0,0.0,85,0.00,,---,0.00,VWS V14.01,2013-06-06 05:22:00,
2013-06-06 01:23:00,73.9,69.2,29.85,SSE,158,0.0,3.8,85,0.00,,---,0.00,VWS V14.01,2013-06-06 05:23:00,
2013-06-06 01:24:00,73.9,69.2,29.85,South,180,0.0,0.0,85,0.00,,---,0.00,VWS V14.01,2013-06-06 05:24:00,
2013-06-06 01:25:00,73.9,69.2,29.85,SW,225,0.0,0.9,85,0.00,,---,0.00,VWS V14.01,2013-06-06 05:25:00,
2013-06-06 01:26:00,73.9,69.2,29.85,SSE,158,0.0,0.0,85,0.00,,---,0.00,VWS V14.01,2013-06-06 05:26:00,
2013-06-06 01:27:00,73.9,69.2,29.85,South,180,0.0,0.0,85,0.00,,---,0.00,VWS V14.01,2013-06-06 05:27:00,
2013-06-06 01:28:00,73.9,69.2,29.85,South,180,0.0,1.1,85,0.00,,---,0.00,VWS V14.01,2013-06-06 05:28:00,
2013-06-06 01:29:00,73.9,69.2,29.85,SSE,158,0.0,0.0,85,0.00,,---,0.00,VWS V14.01,2013-06-06 05:29:00,
2013-06-06 01:30:00,73.9,69.5,29.85,SSE,158,0.0,0.9,86,0.00,,---,0.00,VWS V14.01,2013-06-06 05:30:00,
2013-06-06 01:31:00,73.9,69.5,29.85,SSE,158,1.1,1.1,86,0.00,,---,0.00,VWS V14.01,2013-06-06 05:31:00,
2013-06-06 01:32:00,73.9,69.8,29.85,ESE,112,0.0,0.0,87,0.00,,---,0.00,VWS V14.01,2013-06-06 05:32:00,
2013-06-06 01:33:00,73.9,69.5,29.85,SSW,202,0.0,0.9,86,0.00,,---,0.00,VWS V14.01,2013-06-06 05:33:00,
2013-06-06 01:34:00,73.9,69.8,29.85,ESE,112,0.0,0.0,87,0.00,,---,0.00,VWS V14.01,2013-06-06 05:34:00,
2013-06-06 01:35:00,73.9,69.8,29.85,SSE,158,0.0,0.9,87,0.00,,---,0.00,VWS V14.01,2013-06-06 05:35:00,
2013-06-06 01:36:00,73.9,69.8,29.85,South,180,0.0,0.0,87,0.00,,---,0.00,VWS V14.01,2013-06-06 05:36:00,
2013-06-06 01:37:00,74.1,70.0,29.85,SSW,202,1.6,1.6,87,0.00,,---,0.00,VWS V14.01,2013-06-06 05:37:00,
2013-06-06 01:38:00,73.9,69.8,29.85,SSE,158,0.0,0.0,87,0.00,,---,0.00,VWS V14.01,2013-06-06 05:38:00,
2013-06-06 01:39:00,73.9,69.8,29.85,SE,135,0.0,0.0,87,0.00,,---,0.00,VWS V14.01,2013-06-06 05:39:00,
2013-06-06 01:40:00,73.9,69.8,29.85,SE,135,0.0,0.0,87,0.00,,---,0.00,VWS V14.01,2013-06-06 05:40:00,
2013-06-06 01:41:00,74.1,70.0,29.85,ESE,112,0.0,0.9,87,0.00,,---,0.00,VWS V14.01,2013-06-06 05:41:00,
2013-06-06 01:42:00,74.1,70.0,29.85,ESE,112,0.0,0.0,87,0.00,,---,0.00,VWS V14.01,2013-06-06 05:42:00,
2013-06-06 01:43:00,74.1,70.0,29.85,SSE,158,0.0,0.0,87,0.00,,---,0.00,VWS V14.01,2013-06-06 05:43:00,
2013-06-06 01:44:00,74.1,70.0,29.85,SSE,158,0.0,0.0,87,0.00,,---,0.00,VWS V14.01,2013-06-06 05:44:00,
2013-06-06 01:45:00,74.1,70.0,29.85,SE,135,0.0,2.0,87,0.00,,---,0.00,VWS V14.01,2013-06-06 05:45:00,
2013-06-06 01:46:00,74.1,70.0,29.85,NNE,22,0.0,1.3,87,0.00,,---,0.00,VWS V14.01,2013-06-06 05:46:00,
2013-06-06 01:47:00,74.1,70.0,29.85,SSE,158,0.0,0.9,87,0.00,,---,0.00,VWS V14.01,2013-06-06 05:47:00,
2013-06-06 01:48:00,74.1,70.0,29.85,SSE,158,0.9,0.9,87,0.00,,---,0.00,VWS V14.01,2013-06-06 05:48:00,
2013-06-06 01:49:00,74.1,70.0,29.85,SE,135,0.0,0.9,87,0.00,,---,0.00,VWS V14.01,2013-06-06 05:49:00,
2013-06-06 01:50:00,74.1,70.0,29.85,SSE,158,2.5,2.7,87,0.00,,---,0.00,VWS V14.01,2013-06-06 05:50:00,
2013-06-06 01:51:00,74.1,70.0,29.85,SSE,158,0.0,2.5,87,0.00,,---,0.00,VWS V14.01,2013-06-06 05:51:00,
2013-06-06 01:52:00,74.1,70.3,29.85,SSW,202,1.3,1.3,88,0.00,,---,0.00,VWS V14.01,2013-06-06 05:52:00,
2013-06-06 01:53:00,74.1,70.3,29.85,SSE,158,0.0,3.6,88,0.00,,---,0.00,VWS V14.01,2013-06-06 05:53:00,
2013-06-06 01:54:00,74.1,70.3,29.85,South,180,1.1,3.6,88,0.00,,---,0.00,VWS V14.01,2013-06-06 05:54:00,
2013-06-06 01:55:00,74.1,70.3,29.85,WSW,248,0.0,1.3,88,0.00,,---,0.00,VWS V14.01,2013-06-06 05:55:00,
2013-06-06 01:56:00,74.1,70.3,29.85,SSE,158,0.0,0.0,88,0.00,,---,0.00,VWS V14.01,2013-06-06 05:56:00,
2013-06-06 01:57:00,74.1,70.3,29.85,NE,45,0.0,0.0,88,0.00,,---,0.00,VWS V14.01,2013-06-06 05:57:00,
2013-06-06 01:58:00,74.1,70.3,29.85,NNE,22,1.1,1.1,88,0.00,,---,0.00,VWS V14.01,2013-06-06 05:58:00,
2013-06-06 01:59:00,74.1,70.3,29.85,East,90,2.5,2.5,88,0.00,,---,0.00,VWS V14.01,2013-06-06 05:59:00,
2013-06-06 02:00:00,74.1,70.3,29.85,South,180,0.0,2.7,88,0.00,,---,0.00,VWS V14.01,2013-06-06 06:00:00,
2013-06-06 02:01:00,74.1,70.3,29.85,SSW,202,0.0,0.0,88,0.00,,---,0.00,VWS V14.01,2013-06-06 06:01:00,
2013-06-06 02:02:00,74.1,70.3,29.85,SSE,158,0.0,0.0,88,0.00,,---,0.00,VWS V14.01,2013-06-06 06:02:00,
2013-06-06 02:03:00,74.3,70.5,29.85,SSE,158,2.2,2.2,88,0.00,,---,0.00,VWS V14.01,2013-06-06 06:03:00,
2013-06-06 02:04:00,74.3,70.5,29.85,SW,225,0.0,2.2,88,0.00,,---,0.00,VWS V14.01,2013-06-06 06:04:00,
2013-06-06 02:05:00,74.1,70.3,29.85,SSW,202,0.0,0.0,88,0.00,,---,0.00,VWS V14.01,2013-06-06 06:05:00,
2013-06-06 02:06:00,74.1,70.3,29.85,ENE,68,0.0,0.0,88,0.00,,---,0.00,VWS V14.01,2013-06-06 06:06:00,
2013-06-06 02:07:00,74.1,70.3,29.85,SSE,158,0.0,0.0,88,0.00,,---,0.00,VWS V14.01,2013-06-06 06:07:00,
2013-06-06 02:08:00,74.1,70.3,29.85,South,180,0.0,0.0,88,0.00,,---,0.00,VWS V14.01,2013-06-06 06:08:00,
2013-06-06 02:09:00,74.1,70.3,29.85,South,180,0.0,0.0,88,0.00,,---,0.00,VWS V14.01,2013-06-06 06:09:00,
2013-06-06 02:10:00,74.1,70.3,29.85,South,180,0.0,0.0,88,0.00,,---,0.00,VWS V14.01,2013-06-06 06:10:00,
2013-06-06 02:11:00,74.1,70.3,29.85,SE,135,0.0,0.0,88,0.00,,---,0.00,VWS V14.01,2013-06-06 06:11:00,
2013-06-06 02:12:00,74.3,70.5,29.85,SSW,202,0.0,2.5,88,0.00,,---,0.00,VWS V14.01,2013-06-06 06:12:00,
2013-06-06 02:13:00,74.3,70.8,29.85,SSE,158,0.0,0.0,89,0.00,,---,0.00,VWS V14.01,2013-06-06 06:13:00,
2013-06-06 02:14:00,74.3,70.8,29.85,SSE,158,0.0,0.0,89,0.00,,---,0.00,VWS V14.01,2013-06-06 06:14:00,
2013-06-06 02:15:00,74.3,70.8,29.85,ESE,112,0.0,1.1,89,0.00,,---,0.00,VWS V14.01,2013-06-06 06:15:00,
2013-06-06 02:16:00,74.3,70.8,29.85,NNE,22,2.2,2.5,89,0.00,,---,0.00,VWS V14.01,2013-06-06 06:16:00,
2013-06-06 02:17:00,74.3,70.8,29.85,SSE,158,0.0,2.2,89,0.00,,---,0.00,VWS V14.01,2013-06-06 06:17:00,
2013-06-06 02:18:00,74.3,70.8,29.85,SSE,158,0.0,0.0,89,0.00,,---,0.00,VWS V14.01,2013-06-06 06:18:00,
2013-06-06 02:19:00,74.3,70.8,29.85,East,90,1.1,1.1,89,0.00,,---,0.00,VWS V14.01,2013-06-06 06:19:00,
2013-06-06 02:20:00,74.3,70.8,29.85,SSW,202,1.6,2.7,89,0.00,,---,0.00,VWS V14.01,2013-06-06 06:20:00,
2013-06-06 02:21:00,74.3,70.8,29.85,SE,135,1.3,2.0,89,0.00,,---,0.00,VWS V14.01,2013-06-06 06:21:00,
2013-06-06 02:22:00,74.3,70.8,29.85,ENE,68,1.1,1.3,89,0.00,,---,0.00,VWS V14.01,2013-06-06 06:22:00,
2013-06-06 02:23:00,74.3,70.8,29.85,SSE,158,0.0,0.0,89,0.00,,---,0.00,VWS V14.01,2013-06-06 06:23:00,
2013-06-06 02:24:00,74.3,70.8,29.85,SSE,158,0.0,0.0,89,0.00,,---,0.00,VWS V14.01,2013-06-06 06:24:00,
2013-06-06 02:25:00,74.1,70.7,29.85,WNW,292,0.0,0.0,89,0.00,,---,0.00,VWS V14.01,2013-06-06 06:25:00,
2013-06-06 02:26:00,74.3,70.8,29.85,SSW,202,0.0,0.0,89,0.00,,---,0.00,VWS V14.01,2013-06-06 06:26:00,
2013-06-06 02:27:00,74.1,70.7,29.85,SSE,158,0.0,0.0,89,0.00,,---,0.00,VWS V14.01,2013-06-06 06:27:00,
2013-06-06 02:28:00,74.1,70.7,29.85,SSW,202,1.3,2.7,89,0.00,,---,0.00,VWS V14.01,2013-06-06 06:28:00,
2013-06-06 02:29:00,74.1,70.7,29.85,SSW,202,1.1,2.7,89,0.00,,---,0.00,VWS V14.01,2013-06-06 06:29:00,
2013-06-06 02:30:00,74.1,70.7,29.85,WSW,248,0.0,3.6,89,0.00,,---,0.00,VWS V14.01,2013-06-06 06:30:00,
2013-06-06 02:31:00,74.1,70.7,29.85,SSE,158,1.3,2.0,89,0.00,,---,0.00,VWS V14.01,2013-06-06 06:31:00,
2013-06-06 02:32:00,74.1,70.7,29.85,East,90,0.9,2.2,89,0.00,,---,0.00,VWS V14.01,2013-06-06 06:32:00,
2013-06-06 02:33:00,74.1,70.7,29.85,SSW,202,0.0,1.1,89,0.00,,---,0.00,VWS V14.01,2013-06-06 06:33:00,
2013-06-06 02:34:00,74.1,70.7,29.85,SSE,158,1.1,1.1,89,0.00,,---,0.00,VWS V14.01,2013-06-06 06:34:00,
2013-06-06 02:35:00,74.1,70.7,29.85,SSE,158,0.0,2.0,89,0.00,,---,0.00,VWS V14.01,2013-06-06 06:35:00,
2013-06-06 02:36:00,74.1,70.7,29.85,WSW,248,2.9,2.9,89,0.00,,---,0.00,VWS V14.01,2013-06-06 06:36:00,
2013-06-06 02:37:00,74.1,70.7,29.85,SSE,158,0.0,2.9,89,0.00,,---,0.00,VWS V14.01,2013-06-06 06:37:00,
2013-06-06 02:38:00,73.9,70.5,29.85,SSE,158,5.8,5.8,89,0.00,,---,0.00,VWS V14.01,2013-06-06 06:38:00,
2013-06-06 02:39:00,73.9,70.5,29.85,SSE,158,1.3,5.8,89,0.00,,---,0.00,VWS V14.01,2013-06-06 06:39:00,
2013-06-06 02:40:00,73.9,70.5,29.85,SSE,158,0.0,1.6,89,0.00,,---,0.00,VWS V14.01,2013-06-06 06:40:00,
2013-06-06 02:41:00,73.9,70.5,29.85,SSE,158,2.9,2.9,89,0.00,,---,0.00,VWS V14.01,2013-06-06 06:41:00,
2013-06-06 02:42:00,73.9,70.5,29.85,SSE,158,0.0,3.6,89,0.00,,---,0.00,VWS V14.01,2013-06-06 06:42:00,
2013-06-06 02:43:00,73.9,70.5,29.85,SE,135,0.0,2.0,89,0.00,,---,0.00,VWS V14.01,2013-06-06 06:43:00,
2013-06-06 02:44:00,73.9,70.5,29.85,SE,135,0.0,2.0,89,0.00,,---,0.00,VWS V14.01,2013-06-06 06:44:00,
2013-06-06 02:45:00,73.9,70.5,29.85,SSE,158,0.0,0.9,89,0.00,,---,0.00,VWS V14.01,2013-06-06 06:45:00,
2013-06-06 02:46:00,73.9,70.2,29.85,SSE,158,0.0,2.5,88,0.00,,---,0.00,VWS V14.01,2013-06-06 06:46:00,
2013-06-06 02:47:00,73.9,70.2,29.85,SSE,158,2.2,3.1,88,0.00,,---,0.00,VWS V14.01,2013-06-06 06:47:00,
2013-06-06 02:48:00,73.9,70.2,29.85,SSE,158,0.0,1.1,88,0.00,,---,0.00,VWS V14.01,2013-06-06 06:48:00,
2013-06-06 02:49:00,73.9,70.2,29.85,East,90,0.0,1.1,88,0.00,,---,0.00,VWS V14.01,2013-06-06 06:49:00,
2013-06-06 02:50:00,73.9,70.2,29.85,SSE,158,0.9,2.2,88,0.00,,---,0.00,VWS V14.01,2013-06-06 06:50:00,
2013-06-06 02:51:00,73.9,70.2,29.85,SSE,158,0.9,3.6,88,0.00,,---,0.00,VWS V14.01,2013-06-06 06:51:00,
2013-06-06 02:52:00,73.9,70.2,29.85,SSE,158,2.0,2.0,88,0.00,,---,0.00,VWS V14.01,2013-06-06 06:52:00,
2013-06-06 02:53:00,73.9,70.2,29.85,ESE,112,0.0,0.0,88,0.00,,---,0.00,VWS V14.01,2013-06-06 06:53:00,
2013-06-06 02:54:00,73.9,70.2,29.85,SSE,158,0.0,0.0,88,0.00,,---,0.00,VWS V14.01,2013-06-06 06:54:00,
2013-06-06 02:55:00,73.9,70.2,29.85,SSE,158,0.0,0.0,88,0.00,,---,0.00,VWS V14.01,2013-06-06 06:55:00,
2013-06-06 02:56:00,73.8,70.0,29.85,SSE,158,0.0,0.0,88,0.00,,---,0.00,VWS V14.01,2013-06-06 06:56:00,
2013-06-06 02:57:00,73.8,70.0,29.85,SSE,158,0.0,0.0,88,0.00,,---,0.00,VWS V14.01,2013-06-06 06:57:00,
2013-06-06 02:58:00,73.8,70.0,29.85,SSE,158,0.0,0.0,88,0.00,,---,0.00,VWS V14.01,2013-06-06 06:58:00,
2013-06-06 02:59:00,73.8,70.0,29.82,SSE,158,0.0,0.0,88,0.00,,---,0.00,VWS V14.01,2013-06-06 06:59:00,
2013-06-06 03:00:00,73.8,70.0,29.82,SSE,158,0.0,0.0,88,0.00,,---,0.00,VWS V14.01,2013-06-06 07:00:00,
2013-06-06 03:01:00,73.8,69.7,29.82,SSE,158,0.0,1.6,87,0.00,,---,0.00,VWS V14.01,2013-06-06 07:01:00,
2013-06-06 03:02:00,73.8,69.7,29.82,SSE,158,0.0,0.0,87,0.00,,---,0.00,VWS V14.01,2013-06-06 07:02:00,
2013-06-06 03:03:00,73.8,69.7,29.82,SSE,158,2.7,2.7,87,0.00,,---,0.00,VWS V14.01,2013-06-06 07:03:00,
2013-06-06 03:04:00,73.8,69.7,29.82,SSE,158,0.0,2.7,87,0.00,,---,0.00,VWS V14.01,2013-06-06 07:04:00,
2013-06-06 03:05:00,73.8,69.7,29.82,South,180,3.1,3.1,87,0.00,,---,0.00,VWS V14.01,2013-06-06 07:05:00,
2013-06-06 03:06:00,73.8,69.7,29.82,SSE,158,0.0,3.1,87,0.00,,---,0.00,VWS V14.01,2013-06-06 07:06:00,
2013-06-06 03:07:00,73.8,69.7,29.82,SSE,158,0.0,0.9,87,0.00,,---,0.00,VWS V14.01,2013-06-06 07:07:00,
2013-06-06 03:08:00,73.8,69.7,29.82,SSE,158,0.9,3.4,87,0.00,,---,0.00,VWS V14.01,2013-06-06 07:08:00,
2013-06-06 03:09:00,73.8,69.7,29.82,East,90,0.0,0.9,87,0.00,,---,0.00,VWS V14.01,2013-06-06 07:09:00,
2013-06-06 03:10:00,73.8,69.7,29.82,SSE,158,1.6,4.3,87,0.00,,---,0.00,VWS V14.01,2013-06-06 07:10:00,
2013-06-06 03:11:00,73.8,69.7,29.82,SSE,158,0.0,1.6,87,0.00,,---,0.00,VWS V14.01,2013-06-06 07:11:00,
2013-06-06 03:12:00,73.8,69.7,29.82,SSE,158,0.0,0.0,87,0.00,,---,0.00,VWS V14.01,2013-06-06 07:12:00,
2013-06-06 03:13:00,73.8,70.0,29.82,SSE,158,0.0,0.9,88,0.00,,---,0.00,VWS V14.01,2013-06-06 07:13:00,
2013-06-06 03:14:00,73.8,70.0,29.82,SSE,158,0.0,2.2,88,0.00,,---,0.00,VWS V14.01,2013-06-06 07:14:00,
2013-06-06 03:15:00,73.6,69.5,29.82,ESE,112,0.0,0.0,87,0.00,,---,0.00,VWS V14.01,2013-06-06 07:15:00,
2013-06-06 03:16:00,73.6,69.5,29.82,SSE,158,0.0,0.0,87,0.00,,---,0.00,VWS V14.01,2013-06-06 07:16:00,
2013-06-06 03:17:00,73.6,69.8,29.82,NNE,22,2.5,2.5,88,0.00,,---,0.00,VWS V14.01,2013-06-06 07:17:00,
2013-06-06 03:18:00,73.6,69.8,29.82,SSE,158,0.0,0.0,88,0.00,,---,0.00,VWS V14.01,2013-06-06 07:18:00,
2013-06-06 03:19:00,73.6,69.8,29.82,South,180,0.0,2.5,88,0.00,,---,0.00,VWS V14.01,2013-06-06 07:19:00,
2013-06-06 03:20:00,73.6,69.8,29.82,SE,135,0.9,0.9,88,0.00,,---,0.00,VWS V14.01,2013-06-06 07:20:00,
2013-06-06 03:21:00,73.6,69.8,29.82,NNE,22,0.0,0.9,88,0.00,,---,0.00,VWS V14.01,2013-06-06 07:21:00,
2013-06-06 03:22:00,73.6,69.8,29.82,South,180,0.0,0.0,88,0.00,,---,0.00,VWS V14.01,2013-06-06 07:22:00,
2013-06-06 03:23:00,73.6,69.8,29.82,SSE,158,0.0,0.0,88,0.00,,---,0.00,VWS V14.01,2013-06-06 07:23:00,
2013-06-06 03:24:00,73.6,69.8,29.82,SE,135,0.0,0.0,88,0.00,,---,0.00,VWS V14.01,2013-06-06 07:24:00,
2013-06-06 03:25:00,73.6,69.8,29.82,South,180,0.0,3.6,88,0.00,,---,0.00,VWS V14.01,2013-06-06 07:25:00,
2013-06-06 03:26:00,73.6,69.8,29.82,South,180,0.0,1.1,88,0.00,,---,0.00,VWS V14.01,2013-06-06 07:26:00,
2013-06-06 03:27:00,73.6,69.8,29.82,ESE,112,0.0,1.1,88,0.00,,---,0.00,VWS V14.01,2013-06-06 07:27:00,
2013-06-06 03:28:00,73.6,69.8,29.82,SSE,158,0.0,3.1,88,0.00,,---,0.00,VWS V14.01,2013-06-06 07:28:00,
2013-06-06 03:29:00,73.6,69.8,29.82,SSE,158,0.0,3.1,88,0.00,,---,0.00,VWS V14.01,2013-06-06 07:29:00,
2013-06-06 03:30:00,73.6,70.1,29.82,South,180,0.0,1.1,89,0.00,,---,0.00,VWS V14.01,2013-06-06 07:30:00,
2013-06-06 03:31:00,73.6,70.1,29.82,ESE,112,0.0,0.0,89,0.00,,---,0.00,VWS V14.01,2013-06-06 07:31:00,
2013-06-06 03:32:00,73.6,70.1,29.82,SE,135,0.0,1.3,89,0.00,,---,0.00,VWS V14.01,2013-06-06 07:32:00,
2013-06-06 03:33:00,73.6,70.1,29.82,South,180,0.0,0.0,89,0.00,,---,0.00,VWS V14.01,2013-06-06 07:33:00,
2013-06-06 03:34:00,73.6,70.1,29.82,South,180,0.0,0.0,89,0.00,,---,0.00,VWS V14.01,2013-06-06 07:34:00,
2013-06-06 03:35:00,73.4,70.0,29.82,SSW,202,0.0,0.0,89,0.00,,---,0.00,VWS V14.01,2013-06-06 07:35:00,
2013-06-06 03:36:00,73.4,70.0,29.82,SSE,158,0.0,0.0,89,0.00,,---,0.00,VWS V14.01,2013-06-06 07:36:00,
2013-06-06 03:37:00,73.4,70.0,29.82,SSE,158,0.0,0.0,89,0.00,,---,0.00,VWS V14.01,2013-06-06 07:37:00,
2013-06-06 03:38:00,73.4,70.0,29.82,SSE,158,0.0,2.0,89,0.00,,---,0.00,VWS V14.01,2013-06-06 07:38:00,
2013-06-06 03:39:00,73.4,70.0,29.82,SSE,158,0.0,2.0,89,0.00,,---,0.00,VWS V14.01,2013-06-06 07:39:00,
2013-06-06 03:40:00,73.4,70.0,29.82,SSE,158,0.0,0.0,89,0.00,,---,0.00,VWS V14.01,2013-06-06 07:40:00,
2013-06-06 03:41:00,73.4,70.0,29.82,South,180,0.0,0.0,89,0.00,,---,0.00,VWS V14.01,2013-06-06 07:41:00,
2013-06-06 03:42:00,73.4,70.0,29.82,South,180,0.0,0.0,89,0.00,,---,0.00,VWS V14.01,2013-06-06 07:42:00,
2013-06-06 03:43:00,73.4,70.0,29.82,SSE,158,0.0,0.0,89,0.00,,---,0.00,VWS V14.01,2013-06-06 07:43:00,
2013-06-06 03:44:00,73.4,70.0,29.82,SSE,158,0.0,0.0,89,0.00,,---,0.00,VWS V14.01,2013-06-06 07:44:00,
2013-06-06 03:45:00,73.4,70.0,29.82,WSW,248,0.0,0.0,89,0.00,,---,0.00,VWS V14.01,2013-06-06 07:45:00,
2013-06-06 03:46:00,73.4,70.0,29.82,NNW,338,0.0,0.0,89,0.00,,---,0.00,VWS V14.01,2013-06-06 07:46:00,
2013-06-06 03:47:00,73.4,70.0,29.82,SSE,158,0.0,0.0,89,0.00,,---,0.00,VWS V14.01,2013-06-06 07:47:00,
2013-06-06 03:48:00,73.2,69.8,29.82,South,180,0.0,0.0,89,0.00,,---,0.00,VWS V14.01,2013-06-06 07:48:00,
2013-06-06 03:49:00,73.2,69.8,29.82,SE,135,2.7,2.7,89,0.00,,---,0.00,VWS V14.01,2013-06-06 07:49:00,
2013-06-06 03:50:00,73.4,70.0,29.82,SE,135,0.0,2.7,89,0.00,,---,0.00,VWS V14.01,2013-06-06 07:50:00,
2013-06-06 03:51:00,73.2,69.8,29.82,SSE,158,0.0,0.0,89,0.00,,---,0.00,VWS V14.01,2013-06-06 07:51:00,
2013-06-06 03:52:00,73.2,69.8,29.82,SSE,158,0.0,2.2,89,0.00,,---,0.00,VWS V14.01,2013-06-06 07:52:00,
2013-06-06 03:53:00,73.4,70.0,29.82,SSE,158,0.0,0.0,89,0.00,,---,0.00,VWS V14.01,2013-06-06 07:53:00,
2013-06-06 03:54:00,73.4,70.0,29.82,SSE,158,0.0,0.0,89,0.00,,---,0.00,VWS V14.01,2013-06-06 07:54:00,
2013-06-06 03:55:00,73.2,70.1,29.82,SSE,158,0.0,0.0,90,0.00,,---,0.00,VWS V14.01,2013-06-06 07:55:00,
2013-06-06 03:56:00,73.2,70.1,29.82,ESE,112,0.9,0.9,90,0.00,,---,0.00,VWS V14.01,2013-06-06 07:56:00,
2013-06-06 03:57:00,73.2,70.1,29.82,SE,135,0.0,0.9,90,0.00,,---,0.00,VWS V14.01,2013-06-06 07:57:00,
2013-06-06 03:58:00,73.2,70.1,29.82,ESE,112,0.0,0.0,90,0.00,,---,0.00,VWS V14.01,2013-06-06 07:58:00,
2013-06-06 03:59:00,73.2,70.1,29.80,East,90,0.0,0.0,90,0.00,,---,0.00,VWS V14.01,2013-06-06 07:59:00,
2013-06-06 04:00:00,73.2,70.1,29.80,SSE,158,0.0,2.2,90,0.00,,---,0.00,VWS V14.01,2013-06-06 08:00:00,
2013-06-06 04:01:00,73.2,70.1,29.80,SE,135,2.7,2.7,90,0.00,,---,0.00,VWS V14.01,2013-06-06 08:01:00,
2013-06-06 04:02:00,73.2,70.1,29.80,SE,135,0.0,2.7,90,0.00,,---,0.00,VWS V14.01,2013-06-06 08:02:00,
2013-06-06 04:03:00,73.2,70.1,29.79,South,180,1.6,2.9,90,0.00,,---,0.00,VWS V14.01,2013-06-06 08:03:00,
2013-06-06 04:04:00,73.2,70.1,29.80,SSE,158,0.0,2.9,90,0.00,,---,0.00,VWS V14.01,2013-06-06 08:04:00,
2013-06-06 04:05:00,73.2,70.1,29.80,NE,45,0.0,0.0,90,0.00,,---,0.00,VWS V14.01,2013-06-06 08:05:00,
2013-06-06 04:06:00,73.2,70.1,29.80,SSW,202,0.9,0.9,90,0.00,,---,0.00,VWS V14.01,2013-06-06 08:06:00,
2013-06-06 04:07:00,73.2,70.1,29.80,SSE,158,0.0,0.9,90,0.00,,---,0.00,VWS V14.01,2013-06-06 08:07:00,
2013-06-06 04:08:00,73.2,70.1,29.79,ESE,112,0.0,0.0,90,0.00,,---,0.00,VWS V14.01,2013-06-06 08:08:00,
2013-06-06 04:09:00,73.2,70.1,29.80,SE,135,0.0,0.0,90,0.00,,---,0.00,VWS V14.01,2013-06-06 08:09:00,
2013-06-06 04:10:00,73.2,70.1,29.80,SSE,158,0.9,2.9,90,0.00,,---,0.00,VWS V14.01,2013-06-06 08:10:00,
2013-06-06 04:11:00,73.2,70.1,29.80,East,90,0.0,2.2,90,0.00,,---,0.00,VWS V14.01,2013-06-06 08:11:00,
2013-06-06 04:12:00,73.2,70.1,29.80,WSW,248,0.9,0.9,90,0.00,,---,0.00,VWS V14.01,2013-06-06 08:12:00,
2013-06-06 04:13:00,73.0,69.9,29.79,NNW,338,0.9,0.9,90,0.00,,---,0.00,VWS V14.01,2013-06-06 08:13:00,
2013-06-06 04:14:00,73.2,70.1,29.76,SE,135,2.2,2.2,90,0.00,,---,0.00,VWS V14.01,2013-06-06 08:14:00,
2013-06-06 04:15:00,73.2,70.1,29.76,East,90,1.3,2.2,90,0.00,,---,0.00,VWS V14.01,2013-06-06 08:15:00,
2013-06-06 04:16:00,73.2,70.1,29.76,South,180,1.1,3.4,90,0.00,,---,0.00,VWS V14.01,2013-06-06 08:16:00,
2013-06-06 04:17:00,73.0,70.3,29.76,SE,135,5.6,5.6,91,0.00,,---,0.00,VWS V14.01,2013-06-06 08:17:00,
2013-06-06 04:18:00,73.0,70.3,29.76,SE,135,0.0,0.0,91,0.00,,---,0.00,VWS V14.01,2013-06-06 08:18:00,
2013-06-06 04:19:00,73.0,70.3,29.76,SE,135,0.0,0.0,91,0.00,,---,0.00,VWS V14.01,2013-06-06 08:19:00,
2013-06-06 04:20:00,73.0,70.3,29.76,ESE,112,6.0,6.0,91,0.00,,---,0.00,VWS V14.01,2013-06-06 08:20:00,
2013-06-06 04:21:00,73.0,70.3,29.76,East,90,1.6,6.0,91,0.00,,---,0.00,VWS V14.01,2013-06-06 08:21:00,
2013-06-06 04:22:00,73.0,70.3,29.76,ESE,112,2.7,3.1,91,0.00,,---,0.00,VWS V14.01,2013-06-06 08:22:00,
2013-06-06 04:23:00,73.0,70.3,29.76,South,180,0.9,3.8,91,0.00,,---,0.00,VWS V14.01,2013-06-06 08:23:00,
2013-06-06 04:24:00,73.0,70.3,29.76,SE,135,0.0,3.8,91,0.00,,---,0.00,VWS V14.01,2013-06-06 08:24:00,
2013-06-06 04:25:00,73.0,70.3,29.76,SE,135,0.0,4.7,91,0.00,,---,0.00,VWS V14.01,2013-06-06 08:25:00,
2013-06-06 04:26:00,73.0,70.3,29.76,SSE,158,2.5,2.5,91,0.00,,---,0.00,VWS V14.01,2013-06-06 08:26:00,
2013-06-06 04:27:00,73.0,70.3,29.76,SE,135,0.0,2.5,91,0.00,,---,0.00,VWS V14.01,2013-06-06 08:27:00,
2013-06-06 04:28:00,73.0,70.3,29.76,SE,135,0.0,0.0,91,0.00,,---,0.00,VWS V14.01,2013-06-06 08:28:00,
2013-06-06 04:29:00,73.0,70.3,29.80,SSE,158,0.9,2.9,91,0.00,,---,0.00,VWS V14.01,2013-06-06 08:29:00,
2013-06-06 04:30:00,73.0,70.3,29.80,SSW,202,0.0,4.9,91,0.00,,---,0.00,VWS V14.01,2013-06-06 08:30:00,
2013-06-06 04:31:00,73.0,70.6,29.80,NE,45,1.6,1.6,92,0.00,,---,0.00,VWS V14.01,2013-06-06 08:31:00,
2013-06-06 04:32:00,73.0,70.6,29.80,ENE,68,4.3,8.5,92,0.00,,---,0.00,VWS V14.01,2013-06-06 08:32:00,
2013-06-06 04:33:00,73.0,70.6,29.79,SE,135,2.2,2.9,92,0.00,,---,0.00,VWS V14.01,2013-06-06 08:33:00,
2013-06-06 04:34:00,73.0,70.6,29.80,SE,135,2.2,2.9,92,0.00,,---,0.00,VWS V14.01,2013-06-06 08:34:00,
2013-06-06 04:35:00,73.0,70.6,29.80,NNW,338,1.3,5.6,92,0.00,,---,0.00,VWS V14.01,2013-06-06 08:35:00,
2013-06-06 04:36:00,73.0,70.6,29.80,SW,225,0.9,1.3,92,0.00,,---,0.00,VWS V14.01,2013-06-06 08:36:00,
2013-06-06 04:37:00,73.0,70.6,29.80,SE,135,0.0,0.9,92,0.00,,---,0.00,VWS V14.01,2013-06-06 08:37:00,
2013-06-06 04:38:00,73.0,70.6,29.79,SSE,158,0.9,3.8,92,0.00,,---,0.00,VWS V14.01,2013-06-06 08:38:00,
2013-06-06 04:39:00,73.0,70.6,29.80,SSE,158,0.9,3.8,92,0.00,,---,0.00,VWS V14.01,2013-06-06 08:39:00,
2013-06-06 04:40:00,73.0,70.6,29.80,ESE,112,0.0,1.1,92,0.00,,---,0.00,VWS V14.01,2013-06-06 08:40:00,
2013-06-06 04:41:00,73.0,70.6,29.80,WSW,248,0.0,0.0,92,0.00,,---,0.00,VWS V14.01,2013-06-06 08:41:00,
2013-06-06 04:42:00,73.0,70.6,29.80,SE,135,5.4,5.4,92,0.00,,---,0.00,VWS V14.01,2013-06-06 08:42:00,
2013-06-06 04:43:00,73.0,70.6,29.79,South,180,0.9,3.4,92,0.00,,---,0.00,VWS V14.01,2013-06-06 08:43:00,
2013-06-06 04:44:00,73.0,70.6,29.80,South,180,0.9,3.4,92,0.00,,---,0.00,VWS V14.01,2013-06-06 08:44:00,
2013-06-06 04:45:00,73.0,70.6,29.80,SSE,158,1.6,3.4,92,0.00,,---,0.00,VWS V14.01,2013-06-06 08:45:00,
2013-06-06 04:46:00,73.0,70.6,29.80,ENE,68,4.0,4.7,92,0.00,,---,0.00,VWS V14.01,2013-06-06 08:46:00,
2013-06-06 04:47:00,73.0,70.6,29.80,ENE,68,4.3,4.3,92,0.00,,---,0.00,VWS V14.01,2013-06-06 08:47:00,
2013-06-06 04:48:00,73.0,70.6,29.79,SSW,202,0.0,3.4,92,0.00,,---,0.00,VWS V14.01,2013-06-06 08:48:00,
2013-06-06 04:49:00,73.0,70.6,29.80,SSW,202,0.0,3.4,92,0.00,,---,0.00,VWS V14.01,2013-06-06 08:49:00,
2013-06-06 04:50:00,72.9,70.4,29.80,SSW,202,2.0,3.6,92,0.00,,---,0.00,VWS V14.01,2013-06-06 08:50:00,
2013-06-06 04:51:00,72.9,70.4,29.80,SE,135,0.9,2.2,92,0.00,,---,0.00,VWS V14.01,2013-06-06 08:51:00,
2013-06-06 04:52:00,72.7,70.2,29.80,South,180,2.9,9.0,92,0.00,,---,0.00,VWS V14.01,2013-06-06 08:52:00,
2013-06-06 04:53:00,72.7,69.9,29.79,SSE,158,1.3,3.1,91,0.00,,---,0.00,VWS V14.01,2013-06-06 08:53:00,
2013-06-06 04:54:00,72.7,69.9,29.80,SSE,158,1.3,3.1,91,0.00,,---,0.00,VWS V14.01,2013-06-06 08:54:00,
2013-06-06 04:55:00,72.5,69.7,29.80,SSE,158,1.1,3.6,91,0.00,,---,0.00,VWS V14.01,2013-06-06 08:55:00,
2013-06-06 04:56:00,72.5,69.7,29.80,ESE,112,2.9,3.4,91,0.00,,---,0.00,VWS V14.01,2013-06-06 08:56:00,
2013-06-06 04:57:00,72.3,69.6,29.80,SE,135,2.0,2.9,91,0.00,,---,0.00,VWS V14.01,2013-06-06 08:57:00,
2013-06-06 04:58:00,72.3,69.2,29.79,NNE,22,3.6,3.6,90,0.00,,---,0.00,VWS V14.01,2013-06-06 08:58:00,
2013-06-06 04:59:00,72.3,69.2,29.80,NNE,22,3.6,3.6,90,0.00,,---,0.00,VWS V14.01,2013-06-06 08:59:00,
2013-06-06 05:00:00,72.3,69.2,29.80,West,270,0.9,3.6,90,0.00,,---,0.00,VWS V14.01,2013-06-06 09:00:00,
2013-06-06 05:01:00,72.3,69.2,29.80,SSE,158,3.6,3.6,90,0.00,,---,0.00,VWS V14.01,2013-06-06 09:01:00,
2013-06-06 05:02:00,72.3,69.2,29.80,ESE,112,0.9,3.6,90,0.00,,---,0.00,VWS V14.01,2013-06-06 09:02:00,
2013-06-06 05:03:00,72.5,69.4,29.79,SSW,202,0.0,2.9,90,0.00,,---,0.00,VWS V14.01,2013-06-06 09:03:00,
2013-06-06 05:04:00,72.5,69.4,29.80,SSW,202,0.0,2.9,90,0.00,,---,0.00,VWS V14.01,2013-06-06 09:04:00,
2013-06-06 05:05:00,72.5,69.4,29.80,NNE,22,0.0,2.7,90,0.00,,---,0.00,VWS V14.01,2013-06-06 09:05:00,
2013-06-06 05:06:00,72.5,69.4,29.80,ESE,112,0.0,2.7,90,0.00,,---,0.00,VWS V14.01,2013-06-06 09:06:00,
2013-06-06 05:07:00,72.5,69.4,29.80,South,180,0.0,0.0,90,0.00,,---,0.00,VWS V14.01,2013-06-06 09:07:00,
2013-06-06 05:08:00,72.5,69.4,29.79,ESE,112,0.0,0.0,90,0.00,,---,0.00,VWS V14.01,2013-06-06 09:08:00,
2013-06-06 05:09:00,72.5,69.4,29.80,ESE,112,0.0,0.0,90,0.00,,---,0.00,VWS V14.01,2013-06-06 09:09:00,
2013-06-06 05:10:00,72.5,69.4,29.80,SSE,158,0.0,3.4,90,0.00,,---,0.00,VWS V14.01,2013-06-06 09:10:00,
2013-06-06 05:11:00,72.5,69.7,29.80,SSW,202,0.0,1.3,91,0.00,,---,0.00,VWS V14.01,2013-06-06 09:11:00,
2013-06-06 05:12:00,72.5,69.7,29.80,ESE,112,0.0,2.9,91,0.00,,---,0.00,VWS V14.01,2013-06-06 09:12:00,
2013-06-06 05:13:00,72.5,69.7,29.79,SSW,202,3.4,3.4,91,0.00,,---,0.00,VWS V14.01,2013-06-06 09:13:00,
2013-06-06 05:14:00,72.5,69.7,29.80,NE,45,0.9,3.4,91,0.00,,---,0.00,VWS V14.01,2013-06-06 09:14:00,
2013-06-06 05:15:00,72.5,69.7,29.80,SSE,158,2.2,3.4,91,0.00,,---,0.00,VWS V14.01,2013-06-06 09:15:00,
2013-06-06 05:16:00,72.5,69.7,29.80,South,180,0.9,2.7,91,0.00,,---,0.00,VWS V14.01,2013-06-06 09:16:00,
2013-06-06 05:17:00,72.5,69.7,29.80,SW,225,0.0,2.7,91,0.00,,---,0.00,VWS V14.01,2013-06-06 09:17:00,
2013-06-06 05:18:00,72.5,69.7,29.79,SSE,158,0.0,0.0,91,0.00,,---,0.00,VWS V14.01,2013-06-06 09:18:00,
2013-06-06 05:19:00,72.5,69.7,29.80,SSE,158,0.0,0.0,91,0.00,,---,0.00,VWS V14.01,2013-06-06 09:19:00,
2013-06-06 05:20:00,72.5,69.7,29.80,SE,135,0.0,0.0,91,0.00,,---,0.00,VWS V14.01,2013-06-06 09:20:00,
2013-06-06 05:21:00,72.7,69.9,29.80,East,90,0.0,0.0,91,0.00,,---,0.00,VWS V14.01,2013-06-06 09:21:00,
2013-06-06 05:22:00,72.7,69.9,29.80,SW,225,0.0,1.1,91,0.00,,---,0.00,VWS V14.01,2013-06-06 09:22:00,
2013-06-06 05:23:00,72.7,69.9,29.79,NNW,338,0.0,2.5,91,0.00,,---,0.00,VWS V14.01,2013-06-06 09:23:00,
2013-06-06 05:24:00,72.7,69.9,29.80,NNW,338,0.0,2.5,91,0.00,,---,0.00,VWS V14.01,2013-06-06 09:24:00,
2013-06-06 05:25:00,72.7,69.9,29.80,ESE,112,0.0,1.6,91,0.00,,---,0.00,VWS V14.01,2013-06-06 09:25:00,
2013-06-06 05:26:00,72.7,69.9,29.80,ENE,68,0.0,0.0,91,0.00,,---,0.00,VWS V14.01,2013-06-06 09:26:00,
2013-06-06 05:27:00,72.7,69.9,29.80,SSW,202,0.0,1.6,91,0.00,,---,0.00,VWS V14.01,2013-06-06 09:27:00,
2013-06-06 05:28:00,72.7,70.2,29.79,East,90,0.0,0.0,92,0.00,,---,0.00,VWS V14.01,2013-06-06 09:28:00,
2013-06-06 05:29:00,72.7,70.2,29.80,East,90,0.0,0.0,92,0.00,,---,0.00,VWS V14.01,2013-06-06 09:29:00,
2013-06-06 05:30:00,72.7,70.2,29.80,ESE,112,2.0,2.0,92,0.00,,---,0.00,VWS V14.01,2013-06-06 09:30:00,
2013-06-06 05:31:00,72.7,70.2,29.80,ESE,112,0.0,2.0,92,0.00,,---,0.00,VWS V14.01,2013-06-06 09:31:00,
2013-06-06 05:32:00,72.7,70.2,29.80,ESE,112,0.0,0.0,92,0.00,,---,0.00,VWS V14.01,2013-06-06 09:32:00,
2013-06-06 05:33:00,72.7,70.2,29.79,ESE,112,0.0,0.0,92,0.00,,---,0.00,VWS V14.01,2013-06-06 09:33:00,
2013-06-06 05:34:00,72.7,70.2,29.80,ESE,112,0.0,0.0,92,0.00,,---,0.00,VWS V14.01,2013-06-06 09:34:00,
2013-06-06 05:35:00,72.7,70.2,29.80,ESE,112,0.0,0.0,92,0.00,,---,0.00,VWS V14.01,2013-06-06 09:35:00,
2013-06-06 05:36:00,72.7,70.2,29.80,South,180,0.0,0.0,92,0.00,,---,0.00,VWS V14.01,2013-06-06 09:36:00,
2013-06-06 05:37:00,72.7,70.2,29.80,ENE,68,0.0,0.9,92,0.00,,---,0.00,VWS V14.01,2013-06-06 09:37:00,
2013-06-06 05:38:00,72.7,70.2,29.79,SSE,158,0.0,0.0,92,0.00,,---,0.00,VWS V14.01,2013-06-06 09:38:00,
2013-06-06 05:39:00,72.7,70.2,29.80,SSE,158,0.0,0.0,92,0.00,,---,0.00,VWS V14.01,2013-06-06 09:39:00,
2013-06-06 05:40:00,72.7,70.2,29.80,SSE,158,0.0,0.0,92,0.00,,---,0.00,VWS V14.01,2013-06-06 09:40:00,
2013-06-06 05:41:00,72.7,70.2,29.80,SSE,158,0.0,2.0,92,0.00,,---,0.00,VWS V14.01,2013-06-06 09:41:00,
2013-06-06 05:42:00,72.7,70.2,29.80,SSE,158,0.0,0.0,92,0.00,,---,0.00,VWS V14.01,2013-06-06 09:42:00,
2013-06-06 05:43:00,72.7,70.2,29.79,West,270,0.0,1.3,92,0.00,,---,0.00,VWS V14.01,2013-06-06 09:43:00,
2013-06-06 05:44:00,72.7,70.2,29.80,West,270,0.0,1.3,92,0.00,,---,0.00,VWS V14.01,2013-06-06 09:44:00,
2013-06-06 05:45:00,72.7,70.2,29.80,SSE,158,0.0,2.2,92,0.00,,---,0.00,VWS V14.01,2013-06-06 09:45:00,
2013-06-06 05:46:00,72.7,70.2,29.80,South,180,0.0,0.0,92,0.00,,---,0.00,VWS V14.01,2013-06-06 09:46:00,
2013-06-06 05:47:00,72.7,70.2,29.80,SSW,202,0.0,0.0,92,0.00,,---,0.00,VWS V14.01,2013-06-06 09:47:00,
2013-06-06 05:48:00,72.7,70.2,29.79,SE,135,0.0,0.0,92,0.00,,---,0.00,VWS V14.01,2013-06-06 09:48:00,
2013-06-06 05:49:00,72.7,70.2,29.80,ESE,112,4.0,4.0,92,0.00,,---,0.00,VWS V14.01,2013-06-06 09:49:00,
2013-06-06 05:50:00,72.7,70.2,29.80,ESE,112,0.0,4.0,92,0.00,,---,0.00,VWS V14.01,2013-06-06 09:50:00,
2013-06-06 05:51:00,72.7,70.2,29.80,SSE,158,0.0,0.0,92,0.00,,---,0.00,VWS V14.01,2013-06-06 09:51:00,
2013-06-06 05:52:00,72.7,70.2,29.80,SSE,158,0.0,0.0,92,0.00,,---,0.00,VWS V14.01,2013-06-06 09:52:00,
2013-06-06 05:53:00,72.7,70.2,29.79,ESE,112,0.0,0.0,92,0.00,,---,0.00,VWS V14.01,2013-06-06 09:53:00,
2013-06-06 05:54:00,72.7,70.2,29.80,ESE,112,0.0,0.0,92,0.00,,---,0.00,VWS V14.01,2013-06-06 09:54:00,
2013-06-06 05:55:00,72.7,70.2,29.80,SSE,158,1.1,1.1,92,0.00,,---,0.00,VWS V14.01,2013-06-06 09:55:00,
2013-06-06 05:56:00,72.7,70.5,29.80,WSW,248,0.0,1.1,93,0.00,,---,0.00,VWS V14.01,2013-06-06 09:56:00,
2013-06-06 05:57:00,72.7,70.5,29.80,ESE,112,0.0,0.0,93,0.00,,---,0.00,VWS V14.01,2013-06-06 09:57:00,
2013-06-06 05:58:00,72.7,70.5,29.76,South,180,0.0,0.0,93,0.00,,---,0.00,VWS V14.01,2013-06-06 09:58:00,
2013-06-06 05:59:00,72.7,70.5,29.76,West,270,0.0,0.0,93,0.00,,---,0.00,VWS V14.01,2013-06-06 09:59:00,
2013-06-06 06:00:00,72.7,70.5,29.76,SSE,158,0.9,2.2,93,0.00,,---,0.00,VWS V14.01,2013-06-06 10:00:00,
2013-06-06 06:01:00,72.9,70.7,29.76,SSE,158,1.1,1.6,93,0.00,,---,0.00,VWS V14.01,2013-06-06 10:01:00,
2013-06-06 06:02:00,72.9,70.7,29.76,SSW,202,0.0,1.1,93,0.00,,---,0.00,VWS V14.01,2013-06-06 10:02:00,
2013-06-06 06:03:00,72.9,71.0,29.76,South,180,0.0,0.0,94,0.00,,---,0.00,VWS V14.01,2013-06-06 10:03:00,
2013-06-06 06:04:00,72.9,71.0,29.76,SE,135,0.0,0.0,94,0.00,,---,0.00,VWS V14.01,2013-06-06 10:04:00,
2013-06-06 06:05:00,72.9,71.0,29.76,WSW,248,0.0,0.0,94,0.00,,---,0.00,VWS V14.01,2013-06-06 10:05:00,
2013-06-06 06:06:00,72.9,71.0,29.76,WSW,248,0.0,0.0,94,0.00,,---,0.00,VWS V14.01,2013-06-06 10:06:00,
2013-06-06 06:07:00,72.9,71.0,29.76,WSW,248,0.0,0.0,94,0.00,,---,0.00,VWS V14.01,2013-06-06 10:07:00,
2013-06-06 06:08:00,72.9,71.0,29.76,WSW,248,0.0,0.0,94,0.00,,---,0.00,VWS V14.01,2013-06-06 10:08:00,
2013-06-06 06:09:00,72.9,71.0,29.76,WSW,248,0.0,0.0,94,0.00,,---,0.00,VWS V14.01,2013-06-06 10:09:00,
2013-06-06 06:10:00,72.9,71.0,29.76,WSW,248,0.0,0.0,94,0.00,,---,0.00,VWS V14.01,2013-06-06 10:10:00,
2013-06-06 06:11:00,72.9,71.0,29.76,WSW,248,0.0,0.0,94,0.00,,---,0.00,VWS V14.01,2013-06-06 10:11:00,
2013-06-06 06:12:00,72.9,71.0,29.76,ESE,112,3.6,3.6,94,0.00,,---,0.00,VWS V14.01,2013-06-06 10:12:00,
2013-06-06 06:13:00,72.9,71.0,29.76,ESE,112,3.6,3.6,94,0.00,,---,0.00,VWS V14.01,2013-06-06 10:13:00,
2013-06-06 06:14:00,72.9,71.0,29.76,ESE,112,3.6,3.6,94,0.00,,---,0.00,VWS V14.01,2013-06-06 10:14:00,
2013-06-06 06:15:00,72.9,71.0,29.76,ESE,112,3.6,3.6,94,0.00,,---,0.00,VWS V14.01,2013-06-06 10:15:00,
2013-06-06 06:16:00,72.9,71.3,29.76,SSE,158,0.0,3.6,95,0.00,,---,0.00,VWS V14.01,2013-06-06 10:16:00,
2013-06-06 06:17:00,72.9,71.3,29.76,SE,135,0.0,0.0,95,0.00,,---,0.00,VWS V14.01,2013-06-06 10:17:00,
2013-06-06 06:18:00,72.9,71.3,29.76,SE,135,0.0,0.0,95,0.00,,---,0.00,VWS V14.01,2013-06-06 10:18:00,
2013-06-06 06:19:00,72.9,71.3,29.76,ESE,112,0.0,0.0,95,0.00,,---,0.00,VWS V14.01,2013-06-06 10:19:00,
2013-06-06 06:20:00,72.9,71.3,29.76,ESE,112,0.0,0.0,95,0.00,,---,0.00,VWS V14.01,2013-06-06 10:20:00,
2013-06-06 06:21:00,72.9,71.3,29.76,ESE,112,0.0,0.0,95,0.00,,---,0.00,VWS V14.01,2013-06-06 10:21:00,
2013-06-06 06:22:00,72.9,71.3,29.76,ESE,112,3.1,3.1,95,0.00,,---,0.00,VWS V14.01,2013-06-06 10:22:00,
2013-06-06 06:23:00,72.9,71.3,29.76,ENE,68,0.0,3.1,95,0.00,,---,0.00,VWS V14.01,2013-06-06 10:23:00,
2013-06-06 06:24:00,72.9,71.3,29.76,SSW,202,0.0,0.0,95,0.00,,---,0.00,VWS V14.01,2013-06-06 10:24:00,
2013-06-06 06:25:00,72.9,71.3,29.76,SSW,202,0.0,0.0,95,0.00,,---,0.00,VWS V14.01,2013-06-06 10:25:00,
2013-06-06 06:26:00,72.9,71.3,29.76,SSE,158,0.0,0.0,95,0.00,,---,0.00,VWS V14.01,2013-06-06 10:26:00,
2013-06-06 06:27:00,72.9,71.3,29.76,SSE,158,0.0,0.0,95,0.00,,---,0.00,VWS V14.01,2013-06-06 10:27:00,
2013-06-06 06:28:00,72.9,71.3,29.76,SSE,158,0.0,0.0,95,0.00,,---,0.00,VWS V14.01,2013-06-06 10:28:00,
2013-06-06 06:29:00,72.9,71.7,29.76,South,180,0.0,0.0,96,0.00,,---,0.00,VWS V14.01,2013-06-06 10:29:00,
2013-06-06 06:30:00,72.9,71.7,29.76,South,180,0.0,0.0,96,0.00,,---,0.00,VWS V14.01,2013-06-06 10:30:00,
2013-06-06 06:31:00,72.9,71.7,29.76,SE,135,0.0,0.9,96,0.00,,---,0.00,VWS V14.01,2013-06-06 10:31:00,
2013-06-06 06:32:00,72.9,71.7,29.76,SSW,202,0.0,0.0,96,0.00,,---,0.00,VWS V14.01,2013-06-06 10:32:00,
2013-06-06 06:33:00,72.9,71.7,29.76,WNW,292,0.0,0.0,96,0.00,,---,0.00,VWS V14.01,2013-06-06 10:33:00,
2013-06-06 06:34:00,72.9,71.7,29.76,East,90,0.0,0.0,96,0.00,,---,0.00,VWS V14.01,2013-06-06 10:34:00,
2013-06-06 06:35:00,72.9,71.7,29.76,East,90,0.0,0.0,96,0.00,,---,0.00,VWS V14.01,2013-06-06 10:35:00,
2013-06-06 06:36:00,72.9,71.7,29.76,NE,45,2.5,2.5,96,0.00,,---,0.00,VWS V14.01,2013-06-06 10:36:00,
2013-06-06 06:37:00,72.9,71.7,29.76,SSE,158,2.5,2.5,96,0.00,,---,0.00,VWS V14.01,2013-06-06 10:37:00,
2013-06-06 06:38:00,72.9,71.7,29.76,SSW,202,0.0,2.5,96,0.00,,---,0.00,VWS V14.01,2013-06-06 10:38:00,
2013-06-06 06:39:00,72.9,71.7,29.76,South,180,2.2,4.3,96,0.00,,---,0.00,VWS V14.01,2013-06-06 10:39:00,
2013-06-06 06:40:00,72.9,71.7,29.76,South,180,2.2,4.3,96,0.00,,---,0.00,VWS V14.01,2013-06-06 10:40:00,
2013-06-06 06:41:00,72.9,71.7,29.76,NNW,338,0.0,2.2,96,0.00,,---,0.00,VWS V14.01,2013-06-06 10:41:00,
2013-06-06 06:42:00,72.9,71.7,29.76,ESE,112,0.0,4.7,96,0.00,,---,0.00,VWS V14.01,2013-06-06 10:42:00,
2013-06-06 06:43:00,72.9,71.7,29.76,ESE,112,0.0,0.0,96,0.00,,---,0.00,VWS V14.01,2013-06-06 10:43:00,
2013-06-06 06:44:00,72.9,71.7,29.74,ESE,112,0.0,0.0,96,0.00,,---,0.00,VWS V14.01,2013-06-06 10:44:00,
2013-06-06 06:45:00,72.9,71.7,29.74,ESE,112,0.0,2.2,96,0.00,,---,0.00,VWS V14.01,2013-06-06 10:45:00,
2013-06-06 06:46:00,72.9,71.7,29.74,NNE,22,0.0,0.0,96,0.00,,---,0.00,VWS V14.01,2013-06-06 10:46:00,
2013-06-06 06:47:00,72.9,71.7,29.74,ESE,112,0.0,0.0,96,0.00,,---,0.00,VWS V14.01,2013-06-06 10:47:00,
2013-06-06 06:48:00,73.0,71.8,29.74,SSE,158,0.0,0.0,96,0.00,,---,0.00,VWS V14.01,2013-06-06 10:48:00,
2013-06-06 06:49:00,73.0,71.8,29.74,ESE,112,0.0,0.0,96,0.00,,---,0.00,VWS V14.01,2013-06-06 10:49:00,
2013-06-06 06:50:00,73.0,71.8,29.74,ESE,112,0.0,0.0,96,0.00,,---,0.00,VWS V14.01,2013-06-06 10:50:00,
2013-06-06 06:51:00,73.0,71.8,29.74,South,180,0.0,0.0,96,0.00,,---,0.00,VWS V14.01,2013-06-06 10:51:00,
2013-06-06 06:52:00,73.0,71.8,29.74,ENE,68,0.0,0.0,96,0.00,,---,0.00,VWS V14.01,2013-06-06 10:52:00,
2013-06-06 06:53:00,72.9,72.0,29.74,SSE,158,0.0,0.0,97,0.00,,---,0.00,VWS V14.01,2013-06-06 10:53:00,
2013-06-06 06:54:00,72.9,72.0,29.74,SSW,202,0.0,0.0,97,0.00,,---,0.00,VWS V14.01,2013-06-06 10:54:00,
2013-06-06 06:55:00,72.9,72.0,29.74,SSW,202,0.0,0.0,97,0.00,,---,0.00,VWS V14.01,2013-06-06 10:55:00,
2013-06-06 06:56:00,72.9,72.0,29.74,SSE,158,0.0,0.0,97,0.00,,---,0.00,VWS V14.01,2013-06-06 10:56:00,
2013-06-06 06:57:00,72.9,72.0,29.74,ENE,68,0.0,0.0,97,0.00,,---,0.00,VWS V14.01,2013-06-06 10:57:00,
2013-06-06 06:58:00,72.9,72.0,29.74,South,180,0.0,0.0,97,0.00,,---,0.00,VWS V14.01,2013-06-06 10:58:00,
2013-06-06 06:59:00,72.9,72.0,29.74,SE,135,0.0,3.6,97,0.00,,---,0.00,VWS V14.01,2013-06-06 10:59:00,
2013-06-06 07:00:00,72.9,72.0,29.74,SE,135,0.0,3.6,97,0.00,,---,0.00,VWS V14.01,2013-06-06 11:00:00,
2013-06-06 07:01:00,72.9,72.0,29.74,SSW,202,1.6,2.5,97,0.00,,---,0.00,VWS V14.01,2013-06-06 11:01:00,
2013-06-06 07:02:00,72.9,72.0,29.74,SSE,158,0.0,1.6,97,0.00,,---,0.00,VWS V14.01,2013-06-06 11:02:00,
2013-06-06 07:03:00,72.9,72.0,29.74,ESE,112,0.0,0.0,97,0.00,,---,0.00,VWS V14.01,2013-06-06 11:03:00,
2013-06-06 07:04:00,72.9,72.0,29.74,North,0,5.8,5.8,97,0.00,,---,0.00,VWS V14.01,2013-06-06 11:04:00,
2013-06-06 07:05:00,72.9,72.0,29.74,North,0,5.8,5.8,97,0.00,,---,0.00,VWS V14.01,2013-06-06 11:05:00,
2013-06-06 07:06:00,72.9,72.0,29.74,ENE,68,6.7,6.7,97,0.00,,---,0.00,VWS V14.01,2013-06-06 11:06:00,
2013-06-06 07:07:00,72.9,72.0,29.74,North,0,0.0,6.7,97,0.00,,---,0.00,VWS V14.01,2013-06-06 11:07:00,
2013-06-06 07:08:00,72.9,72.0,29.74,SSE,158,3.1,3.8,97,0.00,,---,0.00,VWS V14.01,2013-06-06 11:08:00,
2013-06-06 07:09:00,72.9,72.0,29.74,West,270,0.0,0.0,97,0.00,,---,0.00,VWS V14.01,2013-06-06 11:09:00,
2013-06-06 07:10:00,72.9,72.0,29.74,West,270,0.0,0.0,97,0.00,,---,0.00,VWS V14.01,2013-06-06 11:10:00,
2013-06-06 07:11:00,72.9,72.0,29.74,SSE,158,0.0,1.6,97,0.00,,---,0.00,VWS V14.01,2013-06-06 11:11:00,
2013-06-06 07:12:00,73.0,72.1,29.74,SE,135,0.0,0.0,97,0.00,,---,0.00,VWS V14.01,2013-06-06 11:12:00,
2013-06-06 07:13:00,73.0,72.1,29.74,ESE,112,0.0,0.0,97,0.00,,---,0.00,VWS V14.01,2013-06-06 11:13:00,
2013-06-06 07:14:00,73.0,72.1,29.74,SSE,158,0.0,1.3,97,0.00,,---,0.00,VWS V14.01,2013-06-06 11:14:00,
2013-06-06 07:15:00,73.0,72.1,29.74,SSE,158,0.0,1.3,97,0.00,,---,0.00,VWS V14.01,2013-06-06 11:15:00,
2013-06-06 07:16:00,73.0,72.1,29.74,SSE,158,0.0,0.0,97,0.00,,---,0.00,VWS V14.01,2013-06-06 11:16:00,
2013-06-06 07:17:00,73.0,72.1,29.74,ESE,112,0.0,0.0,97,0.00,,---,0.00,VWS V14.01,2013-06-06 11:17:00,
2013-06-06 07:18:00,73.0,72.1,29.74,ESE,112,0.0,0.0,97,0.00,,---,0.00,VWS V14.01,2013-06-06 11:18:00,
2013-06-06 07:19:00,73.0,72.1,29.74,ESE,112,3.6,3.6,97,0.00,,---,0.00,VWS V14.01,2013-06-06 11:19:00,
2013-06-06 07:20:00,73.0,72.1,29.74,ESE,112,3.6,3.6,97,0.00,,---,0.00,VWS V14.01,2013-06-06 11:20:00,
2013-06-06 07:21:00,73.0,72.1,29.74,SSE,158,0.0,3.6,97,0.00,,---,0.00,VWS V14.01,2013-06-06 11:21:00,
2013-06-06 07:22:00,73.0,72.1,29.74,SSE,158,0.0,0.0,97,0.00,,---,0.00,VWS V14.01,2013-06-06 11:22:00,
2013-06-06 07:23:00,73.0,72.1,29.74,SSW,202,0.0,1.6,97,0.00,,---,0.00,VWS V14.01,2013-06-06 11:23:00,
2013-06-06 07:24:00,73.0,72.1,29.74,ENE,68,0.9,0.9,97,0.00,,---,0.00,VWS V14.01,2013-06-06 11:24:00,
2013-06-06 07:25:00,73.0,72.1,29.74,ENE,68,0.9,0.9,97,0.00,,---,0.00,VWS V14.01,2013-06-06 11:25:00,
2013-06-06 07:26:00,73.0,72.1,29.74,East,90,0.0,0.9,97,0.00,,---,0.00,VWS V14.01,2013-06-06 11:26:00,
2013-06-06 07:27:00,73.0,72.1,29.74,SSE,158,0.0,0.0,97,0.00,,---,0.00,VWS V14.01,2013-06-06 11:27:00,
2013-06-06 07:28:00,73.0,72.1,29.74,South,180,0.0,0.0,97,0.00,,---,0.00,VWS V14.01,2013-06-06 11:28:00,
2013-06-06 07:29:00,73.0,72.1,29.74,SSE,158,1.6,1.6,97,0.00,,---,0.00,VWS V14.01,2013-06-06 11:29:00,
2013-06-06 07:30:00,73.0,72.1,29.74,SSE,158,1.6,1.6,97,0.00,,---,0.00,VWS V14.01,2013-06-06 11:30:00,
2013-06-06 07:31:00,73.0,72.1,29.74,SSE,158,2.7,3.1,97,0.00,,---,0.00,VWS V14.01,2013-06-06 11:31:00,
2013-06-06 07:32:00,73.0,72.1,29.74,South,180,1.1,3.4,97,0.00,,---,0.00,VWS V14.01,2013-06-06 11:32:00,
2013-06-06 07:33:00,73.0,72.1,29.74,East,90,0.0,1.1,97,0.00,,---,0.00,VWS V14.01,2013-06-06 11:33:00,
2013-06-06 07:34:00,73.0,72.1,29.74,SSE,158,0.9,2.7,97,0.00,,---,0.00,VWS V14.01,2013-06-06 11:34:00,
2013-06-06 07:35:00,73.0,72.1,29.74,SSE,158,0.9,2.7,97,0.00,,---,0.00,VWS V14.01,2013-06-06 11:35:00,
2013-06-06 07:36:00,73.0,72.1,29.74,NNE,22,0.0,3.1,97,0.00,,---,0.00,VWS V14.01,2013-06-06 11:36:00,
2013-06-06 07:37:00,73.0,72.1,29.74,ESE,112,0.0,0.0,97,0.00,,---,0.00,VWS V14.01,2013-06-06 11:37:00,
2013-06-06 07:38:00,73.0,72.1,29.74,NNE,22,0.0,0.9,97,0.00,,---,0.00,VWS V14.01,2013-06-06 11:38:00,
2013-06-06 07:39:00,73.0,72.4,29.74,SSW,202,2.5,3.1,98,0.00,,---,0.00,VWS V14.01,2013-06-06 11:39:00,
2013-06-06 07:40:00,73.0,72.4,29.74,SSW,202,2.5,3.1,98,0.00,,---,0.00,VWS V14.01,2013-06-06 11:40:00,
2013-06-06 07:41:00,73.0,72.4,29.74,NNE,22,2.9,5.8,98,0.00,,---,0.00,VWS V14.01,2013-06-06 11:41:00,
2013-06-06 07:42:00,73.0,72.4,29.74,South,180,0.9,3.6,98,0.00,,---,0.00,VWS V14.01,2013-06-06 11:42:00,
2013-06-06 07:43:00,73.0,72.4,29.74,SSE,158,3.6,3.6,98,0.00,,---,0.00,VWS V14.01,2013-06-06 11:43:00,
2013-06-06 07:44:00,73.0,72.4,29.71,SSE,158,4.3,4.3,98,0.00,,---,0.00,VWS V14.01,2013-06-06 11:44:00,
2013-06-06 07:45:00,73.0,72.4,29.71,SSE,158,4.3,4.3,98,0.00,,---,0.00,VWS V14.01,2013-06-06 11:45:00,
2013-06-06 07:46:00,73.2,72.6,29.71,East,90,5.8,5.8,98,0.00,,---,0.00,VWS V14.01,2013-06-06 11:46:00,
2013-06-06 07:47:00,73.2,72.6,29.71,SSE,158,3.1,5.8,98,0.00,,---,0.00,VWS V14.01,2013-06-06 11:47:00,
2013-06-06 07:48:00,73.2,72.6,29.71,SSE,158,3.4,3.8,98,0.00,,---,0.00,VWS V14.01,2013-06-06 11:48:00,
2013-06-06 07:49:00,73.2,72.6,29.71,SSE,158,0.0,0.0,98,0.00,,---,0.00,VWS V14.01,2013-06-06 11:49:00,
2013-06-06 07:50:00,73.2,72.6,29.71,SSE,158,0.0,0.0,98,0.00,,---,0.00,VWS V14.01,2013-06-06 11:50:00,
2013-06-06 07:51:00,73.2,72.6,29.71,SSE,158,2.5,6.3,98,0.00,,---,0.00,VWS V14.01,2013-06-06 11:51:00,
2013-06-06 07:52:00,73.2,72.6,29.71,SSE,158,5.6,5.6,98,0.00,,---,0.00,VWS V14.01,2013-06-06 11:52:00,
2013-06-06 07:53:00,73.2,72.6,29.71,SE,135,2.9,5.6,98,0.00,,---,0.00,VWS V14.01,2013-06-06 11:53:00,
2013-06-06 07:54:00,73.2,72.6,29.71,SSE,158,1.6,3.8,98,0.00,,---,0.00,VWS V14.01,2013-06-06 11:54:00,
2013-06-06 07:55:00,73.2,72.6,29.71,SSE,158,1.6,3.8,98,0.00,,---,0.00,VWS V14.01,2013-06-06 11:55:00,
2013-06-06 07:56:00,73.2,72.6,29.71,SSE,158,2.7,5.4,98,0.00,,---,0.00,VWS V14.01,2013-06-06 11:56:00,
2013-06-06 07:57:00,73.4,72.8,29.71,SSE,158,3.6,9.6,98,0.00,,---,0.00,VWS V14.01,2013-06-06 11:57:00,
2013-06-06 07:58:00,73.4,72.8,29.71,SE,135,2.5,4.3,98,0.00,,---,0.00,VWS V14.01,2013-06-06 11:58:00,
2013-06-06 07:59:00,73.4,72.8,29.74,SSW,202,3.8,9.6,98,0.00,,---,0.00,VWS V14.01,2013-06-06 11:59:00,
2013-06-06 08:00:00,73.4,72.8,29.74,SSW,202,3.8,9.6,98,0.00,,---,0.00,VWS V14.01,2013-06-06 12:00:00,
2013-06-06 08:01:00,73.4,72.8,29.74,South,180,2.7,3.8,98,0.00,,---,0.00,VWS V14.01,2013-06-06 12:01:00,
2013-06-06 08:02:00,73.4,72.8,29.74,SSW,202,2.0,2.7,98,0.00,,---,0.00,VWS V14.01,2013-06-06 12:02:00,
2013-06-06 08:03:00,73.4,72.8,29.74,NNE,22,3.4,3.4,98,0.00,,---,0.00,VWS V14.01,2013-06-06 12:03:00,
2013-06-06 08:04:00,73.4,72.8,29.74,WSW,248,2.0,2.5,98,0.00,,---,0.00,VWS V14.01,2013-06-06 12:04:00,
2013-06-06 08:05:00,73.4,72.8,29.74,WSW,248,2.0,2.5,98,0.00,,---,0.00,VWS V14.01,2013-06-06 12:05:00,
2013-06-06 08:06:00,73.4,72.8,29.74,SE,135,9.0,9.0,98,0.00,,---,0.00,VWS V14.01,2013-06-06 12:06:00,
2013-06-06 08:07:00,73.4,72.8,29.74,SSE,158,5.6,9.0,98,0.00,,---,0.00,VWS V14.01,2013-06-06 12:07:00,
2013-06-06 08:08:00,73.4,72.8,29.74,SSE,158,5.6,5.6,98,0.00,,---,0.00,VWS V14.01,2013-06-06 12:08:00,
2013-06-06 08:09:00,73.4,72.8,29.74,SSE,158,2.0,2.0,98,0.00,,---,0.00,VWS V14.01,2013-06-06 12:09:00,
2013-06-06 08:10:00,73.4,72.8,29.74,SSE,158,2.7,2.7,98,0.00,,---,0.00,VWS V14.01,2013-06-06 12:10:00,
2013-06-06 08:11:00,73.4,72.8,29.74,SSE,158,2.7,2.7,98,0.00,,---,0.00,VWS V14.01,2013-06-06 12:11:00,
2013-06-06 08:12:00,73.4,72.8,29.74,SSW,202,7.8,7.8,98,0.00,,---,0.00,VWS V14.01,2013-06-06 12:12:00,
2013-06-06 08:13:00,73.4,72.8,29.74,SSE,158,3.1,7.8,98,0.00,,---,0.00,VWS V14.01,2013-06-06 12:13:00,
2013-06-06 08:14:00,73.4,72.8,29.74,South,180,0.0,3.1,98,0.00,,---,0.00,VWS V14.01,2013-06-06 12:14:00,
2013-06-06 08:15:00,73.4,72.8,29.74,South,180,0.0,3.1,98,0.00,,---,0.00,VWS V14.01,2013-06-06 12:15:00,
2013-06-06 08:16:00,73.4,72.8,29.74,South,180,0.0,0.0,98,0.00,,---,0.00,VWS V14.01,2013-06-06 12:16:00,
2013-06-06 08:17:00,73.4,72.8,29.74,South,180,0.0,0.0,98,0.00,,---,0.00,VWS V14.01,2013-06-06 12:17:00,
2013-06-06 08:18:00,73.4,72.8,29.74,South,180,0.0,0.0,98,0.00,,---,0.00,VWS V14.01,2013-06-06 12:18:00,
2013-06-06 08:19:00,73.4,72.8,29.74,South,180,0.0,0.0,98,0.00,,---,0.00,VWS V14.01,2013-06-06 12:19:00,
2013-06-06 08:20:00,73.4,72.8,29.74,WNW,292,1.1,1.1,98,0.00,,---,0.00,VWS V14.01,2013-06-06 12:20:00,
2013-06-06 08:21:00,73.4,72.8,29.74,WNW,292,1.1,1.1,98,0.00,,---,0.00,VWS V14.01,2013-06-06 12:21:00,
2013-06-06 08:22:00,73.4,72.8,29.74,WNW,292,1.1,1.1,98,0.00,,---,0.00,VWS V14.01,2013-06-06 12:22:00,
2013-06-06 08:23:00,73.2,72.6,29.74,South,180,6.0,6.0,98,0.00,,---,0.00,VWS V14.01,2013-06-06 12:23:00,
2013-06-06 08:24:00,73.2,72.6,29.74,South,180,6.0,6.0,98,0.00,,---,0.00,VWS V14.01,2013-06-06 12:24:00,
2013-06-06 08:25:00,73.2,72.6,29.74,South,180,6.0,6.0,98,0.00,,---,0.00,VWS V14.01,2013-06-06 12:25:00,
2013-06-06 08:26:00,73.2,72.6,29.74,South,180,6.0,6.0,98,0.00,,---,0.00,VWS V14.01,2013-06-06 12:26:00,
2013-06-06 08:27:00,73.2,72.6,29.74,South,180,6.0,6.0,98,0.00,,---,0.00,VWS V14.01,2013-06-06 12:27:00,
2013-06-06 08:28:00,73.2,72.6,29.74,South,180,6.0,6.0,98,0.00,,---,0.00,VWS V14.01,2013-06-06 12:28:00,
2013-06-06 08:29:00,73.2,72.6,29.74,South,180,6.0,6.0,98,0.00,,---,0.00,VWS V14.01,2013-06-06 12:29:00,
2013-06-06 08:30:00,73.2,72.6,29.74,South,180,6.0,6.0,98,0.00,,---,0.00,VWS V14.01,2013-06-06 12:30:00,
2013-06-06 08:31:00,73.2,72.6,29.74,SSE,158,4.0,6.0,98,0.00,,---,0.00,VWS V14.01,2013-06-06 12:31:00,
2013-06-06 08:32:00,73.2,72.6,29.74,SSE,158,4.0,4.0,98,0.00,,---,0.00,VWS V14.01,2013-06-06 12:32:00,
2013-06-06 08:33:00,73.4,72.8,29.74,SSE,158,4.0,4.0,98,0.00,,---,0.00,VWS V14.01,2013-06-06 12:33:00,
2013-06-06 08:34:00,73.4,72.8,29.74,SSE,158,4.0,4.0,98,0.00,,---,0.00,VWS V14.01,2013-06-06 12:34:00,
2013-06-06 08:35:00,73.4,72.8,29.74,SSE,158,4.0,4.0,98,0.00,,---,0.00,VWS V14.01,2013-06-06 12:35:00,
2013-06-06 08:36:00,73.2,72.6,29.74,SSE,158,4.0,4.0,98,0.00,,---,0.00,VWS V14.01,2013-06-06 12:36:00,
2013-06-06 08:37:00,73.2,72.6,29.74,SSE,158,4.0,4.0,98,0.00,,---,0.00,VWS V14.01,2013-06-06 12:37:00,
2013-06-06 08:38:00,73.2,72.6,29.74,SSE,158,4.0,4.0,98,0.00,,---,0.00,VWS V14.01,2013-06-06 12:38:00,
2013-06-06 08:39:00,73.2,72.6,29.74,SSE,158,4.0,4.0,98,0.00,,---,0.00,VWS V14.01,2013-06-06 12:39:00,
2013-06-06 08:40:00,73.2,72.6,29.74,SSE,158,4.0,4.0,98,0.00,,---,0.00,VWS V14.01,2013-06-06 12:40:00,
2013-06-06 08:41:00,73.2,72.6,29.74,SSE,158,4.0,4.0,98,0.00,,---,0.00,VWS V14.01,2013-06-06 12:41:00,
2013-06-06 08:42:00,73.2,72.6,29.74,SSW,202,0.9,4.0,98,0.00,,---,0.00,VWS V14.01,2013-06-06 12:42:00,
2013-06-06 08:43:00,73.2,72.6,29.74,SSE,158,3.4,3.4,98,0.00,,---,0.00,VWS V14.01,2013-06-06 12:43:00,
2013-06-06 08:44:00,73.2,72.6,29.76,SSE,158,1.6,1.6,98,0.00,,---,0.00,VWS V14.01,2013-06-06 12:44:00,
2013-06-06 08:45:00,73.2,72.6,29.76,SSE,158,1.6,1.6,98,0.00,,---,0.00,VWS V14.01,2013-06-06 12:45:00,
2013-06-06 08:46:00,73.4,72.8,29.76,SSE,158,1.6,1.6,98,0.00,,---,0.00,VWS V14.01,2013-06-06 12:46:00,
2013-06-06 08:47:00,73.4,72.8,29.76,SSE,158,1.6,1.6,98,0.00,,---,0.00,VWS V14.01,2013-06-06 12:47:00,
2013-06-06 08:48:00,73.4,72.8,29.76,SSE,158,1.6,1.6,98,0.00,,---,0.00,VWS V14.01,2013-06-06 12:48:00,
2013-06-06 08:49:00,73.4,72.8,29.76,SSE,158,1.6,1.6,98,0.00,,---,0.00,VWS V14.01,2013-06-06 12:49:00,
2013-06-06 08:50:00,73.4,72.8,29.76,SSE,158,1.6,1.6,98,0.00,,---,0.00,VWS V14.01,2013-06-06 12:50:00,
2013-06-06 08:51:00,73.4,72.8,29.76,SSE,158,1.6,1.6,98,0.00,,---,0.00,VWS V14.01,2013-06-06 12:51:00,
2013-06-06 08:52:00,73.4,72.8,29.76,SSE,158,1.6,1.6,98,0.00,,---,0.00,VWS V14.01,2013-06-06 12:52:00,
2013-06-06 08:53:00,73.4,72.8,29.76,SE,135,8.5,8.5,98,0.00,,---,0.00,VWS V14.01,2013-06-06 12:53:00,
2013-06-06 08:54:00,73.2,72.6,29.76,SE,135,8.5,8.5,98,0.00,,---,0.00,VWS V14.01,2013-06-06 12:54:00,
2013-06-06 08:55:00,73.4,72.8,29.76,SE,135,8.5,8.5,98,0.00,,---,0.00,VWS V14.01,2013-06-06 12:55:00,
2013-06-06 08:56:00,73.4,72.8,29.76,SE,135,8.5,8.5,98,0.00,,---,0.00,VWS V14.01,2013-06-06 12:56:00,
2013-06-06 08:57:00,73.4,72.8,29.76,SE,135,8.5,8.5,98,0.00,,---,0.00,VWS V14.01,2013-06-06 12:57:00,
2013-06-06 08:58:00,73.4,72.8,29.76,SE,135,8.5,8.5,98,0.00,,---,0.00,VWS V14.01,2013-06-06 12:58:00,
2013-06-06 08:59:00,73.4,72.8,29.74,SE,135,8.5,8.5,98,0.00,,---,0.00,VWS V14.01,2013-06-06 12:59:00,
2013-06-06 09:00:00,73.4,72.8,29.74,SE,135,8.5,8.5,98,0.00,,---,0.00,VWS V14.01,2013-06-06 13:00:00,
2013-06-06 09:01:00,73.4,72.8,29.74,SE,135,8.5,8.5,98,0.00,,---,0.00,VWS V14.01,2013-06-06 13:01:00,
2013-06-06 09:02:00,73.4,72.8,29.74,SE,135,8.5,8.5,98,0.00,,---,0.00,VWS V14.01,2013-06-06 13:02:00,
2013-06-06 09:03:00,73.4,72.8,29.74,SE,135,8.5,8.5,98,0.00,,---,0.00,VWS V14.01,2013-06-06 13:03:00,
2013-06-06 09:04:00,73.2,72.6,29.74,SE,135,8.5,8.5,98,0.00,,---,0.00,VWS V14.01,2013-06-06 13:04:00,
2013-06-06 09:05:00,73.2,72.6,29.74,SE,135,8.5,8.5,98,0.00,,---,0.00,VWS V14.01,2013-06-06 13:05:00,
2013-06-06 09:06:00,73.2,72.6,29.74,SE,135,8.5,8.5,98,0.00,,---,0.00,VWS V14.01,2013-06-06 13:06:00,
2013-06-06 09:07:00,73.2,72.6,29.74,SE,135,8.5,8.5,98,0.00,,---,0.00,VWS V14.01,2013-06-06 13:07:00,
2013-06-06 09:08:00,73.2,72.6,29.74,SE,135,8.5,8.5,98,0.00,,---,0.00,VWS V14.01,2013-06-06 13:08:00,
2013-06-06 09:09:00,73.2,72.6,29.74,SE,135,8.5,8.5,98,0.00,,---,0.00,VWS V14.01,2013-06-06 13:09:00,
2013-06-06 09:10:00,73.2,72.6,29.74,SE,135,8.5,8.5,98,0.00,,---,0.00,VWS V14.01,2013-06-06 13:10:00,
2013-06-06 09:11:00,73.4,72.8,29.74,SSE,158,8.1,8.5,98,0.00,,---,0.00,VWS V14.01,2013-06-06 13:11:00,
2013-06-06 09:12:00,73.4,72.8,29.74,SSE,158,8.1,8.1,98,0.00,,---,0.00,VWS V14.01,2013-06-06 13:12:00,
2013-06-06 09:13:00,73.4,72.8,29.74,SSE,158,8.1,8.1,98,0.00,,---,0.00,VWS V14.01,2013-06-06 13:13:00,
2013-06-06 09:14:00,73.4,72.8,29.74,SSE,158,8.1,8.1,98,0.00,,---,0.00,VWS V14.01,2013-06-06 13:14:00,
2013-06-06 09:15:00,73.4,72.8,29.74,SSE,158,8.1,8.1,98,0.00,,---,0.00,VWS V14.01,2013-06-06 13:15:00,
2013-06-06 09:16:00,73.4,72.8,29.74,SSE,158,8.1,8.1,98,0.00,,---,0.00,VWS V14.01,2013-06-06 13:16:00,
2013-06-06 09:17:00,73.4,72.8,29.74,SSE,158,8.1,8.1,98,0.00,,---,0.00,VWS V14.01,2013-06-06 13:17:00,
2013-06-06 09:18:00,73.4,72.8,29.74,SSE,158,8.1,8.1,98,0.00,,---,0.00,VWS V14.01,2013-06-06 13:18:00,
2013-06-06 09:19:00,73.4,72.8,29.74,SSE,158,8.1,8.1,98,0.00,,---,0.00,VWS V14.01,2013-06-06 13:19:00,
2013-06-06 09:20:00,73.4,72.8,29.74,SSE,158,8.1,8.1,98,0.00,,---,0.00,VWS V14.01,2013-06-06 13:20:00,
2013-06-06 09:21:00,73.4,72.8,29.74,SSW,202,14.8,14.8,98,0.00,,---,0.00,VWS V14.01,2013-06-06 13:21:00,
2013-06-06 09:22:00,73.4,72.8,29.74,SSW,202,14.8,14.8,98,0.00,,---,0.00,VWS V14.01,2013-06-06 13:22:00,
2013-06-06 09:23:00,73.4,72.8,29.74,SSW,202,14.8,14.8,98,0.00,,---,0.00,VWS V14.01,2013-06-06 13:23:00,
2013-06-06 09:24:00,73.4,72.8,29.74,SSE,158,10.1,10.1,98,0.00,,---,0.00,VWS V14.01,2013-06-06 13:24:00,
2013-06-06 09:25:00,73.4,72.8,29.74,SSE,158,10.1,10.1,98,0.00,,---,0.00,VWS V14.01,2013-06-06 13:25:00,
2013-06-06 09:26:00,73.4,72.8,29.74,SSE,158,10.1,10.1,98,0.00,,---,0.00,VWS V14.01,2013-06-06 13:26:00,
2013-06-06 09:27:00,73.4,72.8,29.74,SSE,158,10.1,10.1,98,0.00,,---,0.00,VWS V14.01,2013-06-06 13:27:00,
2013-06-06 09:28:00,73.4,72.8,29.74,SSE,158,10.1,10.1,98,0.00,,---,0.00,VWS V14.01,2013-06-06 13:28:00,
2013-06-06 09:29:00,73.6,73.0,29.74,SSE,158,10.1,10.1,98,0.00,,---,0.00,VWS V14.01,2013-06-06 13:29:00,
2013-06-06 09:30:00,73.6,73.0,29.74,SSE,158,10.1,10.1,98,0.00,,---,0.00,VWS V14.01,2013-06-06 13:30:00,
2013-06-06 09:31:00,73.6,73.0,29.74,SSE,158,10.1,10.1,98,0.00,,---,0.00,VWS V14.01,2013-06-06 13:31:00,
2013-06-06 09:32:00,73.6,73.0,29.74,SSE,158,10.1,10.1,98,0.00,,---,0.00,VWS V14.01,2013-06-06 13:32:00,
2013-06-06 09:33:00,73.6,73.0,29.74,SSE,158,10.1,10.1,98,0.00,,---,0.00,VWS V14.01,2013-06-06 13:33:00,
2013-06-06 09:34:00,73.6,73.0,29.74,SSE,158,6.0,6.0,98,0.00,,---,0.00,VWS V14.01,2013-06-06 13:34:00,
2013-06-06 09:35:00,73.6,73.0,29.74,SSE,158,6.0,6.0,98,0.00,,---,0.00,VWS V14.01,2013-06-06 13:35:00,
2013-06-06 09:36:00,73.6,73.0,29.74,SSE,158,6.0,6.0,98,0.00,,---,0.00,VWS V14.01,2013-06-06 13:36:00,
2013-06-06 09:37:00,73.6,73.0,29.74,SSE,158,6.0,6.0,98,0.00,,---,0.00,VWS V14.01,2013-06-06 13:37:00,
2013-06-06 09:38:00,73.6,73.0,29.74,SSE,158,6.0,6.0,98,0.00,,---,0.00,VWS V14.01,2013-06-06 13:38:00,
2013-06-06 09:39:00,73.8,73.2,29.74,ESE,112,5.8,5.8,98,0.00,,---,0.00,VWS V14.01,2013-06-06 13:39:00,
2013-06-06 09:40:00,73.8,73.2,29.74,ESE,112,5.8,5.8,98,0.00,,---,0.00,VWS V14.01,2013-06-06 13:40:00,
2013-06-06 09:41:00,73.6,73.0,29.74,ESE,112,5.8,5.8,98,0.00,,---,0.00,VWS V14.01,2013-06-06 13:41:00,
2013-06-06 09:42:00,73.8,73.2,29.74,SE,135,3.8,5.8,98,0.00,,---,0.00,VWS V14.01,2013-06-06 13:42:00,
2013-06-06 09:43:00,73.8,73.2,29.74,SE,135,3.8,3.8,98,0.00,,---,0.00,VWS V14.01,2013-06-06 13:43:00,
2013-06-06 09:44:00,73.8,73.2,29.74,SE,135,3.8,3.8,98,0.00,,---,0.00,VWS V14.01,2013-06-06 13:44:00,
2013-06-06 09:45:00,73.8,73.2,29.74,SE,135,3.8,3.8,98,0.00,,---,0.00,VWS V14.01,2013-06-06 13:45:00,
2013-06-06 09:46:00,73.8,73.2,29.74,SE,135,3.8,3.8,98,0.00,,---,0.00,VWS V14.01,2013-06-06 13:46:00,
2013-06-06 09:47:00,73.8,73.2,29.74,SE,135,3.8,3.8,98,0.00,,---,0.00,VWS V14.01,2013-06-06 13:47:00,
2013-06-06 09:48:00,73.8,73.2,29.74,SE,135,3.8,3.8,98,0.00,,---,0.00,VWS V14.01,2013-06-06 13:48:00,
2013-06-06 09:49:00,73.8,73.2,29.74,SE,135,3.8,3.8,98,0.00,,---,0.00,VWS V14.01,2013-06-06 13:49:00,
2013-06-06 09:50:00,73.8,73.2,29.74,SE,135,3.8,3.8,98,0.00,,---,0.00,VWS V14.01,2013-06-06 13:50:00,
2013-06-06 09:51:00,73.8,73.2,29.74,SSE,158,2.7,3.8,98,0.00,,---,0.00,VWS V14.01,2013-06-06 13:51:00,
2013-06-06 09:52:00,73.8,73.2,29.74,SSE,158,2.7,2.7,98,0.00,,---,0.00,VWS V14.01,2013-06-06 13:52:00,
2013-06-06 09:53:00,73.8,73.2,29.74,SSE,158,2.7,2.7,98,0.00,,---,0.00,VWS V14.01,2013-06-06 13:53:00,
2013-06-06 09:54:00,73.9,73.3,29.74,SSE,158,2.7,2.7,98,0.00,,---,0.00,VWS V14.01,2013-06-06 13:54:00,
2013-06-06 09:55:00,73.9,73.3,29.74,SSE,158,2.7,2.7,98,0.00,,---,0.00,VWS V14.01,2013-06-06 13:55:00,
2013-06-06 09:56:00,73.9,73.3,29.74,SSE,158,2.7,2.7,98,0.00,,---,0.00,VWS V14.01,2013-06-06 13:56:00,
2013-06-06 09:57:00,74.1,73.5,29.74,SSE,158,2.9,2.9,98,0.00,,---,0.00,VWS V14.01,2013-06-06 13:57:00,
2013-06-06 09:58:00,73.9,73.3,29.74,SSE,158,2.9,2.9,98,0.00,,---,0.00,VWS V14.01,2013-06-06 13:58:00,
2013-06-06 09:59:00,74.1,73.5,29.74,SSE,158,2.9,2.9,98,0.00,,---,0.00,VWS V14.01,2013-06-06 13:59:00,
2013-06-06 10:00:00,74.1,73.5,29.74,SSE,158,2.9,2.9,98,0.00,,---,0.00,VWS V14.01,2013-06-06 14:00:00,
2013-06-06 10:01:00,74.1,73.5,29.74,SSE,158,2.9,2.9,98,0.00,,---,0.00,VWS V14.01,2013-06-06 14:01:00,
2013-06-06 10:02:00,74.1,73.5,29.74,SSE,158,2.9,2.9,98,0.00,,---,0.00,VWS V14.01,2013-06-06 14:02:00,
2013-06-06 10:03:00,74.1,73.5,29.74,SSE,158,2.9,2.9,98,0.00,,---,0.00,VWS V14.01,2013-06-06 14:03:00,
2013-06-06 10:04:00,74.3,73.7,29.74,SSE,158,2.9,2.9,98,0.00,,---,0.00,VWS V14.01,2013-06-06 14:04:00,
2013-06-06 10:05:00,74.3,73.7,29.74,SSE,158,2.9,2.9,98,0.00,,---,0.00,VWS V14.01,2013-06-06 14:05:00,
2013-06-06 10:06:00,74.3,73.7,29.74,SSE,158,2.9,2.9,98,0.00,,---,0.00,VWS V14.01,2013-06-06 14:06:00,
2013-06-06 10:07:00,74.3,73.7,29.74,SSE,158,2.9,2.9,98,0.00,,---,0.00,VWS V14.01,2013-06-06 14:07:00,
2013-06-06 10:08:00,74.3,73.7,29.74,SSE,158,2.9,2.9,98,0.00,,---,0.00,VWS V14.01,2013-06-06 14:08:00,
2013-06-06 10:09:00,74.3,73.7,29.74,SSW,202,7.8,7.8,98,0.00,,---,0.00,VWS V14.01,2013-06-06 14:09:00,
2013-06-06 10:10:00,74.3,73.7,29.74,SSW,202,7.8,7.8,98,0.00,,---,0.00,VWS V14.01,2013-06-06 14:10:00,
2013-06-06 10:11:00,74.3,73.7,29.74,SSW,202,7.8,7.8,98,0.00,,---,0.00,VWS V14.01,2013-06-06 14:11:00,
2013-06-06 10:12:00,74.3,73.7,29.74,SSW,202,7.8,7.8,98,0.00,,---,0.00,VWS V14.01,2013-06-06 14:12:00,
2013-06-06 10:13:00,74.3,73.7,29.74,SSW,202,7.8,7.8,98,0.00,,---,0.00,VWS V14.01,2013-06-06 14:13:00,
2013-06-06 10:14:00,74.3,73.7,29.74,SSW,202,7.8,7.8,98,0.00,,---,0.00,VWS V14.01,2013-06-06 14:14:00,
2013-06-06 10:15:00,74.3,73.7,29.74,SSW,202,7.8,7.8,98,0.00,,---,0.00,VWS V14.01,2013-06-06 14:15:00,
2013-06-06 10:16:00,74.1,73.5,29.74,SSW,202,7.8,7.8,98,0.00,,---,0.00,VWS V14.01,2013-06-06 14:16:00,
2013-06-06 10:17:00,74.1,73.5,29.74,SSW,202,7.8,7.8,98,0.00,,---,0.00,VWS V14.01,2013-06-06 14:17:00,
2013-06-06 10:18:00,74.1,73.5,29.74,SSW,202,7.8,7.8,98,0.00,,---,0.00,VWS V14.01,2013-06-06 14:18:00,
2013-06-06 10:19:00,74.1,73.5,29.74,SSW,202,7.8,7.8,98,0.00,,---,0.00,VWS V14.01,2013-06-06 14:19:00,
2013-06-06 10:20:00,74.1,73.5,29.74,SSW,202,7.8,7.8,98,0.00,,---,0.00,VWS V14.01,2013-06-06 14:20:00,
2013-06-06 10:21:00,74.1,73.5,29.74,SSW,202,7.8,7.8,98,0.00,,---,0.00,VWS V14.01,2013-06-06 14:21:00,
2013-06-06 10:22:00,74.1,73.5,29.74,SSW,202,7.8,7.8,98,0.00,,---,0.00,VWS V14.01,2013-06-06 14:22:00,
2013-06-06 10:23:00,74.1,73.5,29.74,SSW,202,7.8,7.8,98,0.00,,---,0.00,VWS V14.01,2013-06-06 14:23:00,
2013-06-06 10:24:00,73.9,73.3,29.74,SSW,202,7.8,7.8,98,0.00,,---,0.00,VWS V14.01,2013-06-06 14:24:00,
2013-06-06 10:25:00,73.9,73.3,29.74,SSW,202,7.8,7.8,98,0.00,,---,0.00,VWS V14.01,2013-06-06 14:25:00,
2013-06-06 10:26:00,73.9,73.3,29.74,SSW,202,7.8,7.8,98,0.00,,---,0.00,VWS V14.01,2013-06-06 14:26:00,
2013-06-06 10:27:00,73.9,73.3,29.74,SSW,202,7.8,7.8,98,0.00,,---,0.00,VWS V14.01,2013-06-06 14:27:00,
2013-06-06 10:28:00,73.9,73.3,29.74,SSW,202,7.8,7.8,98,0.00,,---,0.00,VWS V14.01,2013-06-06 14:28:00,
2013-06-06 10:29:00,74.1,73.5,29.74,SSW,202,7.8,7.8,98,0.00,,---,0.00,VWS V14.01,2013-06-06 14:29:00,
2013-06-06 10:30:00,74.1,73.5,29.74,SSW,202,7.8,7.8,98,0.00,,---,0.00,VWS V14.01,2013-06-06 14:30:00,
2013-06-06 10:31:00,74.1,73.5,29.74,SSW,202,7.8,7.8,98,0.00,,---,0.00,VWS V14.01,2013-06-06 14:31:00,
2013-06-06 10:32:00,74.1,73.5,29.74,SSW,202,7.8,7.8,98,0.00,,---,0.00,VWS V14.01,2013-06-06 14:32:00,
2013-06-06 10:33:00,74.1,73.5,29.74,SSW,202,7.8,7.8,98,0.00,,---,0.00,VWS V14.01,2013-06-06 14:33:00,
2013-06-06 10:34:00,74.1,73.5,29.74,SSW,202,7.8,7.8,98,0.00,,---,0.00,VWS V14.01,2013-06-06 14:34:00,
2013-06-06 10:35:00,74.1,73.5,29.74,SSW,202,7.8,7.8,98,0.00,,---,0.00,VWS V14.01,2013-06-06 14:35:00,
2013-06-06 10:36:00,74.1,73.5,29.74,SSW,202,7.8,7.8,98,0.00,,---,0.00,VWS V14.01,2013-06-06 14:36:00,
2013-06-06 10:37:00,74.1,73.5,29.74,SSW,202,7.8,7.8,98,0.00,,---,0.00,VWS V14.01,2013-06-06 14:37:00,
2013-06-06 10:38:00,74.1,73.5,29.74,SSW,202,7.8,7.8,98,0.00,,---,0.00,VWS V14.01,2013-06-06 14:38:00,
2013-06-06 10:39:00,74.3,73.7,29.74,SSW,202,7.8,7.8,98,0.00,,---,0.00,VWS V14.01,2013-06-06 14:39:00,
2013-06-06 10:40:00,74.3,73.7,29.74,SSW,202,7.8,7.8,98,0.00,,---,0.00,VWS V14.01,2013-06-06 14:40:00,
2013-06-06 10:41:00,74.3,73.7,29.74,SSW,202,7.8,7.8,98,0.00,,---,0.00,VWS V14.01,2013-06-06 14:41:00,
2013-06-06 10:42:00,74.3,73.7,29.74,SSW,202,7.8,7.8,98,0.00,,---,0.00,VWS V14.01,2013-06-06 14:42:00,
2013-06-06 10:43:00,74.3,73.7,29.74,SSW,202,7.8,7.8,98,0.00,,---,0.00,VWS V14.01,2013-06-06 14:43:00,
2013-06-06 10:44:00,74.3,73.7,29.74,SSW,202,7.8,7.8,98,0.00,,---,0.00,VWS V14.01,2013-06-06 14:44:00,
2013-06-06 10:45:00,74.3,73.7,29.74,SSW,202,7.8,7.8,98,0.00,,---,0.00,VWS V14.01,2013-06-06 14:45:00,
2013-06-06 10:46:00,74.3,73.7,29.74,SSW,202,7.8,7.8,98,0.00,,---,0.00,VWS V14.01,2013-06-06 14:46:00,
2013-06-06 10:47:00,74.3,73.7,29.74,SSW,202,7.8,7.8,98,0.00,,---,0.00,VWS V14.01,2013-06-06 14:47:00,
2013-06-06 10:48:00,74.5,73.9,29.74,SSW,202,7.8,7.8,98,0.00,,---,0.00,VWS V14.01,2013-06-06 14:48:00,
2013-06-06 10:49:00,74.3,73.7,29.74,SSW,202,7.8,7.8,98,0.00,,---,0.00,VWS V14.01,2013-06-06 14:49:00,
2013-06-06 10:50:00,74.3,73.7,29.74,SSW,202,7.8,7.8,98,0.00,,---,0.00,VWS V14.01,2013-06-06 14:50:00,
2013-06-06 10:51:00,74.5,73.9,29.74,SSW,202,7.8,7.8,98,0.00,,---,0.00,VWS V14.01,2013-06-06 14:51:00,
2013-06-06 10:52:00,74.5,73.9,29.74,SSW,202,7.8,7.8,98,0.00,,---,0.00,VWS V14.01,2013-06-06 14:52:00,
2013-06-06 10:53:00,74.5,73.9,29.74,SSW,202,7.8,7.8,98,0.00,,---,0.00,VWS V14.01,2013-06-06 14:53:00,
2013-06-06 10:54:00,74.7,74.1,29.74,SSW,202,7.8,7.8,98,0.00,,---,0.00,VWS V14.01,2013-06-06 14:54:00,
2013-06-06 10:55:00,74.7,74.1,29.74,SSW,202,7.8,7.8,98,0.00,,---,0.00,VWS V14.01,2013-06-06 14:55:00,
2013-06-06 10:56:00,74.7,74.1,29.74,SSW,202,7.8,7.8,98,0.00,,---,0.00,VWS V14.01,2013-06-06 14:56:00,
2013-06-06 10:57:00,74.7,74.1,29.74,SSW,202,2.0,7.8,98,0.00,,---,0.00,VWS V14.01,2013-06-06 14:57:00,
2013-06-06 10:58:00,74.7,74.1,29.74,SSW,202,2.0,2.0,98,0.00,,---,0.00,VWS V14.01,2013-06-06 14:58:00,
2013-06-06 10:59:00,74.7,74.1,29.74,SSW,202,2.0,2.0,98,0.00,,---,0.00,VWS V14.01,2013-06-06 14:59:00,
2013-06-06 11:00:00,74.7,74.1,29.74,SSW,202,2.0,2.0,98,0.00,,---,0.00,VWS V14.01,2013-06-06 15:00:00,
2013-06-06 11:01:00,74.7,74.1,29.74,SSW,202,2.0,2.0,98,0.00,,---,0.00,VWS V14.01,2013-06-06 15:01:00,
2013-06-06 11:02:00,74.7,74.1,29.74,SSW,202,2.0,2.0,98,0.00,,---,0.00,VWS V14.01,2013-06-06 15:02:00,
2013-06-06 11:03:00,74.7,74.1,29.74,SSW,202,2.0,2.0,98,0.00,,---,0.00,VWS V14.01,2013-06-06 15:03:00,
2013-06-06 11:04:00,74.7,74.1,29.74,SSW,202,2.0,2.0,98,0.00,,---,0.00,VWS V14.01,2013-06-06 15:04:00,
2013-06-06 11:05:00,74.7,74.1,29.74,SSW,202,2.0,2.0,98,0.00,,---,0.00,VWS V14.01,2013-06-06 15:05:00,
2013-06-06 11:06:00,74.8,74.2,29.74,SSW,202,2.0,2.0,98,0.00,,---,0.00,VWS V14.01,2013-06-06 15:06:00,
2013-06-06 11:07:00,74.8,74.2,29.74,SSW,202,2.0,2.0,98,0.00,,---,0.00,VWS V14.01,2013-06-06 15:07:00,
2013-06-06 11:08:00,74.8,74.2,29.74,SSW,202,2.0,2.0,98,0.00,,---,0.00,VWS V14.01,2013-06-06 15:08:00,
2013-06-06 11:09:00,74.8,74.2,29.74,SSW,202,2.0,2.0,98,0.00,,---,0.00,VWS V14.01,2013-06-06 15:09:00,
2013-06-06 11:10:00,74.8,74.2,29.74,SSW,202,2.0,2.0,98,0.00,,---,0.00,VWS V14.01,2013-06-06 15:10:00,
2013-06-06 11:11:00,74.8,74.2,29.74,SSW,202,2.0,2.0,98,0.00,,---,0.00,VWS V14.01,2013-06-06 15:11:00,
2013-06-06 11:12:00,74.8,74.2,29.74,SSW,202,2.0,2.0,98,0.00,,---,0.00,VWS V14.01,2013-06-06 15:12:00,
2013-06-06 11:13:00,74.8,74.2,29.74,SSW,202,2.0,2.0,98,0.00,,---,0.00,VWS V14.01,2013-06-06 15:13:00,
2013-06-06 11:14:00,75.0,74.4,29.71,SSW,202,2.0,2.0,98,0.00,,---,0.00,VWS V14.01,2013-06-06 15:14:00,
2013-06-06 11:15:00,75.0,74.4,29.71,SSW,202,2.0,2.0,98,0.00,,---,0.00,VWS V14.01,2013-06-06 15:15:00,
2013-06-06 11:16:00,75.0,74.4,29.71,SSW,202,2.0,2.0,98,0.00,,---,0.00,VWS V14.01,2013-06-06 15:16:00,
2013-06-06 11:17:00,75.0,74.4,29.71,SSW,202,2.0,2.0,98,0.00,,---,0.00,VWS V14.01,2013-06-06 15:17:00,
2013-06-06 11:18:00,75.0,74.4,29.71,SSW,202,2.0,2.0,98,0.00,,---,0.00,VWS V14.01,2013-06-06 15:18:00,
2013-06-06 11:19:00,75.0,74.4,29.71,SSW,202,2.0,2.0,98,0.00,,---,0.00,VWS V14.01,2013-06-06 15:19:00,
2013-06-06 11:20:00,75.0,74.4,29.71,SSW,202,2.0,2.0,98,0.00,,---,0.00,VWS V14.01,2013-06-06 15:20:00,
2013-06-06 11:21:00,74.7,74.1,29.71,SSW,202,2.0,2.0,98,0.00,,---,0.00,VWS V14.01,2013-06-06 15:21:00,
2013-06-06 11:22:00,74.7,74.1,29.71,SSW,202,2.0,2.0,98,0.00,,---,0.00,VWS V14.01,2013-06-06 15:22:00,
2013-06-06 11:23:00,74.5,73.9,29.71,SSW,202,2.0,2.0,98,0.00,,---,0.00,VWS V14.01,2013-06-06 15:23:00,
2013-06-06 11:24:00,74.3,73.7,29.71,SSW,202,2.0,2.0,98,0.00,,---,0.00,VWS V14.01,2013-06-06 15:24:00,
2013-06-06 11:25:00,74.3,73.7,29.71,SSW,202,2.0,2.0,98,0.00,,---,0.00,VWS V14.01,2013-06-06 15:25:00,
2013-06-06 11:26:00,74.1,73.5,29.71,SSW,202,2.0,2.0,98,0.00,,---,0.00,VWS V14.01,2013-06-06 15:26:00,
2013-06-06 11:27:00,73.9,73.3,29.71,SSW,202,2.0,2.0,98,0.00,,---,0.00,VWS V14.01,2013-06-06 15:27:00,
2013-06-06 11:28:00,73.9,73.3,29.71,SSW,202,2.0,2.0,98,0.00,,---,0.00,VWS V14.01,2013-06-06 15:28:00,
2013-06-06 11:29:00,73.8,73.2,29.71,SSW,202,2.0,2.0,98,0.00,,---,0.00,VWS V14.01,2013-06-06 15:29:00,
2013-06-06 11:30:00,73.8,73.2,29.71,SSW,202,2.0,2.0,98,0.00,,---,0.00,VWS V14.01,2013-06-06 15:30:00,
2013-06-06 11:31:00,73.8,73.2,29.71,SSW,202,2.0,2.0,98,0.00,,---,0.00,VWS V14.01,2013-06-06 15:31:00,
2013-06-06 11:32:00,73.8,73.2,29.71,SSW,202,2.0,2.0,98,0.00,,---,0.00,VWS V14.01,2013-06-06 15:32:00,
2013-06-06 11:33:00,73.8,72.9,29.71,SSW,202,2.0,2.0,97,0.00,,---,0.00,VWS V14.01,2013-06-06 15:33:00,
2013-06-06 11:34:00,73.8,72.9,29.71,SSW,202,2.0,2.0,97,0.00,,---,0.00,VWS V14.01,2013-06-06 15:34:00,
2013-06-06 11:35:00,73.8,72.9,29.71,SSW,202,2.0,2.0,97,0.00,,---,0.00,VWS V14.01,2013-06-06 15:35:00,
2013-06-06 11:36:00,73.8,72.9,29.71,SSW,202,2.0,2.0,97,0.00,,---,0.00,VWS V14.01,2013-06-06 15:36:00,
2013-06-06 11:37:00,73.8,72.9,29.71,SSW,202,2.0,2.0,97,0.00,,---,0.00,VWS V14.01,2013-06-06 15:37:00,
2013-06-06 11:38:00,73.8,72.9,29.71,SSW,202,2.0,2.0,97,0.00,,---,0.00,VWS V14.01,2013-06-06 15:38:00,
2013-06-06 11:39:00,73.8,72.9,29.71,SSW,202,2.0,2.0,97,0.00,,---,0.00,VWS V14.01,2013-06-06 15:39:00,
2013-06-06 11:40:00,73.8,72.9,29.71,SSW,202,2.0,2.0,97,0.00,,---,0.00,VWS V14.01,2013-06-06 15:40:00,
2013-06-06 11:41:00,73.8,72.9,29.71,SSW,202,2.0,2.0,97,0.00,,---,0.00,VWS V14.01,2013-06-06 15:41:00,
2013-06-06 11:42:00,73.8,72.9,29.71,SSW,202,2.0,2.0,97,0.00,,---,0.00,VWS V14.01,2013-06-06 15:42:00,
2013-06-06 11:43:00,73.9,73.0,29.71,SSW,202,2.0,2.0,97,0.00,,---,0.00,VWS V14.01,2013-06-06 15:43:00,
2013-06-06 11:44:00,73.9,73.0,29.71,SSW,202,2.0,2.0,97,0.00,,---,0.00,VWS V14.01,2013-06-06 15:44:00,
2013-06-06 11:45:00,73.9,73.0,29.71,SSW,202,2.0,2.0,97,0.00,,---,0.00,VWS V14.01,2013-06-06 15:45:00,
2013-06-06 11:46:00,74.1,73.2,29.71,SSW,202,2.0,2.0,97,0.00,,---,0.00,VWS V14.01,2013-06-06 15:46:00,
2013-06-06 11:47:00,73.9,73.0,29.71,SSW,202,2.0,2.0,97,0.00,,---,0.00,VWS V14.01,2013-06-06 15:47:00,
2013-06-06 11:48:00,73.9,73.0,29.71,SSW,202,2.0,2.0,97,0.00,,---,0.00,VWS V14.01,2013-06-06 15:48:00,
2013-06-06 11:49:00,73.9,73.0,29.71,SSW,202,2.0,2.0,97,0.00,,---,0.00,VWS V14.01,2013-06-06 15:49:00,
2013-06-06 11:50:00,73.9,73.0,29.71,SSW,202,2.0,2.0,97,0.00,,---,0.00,VWS V14.01,2013-06-06 15:50:00,
2013-06-06 11:51:00,73.9,73.0,29.71,SSW,202,2.0,2.0,97,0.00,,---,0.00,VWS V14.01,2013-06-06 15:51:00,
2013-06-06 11:52:00,74.3,73.4,29.71,SSW,202,2.0,2.0,97,0.00,,---,0.00,VWS V14.01,2013-06-06 15:52:00,
2013-06-06 11:53:00,74.3,73.4,29.71,SSW,202,2.0,2.0,97,0.00,,---,0.00,VWS V14.01,2013-06-06 15:53:00,
2013-06-06 11:54:00,74.5,73.9,29.71,SSW,202,2.0,2.0,98,0.00,,---,0.00,VWS V14.01,2013-06-06 15:54:00,
2013-06-06 11:55:00,74.5,73.9,29.71,SSW,202,2.0,2.0,98,0.00,,---,0.00,VWS V14.01,2013-06-06 15:55:00,
2013-06-06 11:56:00,74.7,73.8,29.71,SSW,202,2.0,2.0,97,0.00,,---,0.00,VWS V14.01,2013-06-06 15:56:00,
2013-06-06 11:57:00,74.7,73.8,29.71,SSW,202,2.0,2.0,97,0.00,,---,0.00,VWS V14.01,2013-06-06 15:57:00,
2013-06-06 11:58:00,74.7,74.1,29.71,SSW,202,2.0,2.0,98,0.00,,---,0.00,VWS V14.01,2013-06-06 15:58:00,
2013-06-06 11:59:00,74.7,73.8,29.71,SSW,202,2.0,2.0,97,0.00,,---,0.00,VWS V14.01,2013-06-06 15:59:00,
2013-06-06 12:00:00,74.7,73.8,29.71,SSW,202,2.0,2.0,97,0.00,,---,0.00,VWS V14.01,2013-06-06 16:00:00,
2013-06-06 12:01:00,74.8,73.9,29.71,SSW,202,2.0,2.0,97,0.00,,---,0.00,VWS V14.01,2013-06-06 16:01:00,
2013-06-06 12:02:00,75.0,74.1,29.71,SSW,202,2.0,2.0,97,0.00,,---,0.00,VWS V14.01,2013-06-06 16:02:00,
2013-06-06 12:03:00,75.0,74.1,29.71,SSW,202,2.0,2.0,97,0.00,,---,0.00,VWS V14.01,2013-06-06 16:03:00,
2013-06-06 12:04:00,75.0,74.1,29.71,SSW,202,2.0,2.0,97,0.00,,---,0.00,VWS V14.01,2013-06-06 16:04:00,
2013-06-06 12:05:00,75.0,74.1,29.71,SSW,202,2.0,2.0,97,0.00,,---,0.00,VWS V14.01,2013-06-06 16:05:00,
2013-06-06 12:06:00,75.0,74.1,29.71,SSW,202,2.0,2.0,97,0.00,,---,0.00,VWS V14.01,2013-06-06 16:06:00,
2013-06-06 12:07:00,75.2,74.0,29.71,SSW,202,2.0,2.0,96,0.00,,---,0.00,VWS V14.01,2013-06-06 16:07:00,
2013-06-06 12:08:00,75.2,74.0,29.71,SSW,202,2.0,2.0,96,0.00,,---,0.00,VWS V14.01,2013-06-06 16:08:00,
2013-06-06 12:09:00,75.2,74.0,29.71,SE,135,2.9,2.9,96,0.00,,---,0.00,VWS V14.01,2013-06-06 16:09:00,
2013-06-06 12:10:00,75.2,74.0,29.71,SE,135,2.9,2.9,96,0.00,,---,0.00,VWS V14.01,2013-06-06 16:10:00,
2013-06-06 12:11:00,75.2,73.7,29.71,SE,135,2.9,2.9,95,0.00,,---,0.00,VWS V14.01,2013-06-06 16:11:00,
2013-06-06 12:12:00,75.4,73.8,29.71,SE,135,2.9,2.9,95,0.00,,---,0.00,VWS V14.01,2013-06-06 16:12:00,
2013-06-06 12:13:00,75.6,74.0,29.71,SSE,158,7.8,7.8,95,0.00,,---,0.00,VWS V14.01,2013-06-06 16:13:00,
2013-06-06 12:14:00,75.7,73.9,29.68,SSE,158,4.3,4.3,94,0.00,,---,0.00,VWS V14.01,2013-06-06 16:14:00,
2013-06-06 12:15:00,75.7,73.9,29.68,SSE,158,4.3,7.8,94,0.00,,---,0.00,VWS V14.01,2013-06-06 16:15:00,
2013-06-06 12:16:00,75.7,73.9,29.68,SSE,158,4.3,4.3,94,0.00,,---,0.00,VWS V14.01,2013-06-06 16:16:00,
2013-06-06 12:17:00,75.9,73.8,29.68,SSE,158,4.3,4.3,93,0.00,,---,0.00,VWS V14.01,2013-06-06 16:17:00,
2013-06-06 12:18:00,75.9,73.8,29.68,SW,225,6.3,6.3,93,0.00,,---,0.00,VWS V14.01,2013-06-06 16:18:00,
2013-06-06 12:19:00,76.3,73.1,29.68,SSW,202,6.3,6.3,90,0.00,,---,0.00,VWS V14.01,2013-06-06 16:19:00,
2013-06-06 12:20:00,76.3,73.1,29.68,SSW,202,6.3,6.3,90,0.00,,---,0.00,VWS V14.01,2013-06-06 16:20:00,
2013-06-06 12:21:00,76.5,73.3,29.68,SE,135,1.3,6.3,90,0.00,,---,0.00,VWS V14.01,2013-06-06 16:21:00,
2013-06-06 12:22:00,76.6,73.2,29.68,SW,225,5.4,5.4,89,0.00,,---,0.00,VWS V14.01,2013-06-06 16:22:00,
2013-06-06 12:23:00,76.8,73.3,29.68,SW,225,5.4,5.4,89,0.00,,---,0.00,VWS V14.01,2013-06-06 16:23:00,
2013-06-06 12:24:00,77.0,72.8,29.68,SSE,158,11.2,11.2,87,0.00,,---,0.00,VWS V14.01,2013-06-06 16:24:00,
2013-06-06 12:25:00,77.0,72.8,29.68,SSE,158,11.2,11.2,87,0.00,,---,0.00,VWS V14.01,2013-06-06 16:25:00,
2013-06-06 12:26:00,77.0,71.8,29.68,SSE,158,11.2,11.2,84,0.00,,---,0.00,VWS V14.01,2013-06-06 16:26:00,
2013-06-06 12:27:00,77.0,70.7,29.68,SSE,158,7.8,11.2,81,0.00,,---,0.00,VWS V14.01,2013-06-06 16:27:00,
2013-06-06 12:28:00,77.0,70.4,29.68,SSE,158,7.8,7.8,80,0.00,,---,0.00,VWS V14.01,2013-06-06 16:28:00,
2013-06-06 12:29:00,77.4,70.0,29.68,SSE,158,7.8,9.6,78,0.00,,---,0.00,VWS V14.01,2013-06-06 16:29:00,
2013-06-06 12:30:00,77.4,70.0,29.68,SSE,158,7.8,9.6,78,0.00,,---,0.00,VWS V14.01,2013-06-06 16:30:00,
2013-06-06 12:31:00,77.4,70.0,29.68,ESE,112,4.3,7.8,78,0.00,,---,0.00,VWS V14.01,2013-06-06 16:31:00,
2013-06-06 12:32:00,77.4,70.3,29.68,ESE,112,4.3,4.3,79,0.00,,---,0.00,VWS V14.01,2013-06-06 16:32:00,
2013-06-06 12:33:00,77.5,70.5,29.68,ESE,112,4.3,4.3,79,0.00,,---,0.00,VWS V14.01,2013-06-06 16:33:00,
2013-06-06 12:34:00,77.7,69.9,29.68,SSW,202,5.6,5.6,77,0.00,,---,0.00,VWS V14.01,2013-06-06 16:34:00,
2013-06-06 12:35:00,77.7,69.9,29.68,SSW,202,5.6,5.6,77,0.00,,---,0.00,VWS V14.01,2013-06-06 16:35:00,
2013-06-06 12:36:00,78.1,69.5,29.68,SSW,202,3.4,5.6,75,0.00,,---,0.00,VWS V14.01,2013-06-06 16:36:00,
2013-06-06 12:37:00,78.1,69.9,29.68,SSW,202,2.0,3.4,76,0.00,,---,0.00,VWS V14.01,2013-06-06 16:37:00,
2013-06-06 12:38:00,78.3,69.7,29.68,SSW,202,2.0,2.0,75,0.00,,---,0.00,VWS V14.01,2013-06-06 16:38:00,
2013-06-06 12:39:00,78.4,68.7,29.68,SW,225,5.4,5.4,72,0.00,,---,0.00,VWS V14.01,2013-06-06 16:39:00,
2013-06-06 12:40:00,78.4,68.7,29.68,SW,225,5.4,5.4,72,0.00,,---,0.00,VWS V14.01,2013-06-06 16:40:00,
2013-06-06 12:41:00,78.8,69.4,29.68,NNE,22,0.9,5.4,73,0.00,,---,0.00,VWS V14.01,2013-06-06 16:41:00,
2013-06-06 12:42:00,79.0,68.8,29.68,South,180,7.2,7.2,71,0.00,,---,0.00,VWS V14.01,2013-06-06 16:42:00,
2013-06-06 12:43:00,79.0,67.9,29.68,SSW,202,3.6,7.2,69,0.00,,---,0.00,VWS V14.01,2013-06-06 16:43:00,
2013-06-06 12:44:00,79.3,68.3,29.68,SSW,202,2.0,3.6,69,0.00,,---,0.00,VWS V14.01,2013-06-06 16:44:00,
2013-06-06 12:45:00,79.3,68.3,29.68,SSW,202,2.0,3.6,69,0.00,,---,0.00,VWS V14.01,2013-06-06 16:45:00,
2013-06-06 12:46:00,79.5,68.5,29.68,SSE,158,3.4,7.8,69,0.00,,---,0.00,VWS V14.01,2013-06-06 16:46:00,
2013-06-06 12:47:00,79.5,68.0,29.68,SW,225,3.4,3.8,68,0.00,,---,0.00,VWS V14.01,2013-06-06 16:47:00,
2013-06-06 12:48:00,79.5,68.0,29.68,ESE,112,0.9,3.4,68,0.00,,---,0.00,VWS V14.01,2013-06-06 16:48:00,
2013-06-06 12:49:00,79.9,68.4,29.68,WSW,248,2.5,3.1,68,0.00,,---,0.00,VWS V14.01,2013-06-06 16:49:00,
2013-06-06 12:50:00,79.9,68.4,29.68,WSW,248,2.5,3.1,68,0.00,,---,0.00,VWS V14.01,2013-06-06 16:50:00,
2013-06-06 12:51:00,80.2,69.2,29.68,WSW,248,2.2,2.7,69,0.00,,---,0.00,VWS V14.01,2013-06-06 16:51:00,
2013-06-06 12:52:00,80.2,69.2,29.68,SSE,158,10.7,10.7,69,0.00,,---,0.00,VWS V14.01,2013-06-06 16:52:00,
2013-06-06 12:53:00,80.6,68.6,29.68,SSW,202,1.3,17.0,67,0.00,,---,0.00,VWS V14.01,2013-06-06 16:53:00,
2013-06-06 12:54:00,80.8,68.8,29.68,SSW,202,0.9,4.3,67,0.00,,---,0.00,VWS V14.01,2013-06-06 16:54:00,
2013-06-06 12:55:00,80.8,68.8,29.68,SSW,202,0.9,4.3,67,0.00,,---,0.00,VWS V14.01,2013-06-06 16:55:00,
2013-06-06 12:56:00,81.0,69.0,29.68,South,180,4.7,6.3,67,0.00,,---,0.00,VWS V14.01,2013-06-06 16:56:00,
2013-06-06 12:57:00,81.5,69.1,29.68,South,180,3.1,5.4,66,0.00,,---,0.00,VWS V14.01,2013-06-06 16:57:00,
2013-06-06 12:58:00,81.7,68.8,29.68,South,180,6.0,6.0,65,0.00,,---,0.00,VWS V14.01,2013-06-06 16:58:00,
2013-06-06 12:59:00,81.7,68.8,29.68,SSW,202,12.8,12.8,65,0.00,,---,0.00,VWS V14.01,2013-06-06 16:59:00,
2013-06-06 13:00:00,81.7,68.8,29.68,SSW,202,12.8,12.8,65,0.00,,---,0.00,VWS V14.01,2013-06-06 17:00:00,
2013-06-06 13:01:00,81.7,68.8,29.68,SSW,202,2.2,12.8,65,0.00,,---,0.00,VWS V14.01,2013-06-06 17:01:00,
2013-06-06 13:02:00,81.7,68.8,29.68,SE,135,8.1,8.1,65,0.00,,---,0.00,VWS V14.01,2013-06-06 17:02:00,
2013-06-06 13:03:00,81.7,68.3,29.68,SW,225,0.0,8.1,64,0.00,,---,0.00,VWS V14.01,2013-06-06 17:03:00,
2013-06-06 13:04:00,81.7,67.9,29.68,WSW,248,1.6,1.6,63,0.00,,---,0.00,VWS V14.01,2013-06-06 17:04:00,
2013-06-06 13:05:00,81.7,67.9,29.68,WSW,248,1.6,1.6,63,0.00,,---,0.00,VWS V14.01,2013-06-06 17:05:00,
2013-06-06 13:06:00,81.9,68.0,29.68,SSW,202,2.2,2.2,63,0.00,,---,0.00,VWS V14.01,2013-06-06 17:06:00,
2013-06-06 13:07:00,81.5,65.8,29.68,South,180,1.3,3.8,59,0.00,,---,0.00,VWS V14.01,2013-06-06 17:07:00,
2013-06-06 13:08:00,81.7,66.0,29.68,SSE,158,4.0,4.0,59,0.00,,---,0.00,VWS V14.01,2013-06-06 17:08:00,
2013-06-06 13:09:00,81.5,65.3,29.68,SSW,202,5.6,5.6,58,0.00,,---,0.00,VWS V14.01,2013-06-06 17:09:00,
2013-06-06 13:10:00,81.5,65.3,29.68,SSW,202,5.6,5.6,58,0.00,,---,0.00,VWS V14.01,2013-06-06 17:10:00,
2013-06-06 13:11:00,81.3,64.7,29.68,SSW,202,0.0,5.6,57,0.00,,---,0.00,VWS V14.01,2013-06-06 17:11:00,
2013-06-06 13:12:00,81.7,65.5,29.68,SW,225,1.3,4.0,58,0.00,,---,0.00,VWS V14.01,2013-06-06 17:12:00,
2013-06-06 13:13:00,81.9,66.1,29.68,SE,135,0.0,1.3,59,0.00,,---,0.00,VWS V14.01,2013-06-06 17:13:00,
2013-06-06 13:14:00,81.9,66.1,29.68,SSW,202,3.1,3.1,59,0.00,,---,0.00,VWS V14.01,2013-06-06 17:14:00,
2013-06-06 13:15:00,81.9,66.1,29.68,SSW,202,3.1,3.8,59,0.00,,---,0.00,VWS V14.01,2013-06-06 17:15:00,
2013-06-06 13:16:00,81.7,64.5,29.68,South,180,4.9,4.9,56,0.00,,---,0.00,VWS V14.01,2013-06-06 17:16:00,
2013-06-06 13:17:00,81.5,63.3,29.68,NNW,338,2.5,4.9,54,0.00,,---,0.00,VWS V14.01,2013-06-06 17:17:00,
2013-06-06 13:18:00,81.5,64.3,29.68,South,180,1.1,2.5,56,0.00,,---,0.00,VWS V14.01,2013-06-06 17:18:00,
2013-06-06 13:19:00,81.5,64.3,29.68,SW,225,2.2,2.2,56,0.00,,---,0.00,VWS V14.01,2013-06-06 17:19:00,
2013-06-06 13:20:00,81.5,64.3,29.68,SW,225,2.2,2.2,56,0.00,,---,0.00,VWS V14.01,2013-06-06 17:20:00,
2013-06-06 13:21:00,81.1,64.0,29.68,SSW,202,3.8,3.8,56,0.00,,---,0.00,VWS V14.01,2013-06-06 17:21:00,
2013-06-06 13:22:00,81.0,63.3,29.68,SSW,202,6.0,6.0,55,0.00,,---,0.00,VWS V14.01,2013-06-06 17:22:00,
2013-06-06 13:23:00,80.8,63.6,29.68,SSW,202,1.6,6.0,56,0.00,,---,0.00,VWS V14.01,2013-06-06 17:23:00,
2013-06-06 13:24:00,81.0,64.8,29.68,SSE,158,5.8,5.8,58,0.00,,---,0.00,VWS V14.01,2013-06-06 17:24:00,
2013-06-06 13:25:00,81.0,64.8,29.68,SSE,158,5.8,5.8,58,0.00,,---,0.00,VWS V14.01,2013-06-06 17:25:00,
2013-06-06 13:26:00,80.8,64.6,29.68,SSE,158,5.8,5.8,58,0.00,,---,0.00,VWS V14.01,2013-06-06 17:26:00,
2013-06-06 13:27:00,80.6,64.0,29.68,SSW,202,3.6,8.7,57,0.00,,---,0.00,VWS V14.01,2013-06-06 17:27:00,
2013-06-06 13:28:00,80.8,65.1,29.68,South,180,2.9,3.6,59,0.00,,---,0.00,VWS V14.01,2013-06-06 17:28:00,
2013-06-06 13:29:00,80.8,65.1,29.68,South,180,2.9,15.4,59,0.00,,---,0.00,VWS V14.01,2013-06-06 17:29:00,
2013-06-06 13:30:00,80.8,65.1,29.68,South,180,2.9,15.4,59,0.00,,---,0.00,VWS V14.01,2013-06-06 17:30:00,
2013-06-06 13:31:00,80.4,65.3,29.68,SW,225,2.9,7.6,60,0.00,,---,0.00,VWS V14.01,2013-06-06 17:31:00,
2013-06-06 13:32:00,80.4,65.3,29.68,SSW,202,0.0,3.1,60,0.00,,---,0.00,VWS V14.01,2013-06-06 17:32:00,
2013-06-06 13:33:00,80.4,65.3,29.68,SSW,202,0.0,0.0,60,0.00,,---,0.00,VWS V14.01,2013-06-06 17:33:00,
2013-06-06 13:34:00,80.4,64.8,29.68,SSE,158,3.4,9.8,59,0.00,,---,0.00,VWS V14.01,2013-06-06 17:34:00,
2013-06-06 13:35:00,80.4,64.8,29.68,SSE,158,3.4,9.8,59,0.00,,---,0.00,VWS V14.01,2013-06-06 17:35:00,
2013-06-06 13:36:00,80.2,64.6,29.68,SSW,202,5.8,13.0,59,0.00,,---,0.00,VWS V14.01,2013-06-06 17:36:00,
2013-06-06 13:37:00,80.2,64.6,29.68,SSW,202,2.9,5.8,59,0.00,,---,0.00,VWS V14.01,2013-06-06 17:37:00,
2013-06-06 13:38:00,80.4,65.3,29.68,SSW,202,3.4,9.6,60,0.00,,---,0.00,VWS V14.01,2013-06-06 17:38:00,
2013-06-06 13:39:00,80.8,65.6,29.68,SSE,158,3.4,3.4,60,0.00,,---,0.00,VWS V14.01,2013-06-06 17:39:00,
2013-06-06 13:40:00,80.8,65.6,29.68,SSE,158,3.4,3.4,60,0.00,,---,0.00,VWS V14.01,2013-06-06 17:40:00,
2013-06-06 13:41:00,80.6,65.0,29.68,SSE,158,3.4,3.4,59,0.00,,---,0.00,VWS V14.01,2013-06-06 17:41:00,
2013-06-06 13:42:00,81.0,66.3,29.68,SW,225,1.1,3.4,61,0.00,,---,0.00,VWS V14.01,2013-06-06 17:42:00,
2013-06-06 13:43:00,81.0,66.3,29.68,SSW,202,7.8,7.8,61,0.00,,---,0.00,VWS V14.01,2013-06-06 17:43:00,
2013-06-06 13:44:00,80.8,65.6,29.68,West,270,3.4,6.5,60,0.00,,---,0.00,VWS V14.01,2013-06-06 17:44:00,
2013-06-06 13:45:00,80.8,65.6,29.68,West,270,3.4,6.5,60,0.00,,---,0.00,VWS V14.01,2013-06-06 17:45:00,
2013-06-06 13:46:00,80.8,66.1,29.68,West,270,3.4,3.4,61,0.00,,---,0.00,VWS V14.01,2013-06-06 17:46:00,
2013-06-06 13:47:00,80.6,65.9,29.68,SSE,158,2.9,3.4,61,0.00,,---,0.00,VWS V14.01,2013-06-06 17:47:00,
2013-06-06 13:48:00,80.4,66.2,29.68,SSW,202,6.9,6.9,62,0.00,,---,0.00,VWS V14.01,2013-06-06 17:48:00,
2013-06-06 13:49:00,80.4,66.2,29.68,SSE,158,4.3,10.1,62,0.00,,---,0.00,VWS V14.01,2013-06-06 17:49:00,
2013-06-06 13:50:00,80.4,66.2,29.68,SSE,158,10.1,13.0,62,0.00,,---,0.00,VWS V14.01,2013-06-06 17:50:00,
2013-06-06 13:51:00,80.4,66.2,29.68,ENE,68,6.0,10.1,62,0.00,,---,0.00,VWS V14.01,2013-06-06 17:51:00,
2013-06-06 13:52:00,80.6,66.4,29.68,SSE,158,2.0,10.5,62,0.00,,---,0.00,VWS V14.01,2013-06-06 17:52:00,
2013-06-06 13:53:00,80.8,66.1,29.68,SSW,202,6.3,8.7,61,0.00,,---,0.00,VWS V14.01,2013-06-06 17:53:00,
2013-06-06 13:54:00,81.7,66.9,29.68,SSW,202,2.5,8.1,61,0.00,,---,0.00,VWS V14.01,2013-06-06 17:54:00,
2013-06-06 13:55:00,81.3,66.6,29.68,SSW,202,8.1,8.1,61,0.00,,---,0.00,VWS V14.01,2013-06-06 17:55:00,
2013-06-06 13:56:00,81.7,66.9,29.68,South,180,4.3,8.1,61,0.00,,---,0.00,VWS V14.01,2013-06-06 17:56:00,
2013-06-06 13:57:00,81.9,66.6,29.68,SSW,202,1.1,15.7,60,0.00,,---,0.00,VWS V14.01,2013-06-06 17:57:00,
2013-06-06 13:58:00,81.9,65.7,29.68,SE,135,8.5,12.8,58,0.00,,---,0.00,VWS V14.01,2013-06-06 17:58:00,
2013-06-06 13:59:00,81.7,65.5,29.68,SSW,202,8.7,17.0,58,0.00,,---,0.00,VWS V14.01,2013-06-06 17:59:00,
2013-06-06 14:00:00,82.0,65.3,29.68,SSW,202,1.6,3.6,57,0.00,,---,0.00,VWS V14.01,2013-06-06 18:00:00,
2013-06-06 14:01:00,82.0,65.3,29.68,South,180,2.0,3.6,57,0.00,,---,0.00,VWS V14.01,2013-06-06 18:01:00,
2013-06-06 14:02:00,82.8,67.0,29.68,SW,225,5.6,5.6,59,0.00,,---,0.00,VWS V14.01,2013-06-06 18:02:00,
2013-06-06 14:03:00,82.9,65.7,29.68,SSW,202,9.8,9.8,56,0.00,,---,0.00,VWS V14.01,2013-06-06 18:03:00,
2013-06-06 14:04:00,82.9,65.1,29.68,SSW,202,2.7,9.8,55,0.00,,---,0.00,VWS V14.01,2013-06-06 18:04:00,
2013-06-06 14:05:00,83.7,65.8,29.68,SSW,202,4.0,4.0,55,0.00,,---,0.00,VWS V14.01,2013-06-06 18:05:00,
2013-06-06 14:06:00,83.7,65.8,29.68,SSW,202,4.0,5.8,55,0.00,,---,0.00,VWS V14.01,2013-06-06 18:06:00,
2013-06-06 14:07:00,83.8,64.9,29.68,SSW,202,3.6,6.3,53,0.00,,---,0.00,VWS V14.01,2013-06-06 18:07:00,
2013-06-06 14:08:00,83.8,64.3,29.68,SSE,158,11.9,11.9,52,0.00,,---,0.00,VWS V14.01,2013-06-06 18:08:00,
2013-06-06 14:09:00,83.8,64.3,29.68,South,180,3.4,13.2,52,0.00,,---,0.00,VWS V14.01,2013-06-06 18:09:00,
2013-06-06 14:10:00,83.8,64.3,29.68,SSW,202,2.0,4.7,52,0.00,,---,0.00,VWS V14.01,2013-06-06 18:10:00,
2013-06-06 14:11:00,83.7,63.6,29.68,WSW,248,4.7,9.6,51,0.00,,---,0.00,VWS V14.01,2013-06-06 18:11:00,
2013-06-06 14:12:00,83.5,63.5,29.68,SW,225,7.4,7.4,51,0.00,,---,0.00,VWS V14.01,2013-06-06 18:12:00,
2013-06-06 14:13:00,83.5,64.0,29.68,South,180,3.6,7.4,52,0.00,,---,0.00,VWS V14.01,2013-06-06 18:13:00,
2013-06-06 14:14:00,83.5,64.0,29.65,WSW,248,0.9,3.6,52,0.00,,---,0.00,VWS V14.01,2013-06-06 18:14:00,
2013-06-06 14:15:00,83.1,62.6,29.65,SSE,158,2.7,2.7,50,0.00,,---,0.00,VWS V14.01,2013-06-06 18:15:00,
2013-06-06 14:16:00,83.1,62.6,29.65,SSE,158,2.7,6.5,50,0.00,,---,0.00,VWS V14.01,2013-06-06 18:16:00,
2013-06-06 14:17:00,82.9,62.4,29.65,South,180,4.3,4.3,50,0.00,,---,0.00,VWS V14.01,2013-06-06 18:17:00,
2013-06-06 14:18:00,82.9,62.4,29.65,South,180,4.9,8.7,50,0.00,,---,0.00,VWS V14.01,2013-06-06 18:18:00,
2013-06-06 14:19:00,82.6,62.1,29.65,SSW,202,16.6,16.6,50,0.00,,---,0.00,VWS V14.01,2013-06-06 18:19:00,
2013-06-06 14:20:00,82.6,62.1,29.65,SSW,202,6.0,6.0,50,0.00,,---,0.00,VWS V14.01,2013-06-06 18:20:00,
2013-06-06 14:21:00,82.6,62.1,29.65,SSW,202,2.9,19.9,50,0.00,,---,0.00,VWS V14.01,2013-06-06 18:21:00,
2013-06-06 14:22:00,82.2,62.9,29.65,South,180,4.5,6.3,52,0.00,,---,0.00,VWS V14.01,2013-06-06 18:22:00,
2013-06-06 14:23:00,82.4,63.0,29.65,SSE,158,4.7,4.7,52,0.00,,---,0.00,VWS V14.01,2013-06-06 18:23:00,
2013-06-06 14:24:00,82.6,63.2,29.65,SSW,202,4.0,5.4,52,0.00,,---,0.00,VWS V14.01,2013-06-06 18:24:00,
2013-06-06 14:25:00,82.6,62.6,29.65,SSW,202,6.0,6.0,51,0.00,,---,0.00,VWS V14.01,2013-06-06 18:25:00,
2013-06-06 14:26:00,82.6,62.6,29.65,SSW,202,3.6,5.8,51,0.00,,---,0.00,VWS V14.01,2013-06-06 18:26:00,
2013-06-06 14:27:00,82.6,62.6,29.65,SSW,202,5.8,6.5,51,0.00,,---,0.00,VWS V14.01,2013-06-06 18:27:00,
2013-06-06 14:28:00,82.6,62.1,29.65,South,180,6.0,10.1,50,0.00,,---,0.00,VWS V14.01,2013-06-06 18:28:00,
2013-06-06 14:29:00,82.4,61.9,29.68,SSW,202,5.8,22.8,50,0.00,,---,0.00,VWS V14.01,2013-06-06 18:29:00,
2013-06-06 14:30:00,82.8,63.4,29.68,SSW,202,4.0,5.6,52,0.00,,---,0.00,VWS V14.01,2013-06-06 18:30:00,
2013-06-06 14:31:00,82.6,62.6,29.68,SSW,202,4.9,11.9,51,0.00,,---,0.00,VWS V14.01,2013-06-06 18:31:00,
2013-06-06 14:32:00,82.8,63.4,29.68,South,180,3.8,5.6,52,0.00,,---,0.00,VWS V14.01,2013-06-06 18:32:00,
2013-06-06 14:33:00,82.6,62.1,29.68,SSW,202,15.7,15.7,50,0.00,,---,0.00,VWS V14.01,2013-06-06 18:33:00,
2013-06-06 14:34:00,82.6,62.1,29.68,SSW,202,5.4,15.7,50,0.00,,---,0.00,VWS V14.01,2013-06-06 18:34:00,
2013-06-06 14:35:00,82.8,62.8,29.68,SSW,202,5.6,5.6,51,0.00,,---,0.00,VWS V14.01,2013-06-06 18:35:00,
2013-06-06 14:36:00,82.8,62.8,29.68,ESE,112,2.9,15.2,51,0.00,,---,0.00,VWS V14.01,2013-06-06 18:36:00,
2013-06-06 14:37:00,82.8,62.8,29.68,SW,225,3.6,5.6,51,0.00,,---,0.00,VWS V14.01,2013-06-06 18:37:00,
2013-06-06 14:38:00,82.6,62.6,29.68,SSW,202,18.1,18.1,51,0.00,,---,0.00,VWS V14.01,2013-06-06 18:38:00,
2013-06-06 14:39:00,82.2,62.3,29.68,SSE,158,9.6,18.8,51,0.00,,---,0.00,VWS V14.01,2013-06-06 18:39:00,
2013-06-06 14:40:00,82.4,62.5,29.68,SW,225,5.8,6.0,51,0.00,,---,0.00,VWS V14.01,2013-06-06 18:40:00,
2013-06-06 14:41:00,82.4,62.5,29.68,SW,225,6.0,10.1,51,0.00,,---,0.00,VWS V14.01,2013-06-06 18:41:00,
2013-06-06 14:42:00,82.4,62.5,29.68,SSW,202,4.0,6.0,51,0.00,,---,0.00,VWS V14.01,2013-06-06 18:42:00,
2013-06-06 14:43:00,82.6,62.6,29.68,SW,225,5.4,7.6,51,0.00,,---,0.00,VWS V14.01,2013-06-06 18:43:00,
2013-06-06 14:44:00,82.6,62.6,29.62,WSW,248,4.0,5.4,51,0.00,,---,0.00,VWS V14.01,2013-06-06 18:44:00,
2013-06-06 14:45:00,82.8,63.4,29.62,SSW,202,5.6,7.8,52,0.00,,---,0.00,VWS V14.01,2013-06-06 18:45:00,
2013-06-06 14:46:00,82.8,63.4,29.62,SSW,202,5.8,5.8,52,0.00,,---,0.00,VWS V14.01,2013-06-06 18:46:00,
2013-06-06 14:47:00,82.8,63.4,29.62,SSW,202,5.6,7.8,52,0.00,,---,0.00,VWS V14.01,2013-06-06 18:47:00,
2013-06-06 14:48:00,82.6,62.6,29.62,SSW,202,4.3,5.6,51,0.00,,---,0.00,VWS V14.01,2013-06-06 18:48:00,
2013-06-06 14:49:00,82.8,63.4,29.62,SSE,158,5.8,5.8,52,0.00,,---,0.00,VWS V14.01,2013-06-06 18:49:00,
2013-06-06 14:50:00,82.8,63.4,29.62,SSW,202,2.9,9.4,52,0.00,,---,0.00,VWS V14.01,2013-06-06 18:50:00,
2013-06-06 14:51:00,82.9,63.5,29.62,South,180,5.8,5.8,52,0.00,,---,0.00,VWS V14.01,2013-06-06 18:51:00,
2013-06-06 14:52:00,82.9,63.5,29.62,South,180,5.8,5.8,52,0.00,,---,0.00,VWS V14.01,2013-06-06 18:52:00,
2013-06-06 14:53:00,82.6,62.6,29.62,South,180,9.8,15.2,51,0.00,,---,0.00,VWS V14.01,2013-06-06 18:53:00,
2013-06-06 14:54:00,82.4,62.5,29.62,WSW,248,9.6,9.8,51,0.00,,---,0.00,VWS V14.01,2013-06-06 18:54:00,
2013-06-06 14:55:00,82.4,63.0,29.62,SW,225,1.1,10.3,52,0.00,,---,0.00,VWS V14.01,2013-06-06 18:55:00,
2013-06-06 14:56:00,82.6,63.2,29.62,South,180,5.4,5.4,52,0.00,,---,0.00,VWS V14.01,2013-06-06 18:56:00,
2013-06-06 14:57:00,82.6,63.2,29.62,South,180,5.4,5.4,52,0.00,,---,0.00,VWS V14.01,2013-06-06 18:57:00,
2013-06-06 14:58:00,82.6,63.2,29.62,SSE,158,3.6,9.8,52,0.00,,---,0.00,VWS V14.01,2013-06-06 18:58:00,
2013-06-06 14:59:00,82.6,63.2,29.68,WSW,248,9.2,9.2,52,0.00,,---,0.00,VWS V14.01,2013-06-06 18:59:00,
2013-06-06 15:00:00,82.8,62.8,29.68,SSW,202,2.5,9.2,51,0.00,,---,0.00,VWS V14.01,2013-06-06 19:00:00,
2013-06-06 15:01:00,82.9,63.0,29.68,West,270,6.0,6.0,51,0.00,,---,0.00,VWS V14.01,2013-06-06 19:01:00,
2013-06-06 15:02:00,82.9,63.0,29.68,SSE,158,3.8,6.0,51,0.00,,---,0.00,VWS V14.01,2013-06-06 19:02:00,
2013-06-06 15:03:00,82.6,62.1,29.68,SW,225,6.0,14.8,50,0.00,,---,0.00,VWS V14.01,2013-06-06 19:03:00,
2013-06-06 15:04:00,82.6,62.6,29.68,SSE,158,2.0,6.0,51,0.00,,---,0.00,VWS V14.01,2013-06-06 19:04:00,
2013-06-06 15:05:00,82.4,61.9,29.68,WSW,248,10.3,10.3,50,0.00,,---,0.00,VWS V14.01,2013-06-06 19:05:00,
2013-06-06 15:06:00,82.2,62.3,29.68,SSW,202,7.4,10.7,51,0.00,,---,0.00,VWS V14.01,2013-06-06 19:06:00,
2013-06-06 15:07:00,82.2,62.3,29.68,SSW,202,3.1,10.7,51,0.00,,---,0.00,VWS V14.01,2013-06-06 19:07:00,
2013-06-06 15:08:00,82.0,62.7,29.68,SW,225,13.2,13.2,52,0.00,,---,0.00,VWS V14.01,2013-06-06 19:08:00,
2013-06-06 15:09:00,82.0,61.6,29.68,SSW,202,4.9,13.2,50,0.00,,---,0.00,VWS V14.01,2013-06-06 19:09:00,
2013-06-06 15:10:00,82.2,62.3,29.68,WSW,248,0.0,4.9,51,0.00,,---,0.00,VWS V14.01,2013-06-06 19:10:00,
2013-06-06 15:11:00,82.2,62.3,29.68,SE,135,0.0,6.0,51,0.00,,---,0.00,VWS V14.01,2013-06-06 19:11:00,
2013-06-06 15:12:00,82.2,62.3,29.68,SE,135,0.0,6.0,51,0.00,,---,0.00,VWS V14.01,2013-06-06 19:12:00,
2013-06-06 15:13:00,82.4,63.0,29.68,SSW,202,13.0,13.0,52,0.00,,---,0.00,VWS V14.01,2013-06-06 19:13:00,
2013-06-06 15:14:00,81.9,62.0,29.68,South,180,6.0,13.0,51,0.00,,---,0.00,VWS V14.01,2013-06-06 19:14:00,
2013-06-06 15:15:00,81.9,62.5,29.68,SSE,158,11.0,11.0,52,0.00,,---,0.00,VWS V14.01,2013-06-06 19:15:00,
2013-06-06 15:16:00,81.7,62.4,29.68,SW,225,3.8,11.0,52,0.00,,---,0.00,VWS V14.01,2013-06-06 19:16:00,
2013-06-06 15:17:00,81.5,62.2,29.68,SSW,202,1.3,1.3,52,0.00,,---,0.00,VWS V14.01,2013-06-06 19:17:00,
2013-06-06 15:18:00,81.5,62.2,29.68,WSW,248,6.3,6.3,52,0.00,,---,0.00,VWS V14.01,2013-06-06 19:18:00,
2013-06-06 15:19:00,81.1,62.4,29.68,SSW,202,8.1,9.8,53,0.00,,---,0.00,VWS V14.01,2013-06-06 19:19:00,
2013-06-06 15:20:00,81.0,62.2,29.68,SSW,202,8.1,8.1,53,0.00,,---,0.00,VWS V14.01,2013-06-06 19:20:00,
2013-06-06 15:21:00,81.0,62.8,29.68,WNW,292,3.1,8.1,54,0.00,,---,0.00,VWS V14.01,2013-06-06 19:21:00,
2013-06-06 15:22:00,80.8,63.1,29.68,SSE,158,4.9,6.3,55,0.00,,---,0.00,VWS V14.01,2013-06-06 19:22:00,
2013-06-06 15:23:00,80.8,63.1,29.68,SSE,158,4.9,6.3,55,0.00,,---,0.00,VWS V14.01,2013-06-06 19:23:00,
2013-06-06 15:24:00,80.6,63.0,29.68,SSW,202,5.8,9.8,55,0.00,,---,0.00,VWS V14.01,2013-06-06 19:24:00,
2013-06-06 15:25:00,80.6,62.4,29.68,SSW,202,5.8,5.8,54,0.00,,---,0.00,VWS V14.01,2013-06-06 19:25:00,
2013-06-06 15:26:00,80.6,62.4,29.68,SW,225,13.0,13.0,54,0.00,,---,0.00,VWS V14.01,2013-06-06 19:26:00,
2013-06-06 15:27:00,80.6,61.9,29.68,SSW,202,6.0,14.8,53,0.00,,---,0.00,VWS V14.01,2013-06-06 19:27:00,
2013-06-06 15:28:00,80.6,61.9,29.68,SSW,202,6.0,14.8,53,0.00,,---,0.00,VWS V14.01,2013-06-06 19:28:00,
2013-06-06 15:29:00,80.8,62.1,29.65,SSW,202,6.0,6.0,53,0.00,,---,0.00,VWS V14.01,2013-06-06 19:29:00,
2013-06-06 15:30:00,81.3,63.1,29.65,ESE,112,3.8,6.0,54,0.00,,---,0.00,VWS V14.01,2013-06-06 19:30:00,
2013-06-06 15:31:00,81.1,62.4,29.65,SSW,202,7.6,7.6,53,0.00,,---,0.00,VWS V14.01,2013-06-06 19:31:00,
2013-06-06 15:32:00,81.7,62.9,29.65,SW,225,3.4,4.9,53,0.00,,---,0.00,VWS V14.01,2013-06-06 19:32:00,
2013-06-06 15:33:00,81.7,62.9,29.65,SW,225,3.4,4.9,53,0.00,,---,0.00,VWS V14.01,2013-06-06 19:33:00,
2013-06-06 15:34:00,82.0,62.7,29.65,SSE,158,6.9,6.9,52,0.00,,---,0.00,VWS V14.01,2013-06-06 19:34:00,
2013-06-06 15:35:00,82.0,62.7,29.65,SE,135,10.7,10.7,52,0.00,,---,0.00,VWS V14.01,2013-06-06 19:35:00,
2013-06-06 15:36:00,81.9,62.5,29.65,SSW,202,4.3,10.7,52,0.00,,---,0.00,VWS V14.01,2013-06-06 19:36:00,
2013-06-06 15:37:00,82.0,62.7,29.65,SSW,202,5.4,6.0,52,0.00,,---,0.00,VWS V14.01,2013-06-06 19:37:00,
2013-06-06 15:38:00,81.9,62.0,29.65,SW,225,3.8,5.4,51,0.00,,---,0.00,VWS V14.01,2013-06-06 19:38:00,
2013-06-06 15:39:00,81.9,62.5,29.65,SSE,158,3.6,3.6,52,0.00,,---,0.00,VWS V14.01,2013-06-06 19:39:00,
2013-06-06 15:40:00,81.9,62.5,29.65,SSE,158,3.6,3.6,52,0.00,,---,0.00,VWS V14.01,2013-06-06 19:40:00,
2013-06-06 15:41:00,81.9,62.5,29.65,SW,225,6.0,6.3,52,0.00,,---,0.00,VWS V14.01,2013-06-06 19:41:00,
2013-06-06 15:42:00,81.9,62.0,29.65,SSW,202,5.4,6.0,51,0.00,,---,0.00,VWS V14.01,2013-06-06 19:42:00,
2013-06-06 15:43:00,81.9,62.0,29.65,WSW,248,5.6,5.6,51,0.00,,---,0.00,VWS V14.01,2013-06-06 19:43:00,
2013-06-06 15:44:00,82.0,62.1,29.65,SSE,158,6.5,6.5,51,0.00,,---,0.00,VWS V14.01,2013-06-06 19:44:00,
2013-06-06 15:45:00,82.0,62.7,29.65,SSE,158,6.5,6.5,52,0.00,,---,0.00,VWS V14.01,2013-06-06 19:45:00,
2013-06-06 15:46:00,82.2,62.9,29.65,WSW,248,3.4,6.5,52,0.00,,---,0.00,VWS V14.01,2013-06-06 19:46:00,
2013-06-06 15:47:00,82.6,63.2,29.65,SSW,202,2.5,3.4,52,0.00,,---,0.00,VWS V14.01,2013-06-06 19:47:00,
2013-06-06 15:48:00,82.8,62.8,29.65,SSW,202,2.0,2.5,51,0.00,,---,0.00,VWS V14.01,2013-06-06 19:48:00,
2013-06-06 15:49:00,82.2,62.3,29.65,SSW,202,8.5,8.5,51,0.00,,---,0.00,VWS V14.01,2013-06-06 19:49:00,
2013-06-06 15:50:00,82.2,62.3,29.65,SSW,202,5.6,8.5,51,0.00,,---,0.00,VWS V14.01,2013-06-06 19:50:00,
2013-06-06 15:51:00,82.0,62.1,29.65,West,270,5.6,5.6,51,0.00,,---,0.00,VWS V14.01,2013-06-06 19:51:00,
2013-06-06 15:52:00,81.7,62.4,29.65,SSW,202,4.3,5.6,52,0.00,,---,0.00,VWS V14.01,2013-06-06 19:52:00,
2013-06-06 15:53:00,81.1,61.3,29.65,SSW,202,5.6,6.0,51,0.00,,---,0.00,VWS V14.01,2013-06-06 19:53:00,
2013-06-06 15:54:00,81.3,61.5,29.65,WSW,248,6.0,8.7,51,0.00,,---,0.00,VWS V14.01,2013-06-06 19:54:00,
2013-06-06 15:55:00,81.1,61.3,29.65,SSW,202,5.6,6.0,51,0.00,,---,0.00,VWS V14.01,2013-06-06 19:55:00,
2013-06-06 15:56:00,81.3,62.0,29.65,SSW,202,5.6,5.6,52,0.00,,---,0.00,VWS V14.01,2013-06-06 19:56:00,
2013-06-06 15:57:00,81.3,62.0,29.65,SSW,202,2.9,5.6,52,0.00,,---,0.00,VWS V14.01,2013-06-06 19:57:00,
2013-06-06 15:58:00,81.1,61.3,29.65,SSW,202,6.9,6.9,51,0.00,,---,0.00,VWS V14.01,2013-06-06 19:58:00,
2013-06-06 15:59:00,81.1,61.3,29.65,WSW,248,5.8,7.8,51,0.00,,---,0.00,VWS V14.01,2013-06-06 19:59:00,
2013-06-06 16:00:00,81.1,61.9,29.65,SSW,202,6.9,6.9,52,0.00,,---,0.00,VWS V14.01,2013-06-06 20:00:00,
2013-06-06 16:01:00,81.0,61.7,29.65,South,180,6.0,6.9,52,0.00,,---,0.00,VWS V14.01,2013-06-06 20:01:00,
2013-06-06 16:02:00,81.1,61.9,29.65,South,180,6.0,6.0,52,0.00,,---,0.00,VWS V14.01,2013-06-06 20:02:00,
2013-06-06 16:03:00,81.1,61.9,29.65,SSW,202,3.1,5.6,52,0.00,,---,0.00,VWS V14.01,2013-06-06 20:03:00,
2013-06-06 16:04:00,81.1,61.9,29.65,SSE,158,5.6,6.3,52,0.00,,---,0.00,VWS V14.01,2013-06-06 20:04:00,
2013-06-06 16:05:00,81.1,61.9,29.65,WSW,248,3.6,5.6,52,0.00,,---,0.00,VWS V14.01,2013-06-06 20:05:00,
2013-06-06 16:06:00,81.3,62.0,29.65,SSW,202,6.9,8.1,52,0.00,,---,0.00,VWS V14.01,2013-06-06 20:06:00,
2013-06-06 16:07:00,81.3,62.0,29.65,SSW,202,2.7,6.9,52,0.00,,---,0.00,VWS V14.01,2013-06-06 20:07:00,
2013-06-06 16:08:00,81.3,60.9,29.65,SSW,202,5.4,5.6,50,0.00,,---,0.00,VWS V14.01,2013-06-06 20:08:00,
2013-06-06 16:09:00,81.5,62.2,29.65,SSW,202,5.6,7.4,52,0.00,,---,0.00,VWS V14.01,2013-06-06 20:09:00,
2013-06-06 16:10:00,81.3,60.9,29.65,SSW,202,3.1,5.6,50,0.00,,---,0.00,VWS V14.01,2013-06-06 20:10:00,
2013-06-06 16:11:00,81.5,61.7,29.65,SSW,202,3.1,3.1,51,0.00,,---,0.00,VWS V14.01,2013-06-06 20:11:00,
2013-06-06 16:12:00,81.7,62.4,29.65,SSW,202,6.0,6.0,52,0.00,,---,0.00,VWS V14.01,2013-06-06 20:12:00,
2013-06-06 16:13:00,81.7,61.8,29.65,WNW,292,5.6,8.7,51,0.00,,---,0.00,VWS V14.01,2013-06-06 20:13:00,
2013-06-06 16:14:00,81.7,61.8,29.65,SW,225,8.7,8.7,51,0.00,,---,0.00,VWS V14.01,2013-06-06 20:14:00,
2013-06-06 16:15:00,81.7,61.2,29.65,SW,225,7.4,8.7,50,0.00,,---,0.00,VWS V14.01,2013-06-06 20:15:00,
2013-06-06 16:16:00,81.9,61.4,29.65,SSE,158,3.8,7.4,50,0.00,,---,0.00,VWS V14.01,2013-06-06 20:16:00,
2013-06-06 16:17:00,81.9,61.4,29.65,SSE,158,3.4,6.5,50,0.00,,---,0.00,VWS V14.01,2013-06-06 20:17:00,
2013-06-06 16:18:00,81.9,61.4,29.65,South,180,3.1,3.4,50,0.00,,---,0.00,VWS V14.01,2013-06-06 20:18:00,
2013-06-06 16:19:00,81.9,60.8,29.65,SW,225,8.1,8.1,49,0.00,,---,0.00,VWS V14.01,2013-06-06 20:19:00,
2013-06-06 16:20:00,81.9,60.8,29.65,SW,225,8.1,8.1,49,0.00,,---,0.00,VWS V14.01,2013-06-06 20:20:00,
2013-06-06 16:21:00,81.9,60.8,29.65,SSW,202,8.7,8.7,49,0.00,,---,0.00,VWS V14.01,2013-06-06 20:21:00,
2013-06-06 16:22:00,81.9,61.4,29.65,SSW,202,7.8,8.7,50,0.00,,---,0.00,VWS V14.01,2013-06-06 20:22:00,
2013-06-06 16:23:00,81.9,60.8,29.65,SSW,202,2.7,7.8,49,0.00,,---,0.00,VWS V14.01,2013-06-06 20:23:00,
2013-06-06 16:24:00,82.6,62.1,29.65,SSW,202,3.8,5.4,50,0.00,,---,0.00,VWS V14.01,2013-06-06 20:24:00,
2013-06-06 16:25:00,82.6,62.1,29.65,SSW,202,3.8,5.4,50,0.00,,---,0.00,VWS V14.01,2013-06-06 20:25:00,
2013-06-06 16:26:00,82.9,62.4,29.65,SSW,202,1.3,3.8,50,0.00,,---,0.00,VWS V14.01,2013-06-06 20:26:00,
2013-06-06 16:27:00,83.3,62.7,29.65,WNW,292,2.9,6.3,50,0.00,,---,0.00,VWS V14.01,2013-06-06 20:27:00,
2013-06-06 16:28:00,83.7,62.5,29.65,SSW,202,3.4,3.4,49,0.00,,---,0.00,VWS V14.01,2013-06-06 20:28:00,
2013-06-06 16:29:00,83.5,60.5,29.65,SSW,202,6.5,7.8,46,0.00,,---,0.00,VWS V14.01,2013-06-06 20:29:00,
2013-06-06 16:30:00,83.5,60.5,29.65,SSW,202,7.6,7.8,46,0.00,,---,0.00,VWS V14.01,2013-06-06 20:30:00,
2013-06-06 16:31:00,84.0,61.0,29.65,SW,225,5.6,7.6,46,0.00,,---,0.00,VWS V14.01,2013-06-06 20:31:00,
2013-06-06 16:32:00,84.4,60.1,29.65,SSW,202,7.8,7.8,44,0.00,,---,0.00,VWS V14.01,2013-06-06 20:32:00,
2013-06-06 16:33:00,84.4,60.1,29.65,SSW,202,4.3,7.8,44,0.00,,---,0.00,VWS V14.01,2013-06-06 20:33:00,
2013-06-06 16:34:00,84.4,60.7,29.65,SSW,202,11.9,11.9,45,0.00,,---,0.00,VWS V14.01,2013-06-06 20:34:00,
2013-06-06 16:35:00,84.4,60.7,29.65,SSW,202,11.9,11.9,45,0.00,,---,0.00,VWS V14.01,2013-06-06 20:35:00,
2013-06-06 16:36:00,84.7,60.4,29.65,SSW,202,4.9,11.9,44,0.00,,---,0.00,VWS V14.01,2013-06-06 20:36:00,
2013-06-06 16:37:00,84.9,60.0,29.65,SSE,158,2.9,8.1,43,0.00,,---,0.00,VWS V14.01,2013-06-06 20:37:00,
2013-06-06 16:38:00,85.1,60.1,29.65,SSW,202,4.0,7.4,43,0.00,,---,0.00,VWS V14.01,2013-06-06 20:38:00,
2013-06-06 16:39:00,85.8,60.1,29.65,SSW,202,3.8,3.8,42,0.00,,---,0.00,VWS V14.01,2013-06-06 20:39:00,
2013-06-06 16:40:00,85.8,60.1,29.65,SSW,202,3.8,3.8,42,0.00,,---,0.00,VWS V14.01,2013-06-06 20:40:00,
2013-06-06 16:41:00,85.8,60.1,29.65,SW,225,3.4,3.8,42,0.00,,---,0.00,VWS V14.01,2013-06-06 20:41:00,
2013-06-06 16:42:00,85.8,59.4,29.65,SSW,202,5.6,7.8,41,0.00,,---,0.00,VWS V14.01,2013-06-06 20:42:00,
2013-06-06 16:43:00,86.0,59.6,29.65,SW,225,8.5,8.5,41,0.00,,---,0.00,VWS V14.01,2013-06-06 20:43:00,
2013-06-06 16:44:00,84.4,58.1,29.65,SSE,158,6.0,6.0,41,0.00,,---,0.00,VWS V14.01,2013-06-06 20:44:00,
2013-06-06 16:45:00,84.4,58.1,29.65,SSW,202,5.6,9.8,41,0.00,,---,0.00,VWS V14.01,2013-06-06 20:45:00,
2013-06-06 16:46:00,84.0,58.5,29.65,SSW,202,3.4,6.0,42,0.00,,---,0.00,VWS V14.01,2013-06-06 20:46:00,
2013-06-06 16:47:00,84.0,58.5,29.65,SSE,158,1.6,3.8,42,0.00,,---,0.00,VWS V14.01,2013-06-06 20:47:00,
2013-06-06 16:48:00,83.5,58.7,29.65,WSW,248,10.1,10.1,43,0.00,,---,0.00,VWS V14.01,2013-06-06 20:48:00,
2013-06-06 16:49:00,82.6,59.1,29.65,NNE,22,2.0,2.0,45,0.00,,---,0.00,VWS V14.01,2013-06-06 20:49:00,
2013-06-06 16:50:00,82.6,58.5,29.65,NNE,22,2.0,4.0,44,0.00,,---,0.00,VWS V14.01,2013-06-06 20:50:00,
2013-06-06 16:51:00,82.6,59.1,29.65,NNE,22,2.0,2.0,45,0.00,,---,0.00,VWS V14.01,2013-06-06 20:51:00,
2013-06-06 16:52:00,81.0,60.6,29.65,NNE,22,2.0,2.0,50,0.00,,---,0.00,VWS V14.01,2013-06-06 20:52:00,
2013-06-06 16:53:00,80.4,61.7,29.65,NNE,22,2.0,2.0,53,0.00,,---,0.00,VWS V14.01,2013-06-06 20:53:00,
2013-06-06 16:54:00,80.4,61.7,29.65,SW,225,2.2,2.2,53,0.00,,---,0.00,VWS V14.01,2013-06-06 20:54:00,
2013-06-06 16:55:00,80.4,61.7,29.65,SW,225,2.2,2.2,53,0.00,,---,0.00,VWS V14.01,2013-06-06 20:55:00,
2013-06-06 16:56:00,80.4,61.7,29.65,SW,225,2.2,2.2,53,0.00,,---,0.00,VWS V14.01,2013-06-06 20:56:00,
2013-06-06 16:57:00,79.9,64.8,29.65,WNW,292,2.0,4.3,60,0.00,,---,0.00,VWS V14.01,2013-06-06 20:57:00,
2013-06-06 16:58:00,80.1,65.4,29.65,South,180,5.6,5.6,61,0.00,,---,0.00,VWS V14.01,2013-06-06 20:58:00,
2013-06-06 16:59:00,80.2,66.1,29.65,WNW,292,5.6,5.6,62,0.00,,---,0.00,VWS V14.01,2013-06-06 20:59:00,
2013-06-06 17:00:00,80.2,66.1,29.65,WSW,248,2.7,2.7,62,0.00,,---,0.00,VWS V14.01,2013-06-06 21:00:00,
2013-06-06 17:01:00,80.6,65.4,29.65,WSW,248,2.7,2.7,60,0.00,,---,0.00,VWS V14.01,2013-06-06 21:01:00,
2013-06-06 17:02:00,80.6,65.4,29.65,WSW,248,2.7,2.7,60,0.00,,---,0.00,VWS V14.01,2013-06-06 21:02:00,
2013-06-06 17:03:00,81.0,66.3,29.65,WSW,248,4.0,4.0,61,0.00,,---,0.00,VWS V14.01,2013-06-06 21:03:00,
2013-06-06 17:04:00,81.0,66.3,29.65,SW,225,2.5,6.3,61,0.00,,---,0.00,VWS V14.01,2013-06-06 21:04:00,
2013-06-06 17:05:00,80.6,63.5,29.65,WNW,292,2.9,3.4,56,0.00,,---,0.00,VWS V14.01,2013-06-06 21:05:00,
2013-06-06 17:06:00,80.6,63.5,29.65,WNW,292,2.9,3.4,56,0.00,,---,0.00,VWS V14.01,2013-06-06 21:06:00,
2013-06-06 17:07:00,80.4,63.3,29.65,North,0,3.6,5.4,56,0.00,,---,0.00,VWS V14.01,2013-06-06 21:07:00,
2013-06-06 17:08:00,80.2,63.1,29.65,NW,315,2.0,3.6,56,0.00,,---,0.00,VWS V14.01,2013-06-06 21:08:00,
2013-06-06 17:09:00,80.1,63.0,29.65,WNW,292,6.0,6.5,56,0.00,,---,0.00,VWS V14.01,2013-06-06 21:09:00,
2013-06-06 17:10:00,79.7,61.6,29.65,SSE,158,4.0,7.6,54,0.00,,---,0.00,VWS V14.01,2013-06-06 21:10:00,
2013-06-06 17:11:00,79.7,61.6,29.65,WSW,248,2.0,7.6,54,0.00,,---,0.00,VWS V14.01,2013-06-06 21:11:00,
2013-06-06 17:12:00,79.5,61.4,29.65,SSW,202,2.9,3.6,54,0.00,,---,0.00,VWS V14.01,2013-06-06 21:12:00,
2013-06-06 17:13:00,79.5,61.4,29.65,WSW,248,6.5,6.5,54,0.00,,---,0.00,VWS V14.01,2013-06-06 21:13:00,
2013-06-06 17:14:00,79.3,60.7,29.65,SSW,202,5.6,6.5,53,0.00,,---,0.00,VWS V14.01,2013-06-06 21:14:00,
2013-06-06 17:15:00,79.3,61.3,29.65,West,270,0.9,3.1,54,0.00,,---,0.00,VWS V14.01,2013-06-06 21:15:00,
2013-06-06 17:16:00,79.3,61.3,29.65,West,270,0.9,3.1,54,0.00,,---,0.00,VWS V14.01,2013-06-06 21:16:00,
2013-06-06 17:17:00,79.5,62.0,29.65,WNW,292,2.7,2.7,55,0.00,,---,0.00,VWS V14.01,2013-06-06 21:17:00,
2013-06-06 17:18:00,79.5,62.0,29.65,WSW,248,2.0,4.0,55,0.00,,---,0.00,VWS V14.01,2013-06-06 21:18:00,
2013-06-06 17:19:00,79.3,60.7,29.65,SSW,202,1.6,3.1,53,0.00,,---,0.00,VWS V14.01,2013-06-06 21:19:00,
2013-06-06 17:20:00,79.3,61.3,29.65,WSW,248,4.3,4.3,54,0.00,,---,0.00,VWS V14.01,2013-06-06 21:20:00,
2013-06-06 17:21:00,79.3,61.3,29.65,SW,225,2.7,4.3,54,0.00,,---,0.00,VWS V14.01,2013-06-06 21:21:00,
2013-06-06 17:22:00,79.3,60.2,29.65,SW,225,1.1,3.4,52,0.00,,---,0.00,VWS V14.01,2013-06-06 21:22:00,
2013-06-06 17:23:00,79.5,59.8,29.65,SSW,202,5.8,5.8,51,0.00,,---,0.00,VWS V14.01,2013-06-06 21:23:00,
2013-06-06 17:24:00,79.5,60.4,29.65,SSW,202,2.7,5.8,52,0.00,,---,0.00,VWS V14.01,2013-06-06 21:24:00,
2013-06-06 17:25:00,79.5,60.4,29.65,WSW,248,3.6,3.6,52,0.00,,---,0.00,VWS V14.01,2013-06-06 21:25:00,
2013-06-06 17:26:00,79.5,60.4,29.65,WSW,248,3.6,3.6,52,0.00,,---,0.00,VWS V14.01,2013-06-06 21:26:00,
2013-06-06 17:27:00,79.5,60.4,29.65,SSW,202,1.6,3.6,52,0.00,,---,0.00,VWS V14.01,2013-06-06 21:27:00,
2013-06-06 17:28:00,79.3,60.2,29.65,SSW,202,2.2,2.5,52,0.00,,---,0.00,VWS V14.01,2013-06-06 21:28:00,
2013-06-06 17:29:00,79.5,60.4,29.65,SSW,202,2.2,2.2,52,0.00,,---,0.00,VWS V14.01,2013-06-06 21:29:00,
2013-06-06 17:30:00,79.5,60.4,29.65,SSW,202,2.5,5.6,52,0.00,,---,0.00,VWS V14.01,2013-06-06 21:30:00,
2013-06-06 17:31:00,79.5,60.4,29.65,SSW,202,2.5,5.6,52,0.00,,---,0.00,VWS V14.01,2013-06-06 21:31:00,
2013-06-06 17:32:00,79.3,59.7,29.65,West,270,3.4,3.4,51,0.00,,---,0.00,VWS V14.01,2013-06-06 21:32:00,
2013-06-06 17:33:00,79.3,59.7,29.65,NW,315,1.6,3.4,51,0.00,,---,0.00,VWS V14.01,2013-06-06 21:33:00,
2013-06-06 17:34:00,79.3,60.2,29.65,SSW,202,2.5,2.5,52,0.00,,---,0.00,VWS V14.01,2013-06-06 21:34:00,
2013-06-06 17:35:00,79.2,60.0,29.65,SW,225,2.7,3.8,52,0.00,,---,0.00,VWS V14.01,2013-06-06 21:35:00,
2013-06-06 17:36:00,79.2,60.0,29.65,SW,225,2.7,3.8,52,0.00,,---,0.00,VWS V14.01,2013-06-06 21:36:00,
2013-06-06 17:37:00,79.2,60.0,29.65,ESE,112,1.3,2.7,52,0.00,,---,0.00,VWS V14.01,2013-06-06 21:37:00,
2013-06-06 17:38:00,79.2,60.0,29.65,SW,225,1.1,8.1,52,0.00,,---,0.00,VWS V14.01,2013-06-06 21:38:00,
2013-06-06 17:39:00,79.2,60.0,29.65,WSW,248,2.0,2.0,52,0.00,,---,0.00,VWS V14.01,2013-06-06 21:39:00,
2013-06-06 17:40:00,79.5,60.9,29.65,WSW,248,3.4,3.4,53,0.00,,---,0.00,VWS V14.01,2013-06-06 21:40:00,
2013-06-06 17:41:00,79.5,60.9,29.65,West,270,3.1,3.4,53,0.00,,---,0.00,VWS V14.01,2013-06-06 21:41:00,
2013-06-06 17:42:00,79.5,60.9,29.65,SSW,202,4.0,4.0,53,0.00,,---,0.00,VWS V14.01,2013-06-06 21:42:00,
2013-06-06 17:43:00,79.5,60.9,29.65,SW,225,2.0,4.3,53,0.00,,---,0.00,VWS V14.01,2013-06-06 21:43:00,
2013-06-06 17:44:00,79.5,60.4,29.68,NNW,338,3.6,3.6,52,0.00,,---,0.00,VWS V14.01,2013-06-06 21:44:00,
2013-06-06 17:45:00,79.5,60.4,29.68,SW,225,5.4,5.4,52,0.00,,---,0.00,VWS V14.01,2013-06-06 21:45:00,
2013-06-06 17:46:00,79.5,60.4,29.68,SW,225,5.4,5.4,52,0.00,,---,0.00,VWS V14.01,2013-06-06 21:46:00,
2013-06-06 17:47:00,79.5,59.8,29.68,SW,225,2.5,5.4,51,0.00,,---,0.00,VWS V14.01,2013-06-06 21:47:00,
2013-06-06 17:48:00,79.5,59.3,29.68,SW,225,2.5,4.3,50,0.00,,---,0.00,VWS V14.01,2013-06-06 21:48:00,
2013-06-06 17:49:00,79.5,59.3,29.68,ESE,112,12.3,12.3,50,0.00,,---,0.00,VWS V14.01,2013-06-06 21:49:00,
2013-06-06 17:50:00,79.3,59.1,29.68,ESE,112,2.5,6.0,50,0.00,,---,0.00,VWS V14.01,2013-06-06 21:50:00,
2013-06-06 17:51:00,79.3,59.1,29.68,ESE,112,2.5,6.0,50,0.00,,---,0.00,VWS V14.01,2013-06-06 21:51:00,
2013-06-06 17:52:00,79.3,59.1,29.68,West,270,1.3,2.7,50,0.00,,---,0.00,VWS V14.01,2013-06-06 21:52:00,
2013-06-06 17:53:00,79.3,59.1,29.68,WSW,248,0.0,3.6,50,0.00,,---,0.00,VWS V14.01,2013-06-06 21:53:00,
2013-06-06 17:54:00,79.2,59.5,29.68,SW,225,3.1,3.1,51,0.00,,---,0.00,VWS V14.01,2013-06-06 21:54:00,
2013-06-06 17:55:00,79.2,59.5,29.68,North,0,1.1,2.5,51,0.00,,---,0.00,VWS V14.01,2013-06-06 21:55:00,
2013-06-06 17:56:00,79.2,59.5,29.68,North,0,1.1,2.5,51,0.00,,---,0.00,VWS V14.01,2013-06-06 21:56:00,
2013-06-06 17:57:00,79.3,59.7,29.68,WNW,292,0.9,2.5,51,0.00,,---,0.00,VWS V14.01,2013-06-06 21:57:00,
2013-06-06 17:58:00,79.5,59.8,29.68,NNW,338,1.3,2.0,51,0.00,,---,0.00,VWS V14.01,2013-06-06 21:58:00,
2013-06-06 17:59:00,79.5,59.8,29.68,NW,315,4.3,5.8,51,0.00,,---,0.00,VWS V14.01,2013-06-06 21:59:00,
2013-06-06 18:00:00,79.2,58.9,29.68,West,270,3.4,3.4,50,0.00,,---,0.00,VWS V14.01,2013-06-06 22:00:00,
2013-06-06 18:01:00,79.2,58.9,29.68,West,270,3.4,3.4,50,0.00,,---,0.00,VWS V14.01,2013-06-06 22:01:00,
2013-06-06 18:02:00,79.2,58.9,29.68,SW,225,2.0,3.4,50,0.00,,---,0.00,VWS V14.01,2013-06-06 22:02:00,
2013-06-06 18:03:00,79.0,58.8,29.68,SSW,202,1.3,6.5,50,0.00,,---,0.00,VWS V14.01,2013-06-06 22:03:00,
2013-06-06 18:04:00,79.2,59.5,29.68,ESE,112,0.9,2.0,51,0.00,,---,0.00,VWS V14.01,2013-06-06 22:04:00,
2013-06-06 18:05:00,79.2,59.5,29.68,NW,315,6.0,9.6,51,0.00,,---,0.00,VWS V14.01,2013-06-06 22:05:00,
2013-06-06 18:06:00,79.2,59.5,29.68,NW,315,6.0,9.6,51,0.00,,---,0.00,VWS V14.01,2013-06-06 22:06:00,
2013-06-06 18:07:00,79.2,60.0,29.68,West,270,1.1,6.0,52,0.00,,---,0.00,VWS V14.01,2013-06-06 22:07:00,
2013-06-06 18:08:00,79.3,60.2,29.68,ESE,112,4.0,4.0,52,0.00,,---,0.00,VWS V14.01,2013-06-06 22:08:00,
2013-06-06 18:09:00,79.3,60.7,29.68,WSW,248,0.0,4.0,53,0.00,,---,0.00,VWS V14.01,2013-06-06 22:09:00,
2013-06-06 18:10:00,79.3,59.7,29.68,SW,225,2.5,13.0,51,0.00,,---,0.00,VWS V14.01,2013-06-06 22:10:00,
2013-06-06 18:11:00,79.3,59.7,29.68,SW,225,2.5,13.0,51,0.00,,---,0.00,VWS V14.01,2013-06-06 22:11:00,
2013-06-06 18:12:00,79.3,59.7,29.68,WSW,248,2.5,2.5,51,0.00,,---,0.00,VWS V14.01,2013-06-06 22:12:00,
2013-06-06 18:13:00,79.3,59.1,29.68,WSW,248,3.8,7.8,50,0.00,,---,0.00,VWS V14.01,2013-06-06 22:13:00,
2013-06-06 18:14:00,79.3,59.1,29.68,SSE,158,2.0,4.9,50,0.00,,---,0.00,VWS V14.01,2013-06-06 22:14:00,
2013-06-06 18:15:00,79.2,58.4,29.68,WNW,292,3.4,6.3,49,0.00,,---,0.00,VWS V14.01,2013-06-06 22:15:00,
2013-06-06 18:16:00,79.2,58.4,29.68,WNW,292,3.4,6.3,49,0.00,,---,0.00,VWS V14.01,2013-06-06 22:16:00,
2013-06-06 18:17:00,79.2,58.4,29.68,NW,315,9.8,9.8,49,0.00,,---,0.00,VWS V14.01,2013-06-06 22:17:00,
2013-06-06 18:18:00,79.3,58.5,29.68,SSE,158,4.3,9.8,49,0.00,,---,0.00,VWS V14.01,2013-06-06 22:18:00,
2013-06-06 18:19:00,79.2,58.4,29.68,SW,225,3.4,5.6,49,0.00,,---,0.00,VWS V14.01,2013-06-06 22:19:00,
2013-06-06 18:20:00,79.2,58.9,29.68,WNW,292,3.6,4.9,50,0.00,,---,0.00,VWS V14.01,2013-06-06 22:20:00,
2013-06-06 18:21:00,79.2,58.9,29.68,WNW,292,3.6,4.9,50,0.00,,---,0.00,VWS V14.01,2013-06-06 22:21:00,
2013-06-06 18:22:00,79.2,58.9,29.68,West,270,1.3,4.3,50,0.00,,---,0.00,VWS V14.01,2013-06-06 22:22:00,
2013-06-06 18:23:00,79.0,58.8,29.68,NNE,22,2.7,2.7,50,0.00,,---,0.00,VWS V14.01,2013-06-06 22:23:00,
2013-06-06 18:24:00,79.0,58.2,29.68,WSW,248,2.5,10.3,49,0.00,,---,0.00,VWS V14.01,2013-06-06 22:24:00,
2013-06-06 18:25:00,79.0,57.6,29.68,WNW,292,7.4,7.4,48,0.00,,---,0.00,VWS V14.01,2013-06-06 22:25:00,
2013-06-06 18:26:00,79.0,57.6,29.68,WNW,292,7.4,7.4,48,0.00,,---,0.00,VWS V14.01,2013-06-06 22:26:00,
2013-06-06 18:27:00,78.8,57.5,29.68,SSW,202,2.7,7.4,48,0.00,,---,0.00,VWS V14.01,2013-06-06 22:27:00,
2013-06-06 18:28:00,78.8,58.0,29.68,NNW,338,10.5,10.5,49,0.00,,---,0.00,VWS V14.01,2013-06-06 22:28:00,
2013-06-06 18:29:00,78.8,57.5,29.68,NW,315,2.9,10.5,48,0.00,,---,0.00,VWS V14.01,2013-06-06 22:29:00,
2013-06-06 18:30:00,78.8,58.6,29.68,WSW,248,3.4,3.4,50,0.00,,---,0.00,VWS V14.01,2013-06-06 22:30:00,
2013-06-06 18:31:00,78.8,58.6,29.68,West,270,3.6,3.6,50,0.00,,---,0.00,VWS V14.01,2013-06-06 22:31:00,
2013-06-06 18:32:00,79.0,58.8,29.68,NNW,338,1.3,4.9,50,0.00,,---,0.00,VWS V14.01,2013-06-06 22:32:00,
2013-06-06 18:33:00,79.2,58.9,29.68,South,180,0.0,5.6,50,0.00,,---,0.00,VWS V14.01,2013-06-06 22:33:00,
2013-06-06 18:34:00,79.2,58.9,29.68,SSW,202,3.8,3.8,50,0.00,,---,0.00,VWS V14.01,2013-06-06 22:34:00,
2013-06-06 18:35:00,79.3,59.1,29.68,South,180,1.1,3.6,50,0.00,,---,0.00,VWS V14.01,2013-06-06 22:35:00,
2013-06-06 18:36:00,79.3,59.1,29.68,South,180,1.1,3.6,50,0.00,,---,0.00,VWS V14.01,2013-06-06 22:36:00,
2013-06-06 18:37:00,79.3,59.1,29.68,SSW,202,3.1,4.3,50,0.00,,---,0.00,VWS V14.01,2013-06-06 22:37:00,
2013-06-06 18:38:00,79.2,58.9,29.68,West,270,3.4,3.8,50,0.00,,---,0.00,VWS V14.01,2013-06-06 22:38:00,
2013-06-06 18:39:00,79.2,58.4,29.68,WNW,292,3.6,3.6,49,0.00,,---,0.00,VWS V14.01,2013-06-06 22:39:00,
2013-06-06 18:40:00,79.0,58.2,29.68,SSW,202,2.7,9.4,49,0.00,,---,0.00,VWS V14.01,2013-06-06 22:40:00,
2013-06-06 18:41:00,79.0,58.2,29.68,SSW,202,2.7,9.4,49,0.00,,---,0.00,VWS V14.01,2013-06-06 22:41:00,
2013-06-06 18:42:00,79.2,58.9,29.68,SSW,202,2.2,2.7,50,0.00,,---,0.00,VWS V14.01,2013-06-06 22:42:00,
2013-06-06 18:43:00,79.2,58.9,29.68,SSE,158,3.4,3.4,50,0.00,,---,0.00,VWS V14.01,2013-06-06 22:43:00,
2013-06-06 18:44:00,79.2,58.9,29.68,SW,225,4.3,4.3,50,0.00,,---,0.00,VWS V14.01,2013-06-06 22:44:00,
2013-06-06 18:45:00,79.0,58.2,29.68,WSW,248,1.3,3.4,49,0.00,,---,0.00,VWS V14.01,2013-06-06 22:45:00,
2013-06-06 18:46:00,79.0,58.2,29.68,WSW,248,1.3,3.4,49,0.00,,---,0.00,VWS V14.01,2013-06-06 22:46:00,
2013-06-06 18:47:00,78.8,58.6,29.68,SSW,202,2.5,3.4,50,0.00,,---,0.00,VWS V14.01,2013-06-06 22:47:00,
2013-06-06 18:48:00,78.8,58.6,29.68,WSW,248,1.3,3.1,50,0.00,,---,0.00,VWS V14.01,2013-06-06 22:48:00,
2013-06-06 18:49:00,78.8,58.6,29.68,NW,315,8.1,8.1,50,0.00,,---,0.00,VWS V14.01,2013-06-06 22:49:00,
2013-06-06 18:50:00,78.6,59.0,29.68,SSW,202,3.4,9.6,51,0.00,,---,0.00,VWS V14.01,2013-06-06 22:50:00,
2013-06-06 18:51:00,78.6,59.0,29.68,SSW,202,3.4,9.6,51,0.00,,---,0.00,VWS V14.01,2013-06-06 22:51:00,
2013-06-06 18:52:00,78.6,59.0,29.68,WNW,292,2.0,4.3,51,0.00,,---,0.00,VWS V14.01,2013-06-06 22:52:00,
2013-06-06 18:53:00,78.4,58.8,29.68,South,180,3.8,3.8,51,0.00,,---,0.00,VWS V14.01,2013-06-06 22:53:00,
2013-06-06 18:54:00,78.4,58.8,29.68,SSE,158,2.0,3.8,51,0.00,,---,0.00,VWS V14.01,2013-06-06 22:54:00,
2013-06-06 18:55:00,78.4,59.4,29.68,SSW,202,0.0,1.6,52,0.00,,---,0.00,VWS V14.01,2013-06-06 22:55:00,
2013-06-06 18:56:00,78.4,59.4,29.68,SW,225,0.0,1.6,52,0.00,,---,0.00,VWS V14.01,2013-06-06 22:56:00,
2013-06-06 18:57:00,78.4,59.9,29.68,SSE,158,1.6,2.0,53,0.00,,---,0.00,VWS V14.01,2013-06-06 22:57:00,
2013-06-06 18:58:00,78.4,59.9,29.68,WSW,248,2.2,6.5,53,0.00,,---,0.00,VWS V14.01,2013-06-06 22:58:00,
2013-06-06 18:59:00,78.4,59.9,29.68,SSW,202,1.6,9.8,53,0.00,,---,0.00,VWS V14.01,2013-06-06 22:59:00,
2013-06-06 19:00:00,78.4,60.4,29.68,WSW,248,0.0,2.0,54,0.00,,---,0.00,VWS V14.01,2013-06-06 23:00:00,
2013-06-06 19:01:00,78.4,60.4,29.68,WSW,248,2.0,2.7,54,0.00,,---,0.00,VWS V14.01,2013-06-06 23:01:00,
2013-06-06 19:02:00,78.4,60.4,29.68,SW,225,2.5,2.5,54,0.00,,---,0.00,VWS V14.01,2013-06-06 23:02:00,
2013-06-06 19:03:00,78.4,60.4,29.68,SSW,202,0.0,2.7,54,0.00,,---,0.00,VWS V14.01,2013-06-06 23:03:00,
2013-06-06 19:04:00,78.4,60.4,29.68,WSW,248,0.9,2.2,54,0.00,,---,0.00,VWS V14.01,2013-06-06 23:04:00,
2013-06-06 19:05:00,78.4,61.0,29.68,WNW,292,2.0,2.0,55,0.00,,---,0.00,VWS V14.01,2013-06-06 23:05:00,
2013-06-06 19:06:00,78.4,61.0,29.68,SSW,202,1.1,2.7,55,0.00,,---,0.00,VWS V14.01,2013-06-06 23:06:00,
2013-06-06 19:07:00,78.4,61.0,29.68,WSW,248,4.3,4.9,55,0.00,,---,0.00,VWS V14.01,2013-06-06 23:07:00,
2013-06-06 19:09:00,78.3,60.8,29.68,WSW,248,2.5,2.9,55,0.00,,---,0.00,VWS V14.01,2013-06-06 23:09:00,
2013-06-06 19:10:00,78.1,60.6,29.68,SSW,202,1.1,1.6,55,0.00,,---,0.00,VWS V14.01,2013-06-06 23:10:00,
2013-06-06 19:11:00,78.1,60.6,29.68,SSE,158,1.6,2.2,55,0.00,,---,0.00,VWS V14.01,2013-06-06 23:11:00,
2013-06-06 19:12:00,78.1,60.6,29.68,North,0,0.0,1.6,55,0.00,,---,0.00,VWS V14.01,2013-06-06 23:12:00,
2013-06-06 19:13:00,78.1,60.6,29.68,SE,135,1.1,1.1,55,0.00,,---,0.00,VWS V14.01,2013-06-06 23:13:00,
2013-06-06 19:14:00,78.1,60.6,29.65,NNW,338,0.9,4.9,55,0.00,,---,0.00,VWS V14.01,2013-06-06 23:14:00,
2013-06-06 19:15:00,78.1,60.6,29.65,WNW,292,4.9,4.9,55,0.00,,---,0.00,VWS V14.01,2013-06-06 23:15:00,
2013-06-06 19:17:00,77.9,60.5,29.65,WSW,248,2.0,4.9,55,0.00,,---,0.00,VWS V14.01,2013-06-06 23:17:00,
2013-06-06 19:18:00,77.9,60.5,29.65,SW,225,0.9,2.0,55,0.00,,---,0.00,VWS V14.01,2013-06-06 23:18:00,
2013-06-06 19:19:00,77.9,60.5,29.65,West,270,2.7,2.7,55,0.00,,---,0.00,VWS V14.01,2013-06-06 23:19:00,
2013-06-06 19:20:00,77.7,60.3,29.65,SSW,202,1.1,1.1,55,0.00,,---,0.00,VWS V14.01,2013-06-06 23:20:00,
2013-06-06 19:21:00,77.7,60.3,29.65,SSW,202,1.1,1.1,55,0.00,,---,0.00,VWS V14.01,2013-06-06 23:21:00,
2013-06-06 19:22:00,77.7,60.3,29.65,SSW,202,1.1,1.1,55,0.00,,---,0.00,VWS V14.01,2013-06-06 23:22:00,
2013-06-06 19:23:00,77.7,60.3,29.65,SW,225,2.2,6.3,55,0.00,,---,0.00,VWS V14.01,2013-06-06 23:23:00,
2013-06-06 19:24:00,77.5,60.6,29.65,WSW,248,2.5,2.5,56,0.00,,---,0.00,VWS V14.01,2013-06-06 23:24:00,
2013-06-06 19:25:00,77.5,60.6,29.65,WSW,248,2.5,2.5,56,0.00,,---,0.00,VWS V14.01,2013-06-06 23:25:00,
2013-06-06 19:26:00,77.5,60.6,29.65,WSW,248,2.5,2.5,56,0.00,,---,0.00,VWS V14.01,2013-06-06 23:26:00,
2013-06-06 19:27:00,77.5,60.6,29.65,WSW,248,2.5,2.5,56,0.00,,---,0.00,VWS V14.01,2013-06-06 23:27:00,
2013-06-06 19:28:00,77.5,60.6,29.65,WSW,248,0.0,2.5,56,0.00,,---,0.00,VWS V14.01,2013-06-06 23:28:00,
2013-06-06 19:29:00,77.7,60.8,29.68,WSW,248,0.9,0.9,56,0.00,,---,0.00,VWS V14.01,2013-06-06 23:29:00,
2013-06-06 19:30:00,77.9,61.0,29.68,SW,225,0.0,0.0,56,0.00,,---,0.00,VWS V14.01,2013-06-06 23:30:00,
2013-06-06 19:31:00,77.9,61.0,29.68,SW,225,0.0,2.0,56,0.00,,---,0.00,VWS V14.01,2013-06-06 23:31:00,
2013-06-06 19:32:00,77.9,61.0,29.68,NE,45,0.0,0.0,56,0.00,,---,0.00,VWS V14.01,2013-06-06 23:32:00,
2013-06-06 19:33:00,77.9,61.0,29.68,NNW,338,1.1,1.6,56,0.00,,---,0.00,VWS V14.01,2013-06-06 23:33:00,
2013-06-06 19:34:00,77.9,61.0,29.68,SW,225,1.6,1.6,56,0.00,,---,0.00,VWS V14.01,2013-06-06 23:34:00,
2013-06-06 19:35:00,77.9,61.0,29.68,West,270,3.1,3.1,56,0.00,,---,0.00,VWS V14.01,2013-06-06 23:35:00,
2013-06-06 19:36:00,77.9,61.5,29.68,West,270,3.1,3.1,57,0.00,,---,0.00,VWS V14.01,2013-06-06 23:36:00,
2013-06-06 19:37:00,77.9,61.0,29.68,SSW,202,2.9,3.4,56,0.00,,---,0.00,VWS V14.01,2013-06-06 23:37:00,
2013-06-06 19:38:00,77.9,61.0,29.68,SW,225,3.4,5.4,56,0.00,,---,0.00,VWS V14.01,2013-06-06 23:38:00,
2013-06-06 19:39:00,77.7,60.8,29.68,NNW,338,1.1,3.4,56,0.00,,---,0.00,VWS V14.01,2013-06-06 23:39:00,
2013-06-06 19:40:00,77.7,61.3,29.68,West,270,1.6,6.9,57,0.00,,---,0.00,VWS V14.01,2013-06-06 23:40:00,
2013-06-06 19:41:00,77.7,61.3,29.68,SSW,202,6.9,6.9,57,0.00,,---,0.00,VWS V14.01,2013-06-06 23:41:00,
2013-06-06 19:42:00,77.7,61.3,29.68,NW,315,2.0,6.9,57,0.00,,---,0.00,VWS V14.01,2013-06-06 23:42:00,
2013-06-06 19:43:00,77.7,61.3,29.68,SSW,202,2.7,2.9,57,0.00,,---,0.00,VWS V14.01,2013-06-06 23:43:00,
2013-06-06 19:44:00,77.5,60.6,29.68,WSW,248,4.3,4.3,56,0.00,,---,0.00,VWS V14.01,2013-06-06 23:44:00,
2013-06-06 19:45:00,77.5,60.6,29.68,SSW,202,3.1,6.3,56,0.00,,---,0.00,VWS V14.01,2013-06-06 23:45:00,
2013-06-06 19:46:00,77.5,61.1,29.68,NE,45,1.3,4.3,57,0.00,,---,0.00,VWS V14.01,2013-06-06 23:46:00,
2013-06-06 19:47:00,77.5,60.6,29.68,SSW,202,2.0,6.3,56,0.00,,---,0.00,VWS V14.01,2013-06-06 23:47:00,
2013-06-06 19:48:00,77.5,60.6,29.68,North,0,2.0,2.0,56,0.00,,---,0.00,VWS V14.01,2013-06-06 23:48:00,
2013-06-06 19:49:00,77.5,61.1,29.68,NNW,338,5.8,5.8,57,0.00,,---,0.00,VWS V14.01,2013-06-06 23:49:00,
2013-06-06 19:50:00,77.5,61.1,29.68,WSW,248,0.0,0.0,57,0.00,,---,0.00,VWS V14.01,2013-06-06 23:50:00,
2013-06-06 19:51:00,77.5,61.1,29.68,WSW,248,0.0,2.0,57,0.00,,---,0.00,VWS V14.01,2013-06-06 23:51:00,
2013-06-06 19:52:00,77.5,61.1,29.68,SSE,158,2.5,2.5,57,0.00,,---,0.00,VWS V14.01,2013-06-06 23:52:00,
2013-06-06 19:53:00,77.5,61.1,29.68,SW,225,1.1,2.5,57,0.00,,---,0.00,VWS V14.01,2013-06-06 23:53:00,
2013-06-06 19:54:00,77.5,61.1,29.68,SSW,202,0.0,1.1,57,0.00,,---,0.00,VWS V14.01,2013-06-06 23:54:00,
2013-06-06 19:55:00,77.4,61.4,29.68,SSW,202,2.7,3.8,58,0.00,,---,0.00,VWS V14.01,2013-06-06 23:55:00,
2013-06-06 19:56:00,77.4,61.4,29.68,South,180,3.8,3.8,58,0.00,,---,0.00,VWS V14.01,2013-06-06 23:56:00,
2013-06-06 19:57:00,77.4,61.0,29.68,WSW,248,2.0,3.8,57,0.00,,---,0.00,VWS V14.01,2013-06-06 23:57:00,
2013-06-06 19:58:00,77.4,61.0,29.68,WSW,248,2.5,2.7,57,0.00,,---,0.00,VWS V14.01,2013-06-06 23:58:00,
2013-06-06 19:59:00,77.4,61.0,29.71,West,270,3.4,3.8,57,0.00,,---,0.00,VWS V14.01,2013-06-06 23:59:00,
2013-06-06 20:00:00,77.2,60.8,29.71,WSW,248,0.9,2.7,57,0.00,,---,0.00,VWS V14.01,2013-06-07 00:00:00,
2013-06-06 20:01:00,77.2,60.8,29.71,SSW,202,2.7,4.0,57,0.00,,---,0.00,VWS V14.01,2013-06-07 00:01:00,
2013-06-06 20:02:00,77.2,60.8,29.71,SSE,158,0.0,2.7,57,0.00,,---,0.00,VWS V14.01,2013-06-07 00:02:00,
2013-06-06 20:03:00,77.2,60.8,29.71,East,90,2.5,2.5,57,0.00,,---,0.00,VWS V14.01,2013-06-07 00:03:00,
2013-06-06 20:04:00,77.2,60.8,29.71,WNW,292,0.9,2.5,57,0.00,,---,0.00,VWS V14.01,2013-06-07 00:04:00,
2013-06-06 20:05:00,77.0,61.1,29.71,SSW,202,2.5,3.8,58,0.00,,---,0.00,VWS V14.01,2013-06-07 00:05:00,
2013-06-06 20:06:00,77.2,61.3,29.71,WSW,248,3.8,3.8,58,0.00,,---,0.00,VWS V14.01,2013-06-07 00:06:00,
2013-06-06 20:07:00,77.0,61.1,29.71,WNW,292,2.2,3.8,58,0.00,,---,0.00,VWS V14.01,2013-06-07 00:07:00,
2013-06-06 20:08:00,77.0,61.1,29.71,WSW,248,0.0,2.2,58,0.00,,---,0.00,VWS V14.01,2013-06-07 00:08:00,
2013-06-06 20:09:00,77.0,61.1,29.71,NW,315,0.9,5.8,58,0.00,,---,0.00,VWS V14.01,2013-06-07 00:09:00,
2013-06-06 20:10:00,77.0,61.6,29.71,WSW,248,2.9,2.9,59,0.00,,---,0.00,VWS V14.01,2013-06-07 00:10:00,
2013-06-06 20:11:00,77.0,61.6,29.71,SSW,202,2.7,2.7,59,0.00,,---,0.00,VWS V14.01,2013-06-07 00:11:00,
2013-06-06 20:12:00,77.0,61.6,29.71,WSW,248,2.9,2.9,59,0.00,,---,0.00,VWS V14.01,2013-06-07 00:12:00,
2013-06-06 20:13:00,77.0,62.1,29.71,SSW,202,5.8,5.8,60,0.00,,---,0.00,VWS V14.01,2013-06-07 00:13:00,
2013-06-06 20:14:00,77.0,62.1,29.71,South,180,0.0,5.8,60,0.00,,---,0.00,VWS V14.01,2013-06-07 00:14:00,
2013-06-06 20:15:00,76.8,62.4,29.71,WNW,292,0.0,0.0,61,0.00,,---,0.00,VWS V14.01,2013-06-07 00:15:00,
2013-06-06 20:16:00,76.8,62.4,29.71,South,180,0.0,3.6,61,0.00,,---,0.00,VWS V14.01,2013-06-07 00:16:00,
2013-06-06 20:17:00,76.8,62.4,29.71,WNW,292,0.0,0.0,61,0.00,,---,0.00,VWS V14.01,2013-06-07 00:17:00,
2013-06-06 20:18:00,76.8,62.4,29.71,WNW,292,3.6,4.3,61,0.00,,---,0.00,VWS V14.01,2013-06-07 00:18:00,
2013-06-06 20:19:00,76.8,62.4,29.71,WSW,248,1.1,3.6,61,0.00,,---,0.00,VWS V14.01,2013-06-07 00:19:00,
2013-06-06 20:20:00,76.6,62.2,29.71,NNW,338,0.0,1.1,61,0.00,,---,0.00,VWS V14.01,2013-06-07 00:20:00,
2013-06-06 20:21:00,76.6,62.7,29.71,WSW,248,0.0,2.5,62,0.00,,---,0.00,VWS V14.01,2013-06-07 00:21:00,
2013-06-06 20:22:00,76.6,62.7,29.71,WSW,248,0.0,2.5,62,0.00,,---,0.00,VWS V14.01,2013-06-07 00:22:00,
2013-06-06 20:23:00,76.6,62.7,29.71,WSW,248,0.9,4.0,62,0.00,,---,0.00,VWS V14.01,2013-06-07 00:23:00,
2013-06-06 20:24:00,76.6,62.7,29.71,WSW,248,1.3,1.3,62,0.00,,---,0.00,VWS V14.01,2013-06-07 00:24:00,
2013-06-06 20:25:00,76.6,62.7,29.71,WSW,248,7.2,7.2,62,0.00,,---,0.00,VWS V14.01,2013-06-07 00:25:00,
2013-06-06 20:26:00,76.5,62.5,29.71,SSW,202,1.1,1.1,62,0.00,,---,0.00,VWS V14.01,2013-06-07 00:26:00,
2013-06-06 20:27:00,76.5,62.5,29.71,SW,225,1.3,1.3,62,0.00,,---,0.00,VWS V14.01,2013-06-07 00:27:00,
2013-06-06 20:28:00,76.5,62.5,29.71,SSE,158,0.0,1.3,62,0.00,,---,0.00,VWS V14.01,2013-06-07 00:28:00,
2013-06-06 20:29:00,76.5,62.5,29.74,SSW,202,2.5,3.8,62,0.00,,---,0.00,VWS V14.01,2013-06-07 00:29:00,
2013-06-06 20:30:00,76.5,62.5,29.74,WSW,248,1.1,2.5,62,0.00,,---,0.00,VWS V14.01,2013-06-07 00:30:00,
2013-06-06 20:31:00,76.3,62.3,29.74,South,180,0.0,5.4,62,0.00,,---,0.00,VWS V14.01,2013-06-07 00:31:00,
2013-06-06 20:32:00,76.3,62.3,29.74,South,180,0.0,5.4,62,0.00,,---,0.00,VWS V14.01,2013-06-07 00:32:00,
2013-06-06 20:33:00,76.3,62.3,29.74,WNW,292,1.1,1.1,62,0.00,,---,0.00,VWS V14.01,2013-06-07 00:33:00,
2013-06-06 20:34:00,76.3,62.8,29.74,South,180,0.0,1.1,63,0.00,,---,0.00,VWS V14.01,2013-06-07 00:34:00,
2013-06-06 20:35:00,76.3,62.8,29.74,North,0,0.0,2.0,63,0.00,,---,0.00,VWS V14.01,2013-06-07 00:35:00,
2013-06-06 20:36:00,76.1,62.6,29.74,SW,225,3.6,3.6,63,0.00,,---,0.00,VWS V14.01,2013-06-07 00:36:00,
2013-06-06 20:37:00,76.1,62.6,29.74,SW,225,0.0,3.6,63,0.00,,---,0.00,VWS V14.01,2013-06-07 00:37:00,
2013-06-06 20:38:00,76.1,62.6,29.74,SSW,202,0.0,0.0,63,0.00,,---,0.00,VWS V14.01,2013-06-07 00:38:00,
2013-06-06 20:39:00,76.1,62.6,29.74,WSW,248,0.0,0.0,63,0.00,,---,0.00,VWS V14.01,2013-06-07 00:39:00,
2013-06-06 20:40:00,76.1,62.6,29.74,NNW,338,1.1,2.5,63,0.00,,---,0.00,VWS V14.01,2013-06-07 00:40:00,
2013-06-06 20:41:00,76.1,63.0,29.74,ENE,68,3.6,4.3,64,0.00,,---,0.00,VWS V14.01,2013-06-07 00:41:00,
2013-06-06 20:42:00,76.1,63.0,29.74,ENE,68,3.6,4.3,64,0.00,,---,0.00,VWS V14.01,2013-06-07 00:42:00,
2013-06-06 20:43:00,76.1,63.0,29.74,NNW,338,0.0,3.6,64,0.00,,---,0.00,VWS V14.01,2013-06-07 00:43:00,
2013-06-06 20:44:00,76.1,63.0,29.74,South,180,0.0,0.0,64,0.00,,---,0.00,VWS V14.01,2013-06-07 00:44:00,
2013-06-06 20:45:00,76.1,63.0,29.74,WSW,248,0.0,0.0,64,0.00,,---,0.00,VWS V14.01,2013-06-07 00:45:00,
2013-06-06 20:46:00,76.1,63.0,29.74,NW,315,0.0,1.1,64,0.00,,---,0.00,VWS V14.01,2013-06-07 00:46:00,
2013-06-06 20:47:00,76.1,63.0,29.74,WSW,248,1.1,2.0,64,0.00,,---,0.00,VWS V14.01,2013-06-07 00:47:00,
2013-06-06 20:48:00,75.9,63.3,29.74,SW,225,0.0,2.9,65,0.00,,---,0.00,VWS V14.01,2013-06-07 00:48:00,
2013-06-06 20:49:00,75.9,63.3,29.74,SSW,202,0.0,2.5,65,0.00,,---,0.00,VWS V14.01,2013-06-07 00:49:00,
2013-06-06 20:50:00,75.9,63.3,29.74,WSW,248,0.9,2.5,65,0.00,,---,0.00,VWS V14.01,2013-06-07 00:50:00,
2013-06-06 20:51:00,75.9,63.8,29.74,WSW,248,1.6,1.6,66,0.00,,---,0.00,VWS V14.01,2013-06-07 00:51:00,
2013-06-06 20:52:00,75.9,63.8,29.74,SSE,158,1.3,3.8,66,0.00,,---,0.00,VWS V14.01,2013-06-07 00:52:00,
2013-06-06 20:53:00,75.9,63.8,29.74,SSW,202,0.0,1.6,66,0.00,,---,0.00,VWS V14.01,2013-06-07 00:53:00,
2013-06-06 20:54:00,75.9,63.3,29.74,SW,225,0.0,2.5,65,0.00,,---,0.00,VWS V14.01,2013-06-07 00:54:00,
2013-06-06 20:55:00,75.9,63.3,29.74,NNW,338,0.0,1.6,65,0.00,,---,0.00,VWS V14.01,2013-06-07 00:55:00,
2013-06-06 20:56:00,75.9,63.3,29.74,WNW,292,1.6,2.9,65,0.00,,---,0.00,VWS V14.01,2013-06-07 00:56:00,
2013-06-06 20:57:00,75.9,63.3,29.74,North,0,2.9,2.9,65,0.00,,---,0.00,VWS V14.01,2013-06-07 00:57:00,
2013-06-06 20:58:00,75.9,63.3,29.74,SSE,158,0.9,2.9,65,0.00,,---,0.00,VWS V14.01,2013-06-07 00:58:00,
2013-06-06 20:59:00,75.9,63.3,29.74,SSW,202,0.0,1.1,65,0.00,,---,0.00,VWS V14.01,2013-06-07 00:59:00,
2013-06-06 21:00:00,75.9,63.3,29.74,WSW,248,0.0,0.9,65,0.00,,---,0.00,VWS V14.01,2013-06-07 01:00:00,
2013-06-06 21:01:00,75.9,63.3,29.74,SSE,158,1.6,1.6,65,0.00,,---,0.00,VWS V14.01,2013-06-07 01:01:00,
2013-06-06 21:02:00,75.9,63.3,29.74,WSW,248,0.0,2.9,65,0.00,,---,0.00,VWS V14.01,2013-06-07 01:02:00,
2013-06-06 21:03:00,75.9,63.3,29.74,WSW,248,0.0,2.9,65,0.00,,---,0.00,VWS V14.01,2013-06-07 01:03:00,
2013-06-06 21:04:00,75.9,63.3,29.74,NNW,338,0.0,0.0,65,0.00,,---,0.00,VWS V14.01,2013-06-07 01:04:00,
2013-06-06 21:05:00,76.1,63.5,29.74,NW,315,1.1,2.7,65,0.00,,---,0.00,VWS V14.01,2013-06-07 01:05:00,
2013-06-06 21:06:00,76.1,63.5,29.74,SW,225,1.3,2.5,65,0.00,,---,0.00,VWS V14.01,2013-06-07 01:06:00,
2013-06-06 21:07:00,76.1,63.5,29.74,SSW,202,0.0,2.2,65,0.00,,---,0.00,VWS V14.01,2013-06-07 01:07:00,
2013-06-06 21:08:00,76.1,63.5,29.74,NW,315,0.0,2.2,65,0.00,,---,0.00,VWS V14.01,2013-06-07 01:08:00,
2013-06-06 21:09:00,76.1,63.5,29.74,SW,225,0.9,2.7,65,0.00,,---,0.00,VWS V14.01,2013-06-07 01:09:00,
2013-06-06 21:10:00,76.1,63.5,29.74,WSW,248,1.1,1.6,65,0.00,,---,0.00,VWS V14.01,2013-06-07 01:10:00,
2013-06-06 21:11:00,76.1,63.5,29.74,WSW,248,0.0,3.1,65,0.00,,---,0.00,VWS V14.01,2013-06-07 01:11:00,
2013-06-06 21:12:00,76.1,63.5,29.74,SSW,202,0.0,1.6,65,0.00,,---,0.00,VWS V14.01,2013-06-07 01:12:00,
2013-06-06 21:13:00,76.1,63.5,29.74,SSW,202,0.0,1.6,65,0.00,,---,0.00,VWS V14.01,2013-06-07 01:13:00,
2013-06-06 21:15:00,76.1,63.9,29.74,SSE,158,2.5,3.1,66,0.00,,---,0.00,VWS V14.01,2013-06-07 01:15:00,
2013-06-06 21:16:00,76.3,64.1,29.74,SSE,158,1.6,2.5,66,0.00,,---,0.00,VWS V14.01,2013-06-07 01:16:00,
2013-06-06 21:17:00,76.3,64.1,29.74,WNW,292,2.0,7.8,66,0.00,,---,0.00,VWS V14.01,2013-06-07 01:17:00,
2013-06-06 21:18:00,76.3,64.1,29.74,WNW,292,2.0,7.8,66,0.00,,---,0.00,VWS V14.01,2013-06-07 01:18:00,
2013-06-06 21:19:00,76.3,64.1,29.74,NNW,338,1.3,2.0,66,0.00,,---,0.00,VWS V14.01,2013-06-07 01:19:00,
2013-06-06 21:20:00,76.5,64.3,29.74,NNW,338,1.6,5.4,66,0.00,,---,0.00,VWS V14.01,2013-06-07 01:20:00,
2013-06-06 21:21:00,76.5,64.3,29.74,NNW,338,0.0,1.6,66,0.00,,---,0.00,VWS V14.01,2013-06-07 01:21:00,
2013-06-06 21:22:00,76.5,64.3,29.74,WSW,248,0.0,1.1,66,0.00,,---,0.00,VWS V14.01,2013-06-07 01:22:00,
2013-06-06 21:23:00,76.5,64.3,29.74,WSW,248,0.0,1.1,66,0.00,,---,0.00,VWS V14.01,2013-06-07 01:23:00,
2013-06-06 21:24:00,76.5,64.3,29.74,ESE,112,0.0,2.2,66,0.00,,---,0.00,VWS V14.01,2013-06-07 01:24:00,
2013-06-06 21:25:00,76.5,64.3,29.74,SSW,202,0.0,3.6,66,0.00,,---,0.00,VWS V14.01,2013-06-07 01:25:00,
2013-06-06 21:26:00,76.5,64.3,29.74,SSW,202,0.0,2.2,66,0.00,,---,0.00,VWS V14.01,2013-06-07 01:26:00,
2013-06-06 21:27:00,76.3,64.1,29.74,WNW,292,0.9,1.3,66,0.00,,---,0.00,VWS V14.01,2013-06-07 01:27:00,
2013-06-06 21:28:00,76.3,64.1,29.74,WNW,292,0.9,1.3,66,0.00,,---,0.00,VWS V14.01,2013-06-07 01:28:00,
2013-06-06 21:29:00,76.3,64.1,29.74,SSW,202,2.5,3.4,66,0.00,,---,0.00,VWS V14.01,2013-06-07 01:29:00,
2013-06-06 21:30:00,76.5,64.3,29.74,WNW,292,0.0,2.5,66,0.00,,---,0.00,VWS V14.01,2013-06-07 01:30:00,
2013-06-06 21:31:00,76.5,64.3,29.74,NNW,338,1.6,6.9,66,0.00,,---,0.00,VWS V14.01,2013-06-07 01:31:00,
2013-06-06 21:32:00,76.5,64.3,29.74,West,270,0.0,0.0,66,0.00,,---,0.00,VWS V14.01,2013-06-07 01:32:00,
2013-06-06 21:33:00,76.5,64.3,29.74,West,270,0.0,3.1,66,0.00,,---,0.00,VWS V14.01,2013-06-07 01:33:00,
2013-06-06 21:34:00,76.5,64.3,29.74,WSW,248,0.0,0.0,66,0.00,,---,0.00,VWS V14.01,2013-06-07 01:34:00,
2013-06-06 21:35:00,76.5,64.3,29.74,SSW,202,2.7,2.7,66,0.00,,---,0.00,VWS V14.01,2013-06-07 01:35:00,
2013-06-06 21:36:00,76.5,64.3,29.74,WNW,292,7.2,7.2,66,0.00,,---,0.00,VWS V14.01,2013-06-07 01:36:00,
2013-06-06 21:37:00,76.5,64.3,29.74,West,270,0.0,1.1,66,0.00,,---,0.00,VWS V14.01,2013-06-07 01:37:00,
2013-06-06 21:38:00,76.5,64.3,29.74,West,270,0.0,1.1,66,0.00,,---,0.00,VWS V14.01,2013-06-07 01:38:00,
2013-06-06 21:39:00,76.5,64.3,29.74,WSW,248,2.9,2.9,66,0.00,,---,0.00,VWS V14.01,2013-06-07 01:39:00,
2013-06-06 21:40:00,76.5,64.3,29.74,WSW,248,2.0,2.9,66,0.00,,---,0.00,VWS V14.01,2013-06-07 01:40:00,
2013-06-06 21:41:00,76.3,64.1,29.74,WSW,248,0.0,2.0,66,0.00,,---,0.00,VWS V14.01,2013-06-07 01:41:00,
2013-06-06 21:42:00,76.3,63.7,29.74,SSW,202,0.0,2.9,65,0.00,,---,0.00,VWS V14.01,2013-06-07 01:42:00,
2013-06-06 21:43:00,76.3,63.7,29.74,SSW,202,0.0,2.9,65,0.00,,---,0.00,VWS V14.01,2013-06-07 01:43:00,
2013-06-06 21:44:00,76.3,63.7,29.76,WNW,292,0.0,1.6,65,0.00,,---,0.00,VWS V14.01,2013-06-07 01:44:00,
2013-06-06 21:45:00,76.3,63.7,29.76,East,90,1.6,2.0,65,0.00,,---,0.00,VWS V14.01,2013-06-07 01:45:00,
2013-06-06 21:46:00,76.3,63.7,29.76,WNW,292,1.1,1.6,65,0.00,,---,0.00,VWS V14.01,2013-06-07 01:46:00,
2013-06-06 21:47:00,76.3,63.7,29.76,WNW,292,1.6,4.3,65,0.00,,---,0.00,VWS V14.01,2013-06-07 01:47:00,
2013-06-06 21:48:00,76.3,63.7,29.76,WNW,292,1.6,4.3,65,0.00,,---,0.00,VWS V14.01,2013-06-07 01:48:00,
2013-06-06 21:49:00,76.3,63.7,29.76,WSW,248,3.4,3.6,65,0.00,,---,0.00,VWS V14.01,2013-06-07 01:49:00,
2013-06-06 21:50:00,76.5,63.8,29.76,WSW,248,0.9,3.4,65,0.00,,---,0.00,VWS V14.01,2013-06-07 01:50:00,
2013-06-06 21:51:00,76.5,63.8,29.76,SSW,202,2.5,2.5,65,0.00,,---,0.00,VWS V14.01,2013-06-07 01:51:00,
2013-06-06 21:52:00,76.5,63.8,29.76,SSW,202,0.0,0.0,65,0.00,,---,0.00,VWS V14.01,2013-06-07 01:52:00,
2013-06-06 21:53:00,76.5,63.8,29.76,WSW,248,0.0,1.1,65,0.00,,---,0.00,VWS V14.01,2013-06-07 01:53:00,
2013-06-06 21:54:00,76.5,63.8,29.76,WSW,248,2.9,2.9,65,0.00,,---,0.00,VWS V14.01,2013-06-07 01:54:00,
2013-06-06 21:55:00,76.5,64.3,29.76,NNW,338,0.9,2.9,66,0.00,,---,0.00,VWS V14.01,2013-06-07 01:55:00,
2013-06-06 21:56:00,76.5,64.3,29.76,West,270,4.3,4.3,66,0.00,,---,0.00,VWS V14.01,2013-06-07 01:56:00,
2013-06-06 21:57:00,76.5,64.3,29.76,SSW,202,0.9,3.6,66,0.00,,---,0.00,VWS V14.01,2013-06-07 01:57:00,
2013-06-06 21:58:00,76.5,64.3,29.76,SSW,202,0.9,3.6,66,0.00,,---,0.00,VWS V14.01,2013-06-07 01:58:00,
2013-06-06 21:59:00,76.5,64.3,29.76,WNW,292,3.1,4.7,66,0.00,,---,0.00,VWS V14.01,2013-06-07 01:59:00,
2013-06-06 22:00:00,76.5,64.3,29.76,WSW,248,2.9,3.1,66,0.00,,---,0.00,VWS V14.01,2013-06-07 02:00:00,
2013-06-06 22:01:00,76.5,64.3,29.76,WNW,292,0.0,2.9,66,0.00,,---,0.00,VWS V14.01,2013-06-07 02:01:00,
2013-06-06 22:02:00,76.5,64.3,29.76,SSW,202,0.0,0.0,66,0.00,,---,0.00,VWS V14.01,2013-06-07 02:02:00,
2013-06-06 22:03:00,76.5,64.3,29.76,SSW,202,0.0,0.0,66,0.00,,---,0.00,VWS V14.01,2013-06-07 02:03:00,
2013-06-06 22:04:00,76.5,64.3,29.76,WNW,292,0.0,1.6,66,0.00,,---,0.00,VWS V14.01,2013-06-07 02:04:00,
2013-06-06 22:05:00,76.5,64.3,29.76,West,270,0.0,0.9,66,0.00,,---,0.00,VWS V14.01,2013-06-07 02:05:00,
2013-06-06 22:06:00,76.5,64.7,29.76,WSW,248,0.0,5.6,67,0.00,,---,0.00,VWS V14.01,2013-06-07 02:06:00,
2013-06-06 22:07:00,76.6,64.9,29.76,WNW,292,3.4,3.4,67,0.00,,---,0.00,VWS V14.01,2013-06-07 02:07:00,
2013-06-06 22:08:00,76.6,64.9,29.76,WNW,292,3.4,4.3,67,0.00,,---,0.00,VWS V14.01,2013-06-07 02:08:00,
2013-06-06 22:09:00,76.6,64.9,29.76,NNW,338,0.0,3.4,67,0.00,,---,0.00,VWS V14.01,2013-06-07 02:09:00,
2013-06-06 22:10:00,76.6,64.9,29.76,SSW,202,1.6,2.7,67,0.00,,---,0.00,VWS V14.01,2013-06-07 02:10:00,
2013-06-06 22:11:00,76.6,64.9,29.76,WNW,292,0.0,3.1,67,0.00,,---,0.00,VWS V14.01,2013-06-07 02:11:00,
2013-06-06 22:12:00,76.6,64.9,29.76,SW,225,3.6,6.3,67,0.00,,---,0.00,VWS V14.01,2013-06-07 02:12:00,
2013-06-06 22:13:00,76.6,64.9,29.76,NNW,338,3.8,3.8,67,0.00,,---,0.00,VWS V14.01,2013-06-07 02:13:00,
2013-06-06 22:14:00,76.6,64.9,29.80,WSW,248,2.5,6.3,67,0.00,,---,0.00,VWS V14.01,2013-06-07 02:14:00,
2013-06-06 22:15:00,76.6,64.4,29.80,SW,225,1.3,2.5,66,0.00,,---,0.00,VWS V14.01,2013-06-07 02:15:00,
2013-06-06 22:16:00,76.6,64.4,29.80,WSW,248,1.1,1.3,66,0.00,,---,0.00,VWS V14.01,2013-06-07 02:16:00,
2013-06-06 22:17:00,76.5,64.3,29.79,NNW,338,3.1,3.1,66,0.00,,---,0.00,VWS V14.01,2013-06-07 02:17:00,
2013-06-06 22:18:00,76.5,64.3,29.80,West,270,0.0,3.6,66,0.00,,---,0.00,VWS V14.01,2013-06-07 02:18:00,
2013-06-06 22:19:00,76.5,64.3,29.80,NNW,338,3.4,3.4,66,0.00,,---,0.00,VWS V14.01,2013-06-07 02:19:00,
2013-06-06 22:20:00,76.5,63.8,29.80,SE,135,0.0,4.7,65,0.00,,---,0.00,VWS V14.01,2013-06-07 02:20:00,
2013-06-06 22:21:00,76.5,63.8,29.80,SW,225,0.0,2.9,65,0.00,,---,0.00,VWS V14.01,2013-06-07 02:21:00,
2013-06-06 22:22:00,76.3,63.7,29.79,SE,135,0.0,2.7,65,0.00,,---,0.00,VWS V14.01,2013-06-07 02:22:00,
2013-06-06 22:23:00,76.5,63.8,29.80,SE,135,2.7,2.7,65,0.00,,---,0.00,VWS V14.01,2013-06-07 02:23:00,
2013-06-06 22:24:00,76.3,63.7,29.80,NNW,338,2.9,2.9,65,0.00,,---,0.00,VWS V14.01,2013-06-07 02:24:00,
2013-06-06 22:25:00,76.3,63.7,29.80,SSE,158,0.0,2.9,65,0.00,,---,0.00,VWS V14.01,2013-06-07 02:25:00,
2013-06-06 22:26:00,76.3,63.7,29.80,West,270,2.7,2.7,65,0.00,,---,0.00,VWS V14.01,2013-06-07 02:26:00,
2013-06-06 22:27:00,76.3,63.2,29.79,WSW,248,0.0,0.9,64,0.00,,---,0.00,VWS V14.01,2013-06-07 02:27:00,
2013-06-06 22:28:00,76.3,63.2,29.80,West,270,0.9,2.5,64,0.00,,---,0.00,VWS V14.01,2013-06-07 02:28:00,
2013-06-06 22:29:00,76.3,63.2,29.80,West,270,0.0,0.9,64,0.00,,---,0.00,VWS V14.01,2013-06-07 02:29:00,
2013-06-06 22:30:00,76.1,63.0,29.80,WNW,292,4.9,4.9,64,0.00,,---,0.00,VWS V14.01,2013-06-07 02:30:00,
2013-06-06 22:31:00,76.1,63.0,29.80,SW,225,2.5,5.6,64,0.00,,---,0.00,VWS V14.01,2013-06-07 02:31:00,
2013-06-06 22:32:00,76.1,63.0,29.80,NNW,338,0.9,2.5,64,0.00,,---,0.00,VWS V14.01,2013-06-07 02:32:00,
2013-06-06 22:33:00,76.1,63.0,29.79,South,180,0.0,1.6,64,0.00,,---,0.00,VWS V14.01,2013-06-07 02:33:00,
2013-06-06 22:34:00,76.1,63.0,29.80,WSW,248,0.0,1.6,64,0.00,,---,0.00,VWS V14.01,2013-06-07 02:34:00,
2013-06-06 22:35:00,76.1,63.0,29.80,ESE,112,3.6,3.6,64,0.00,,---,0.00,VWS V14.01,2013-06-07 02:35:00,
2013-06-06 22:36:00,76.1,63.0,29.80,WSW,248,0.0,3.6,64,0.00,,---,0.00,VWS V14.01,2013-06-07 02:36:00,
2013-06-06 22:37:00,76.1,63.0,29.80,West,270,0.0,0.0,64,0.00,,---,0.00,VWS V14.01,2013-06-07 02:37:00,
2013-06-06 22:38:00,75.9,62.9,29.79,WSW,248,0.0,0.0,64,0.00,,---,0.00,VWS V14.01,2013-06-07 02:38:00,
2013-06-06 22:39:00,75.9,62.9,29.80,WNW,292,0.0,0.0,64,0.00,,---,0.00,VWS V14.01,2013-06-07 02:39:00,
2013-06-06 22:40:00,75.9,62.9,29.80,WNW,292,1.1,1.1,64,0.00,,---,0.00,VWS V14.01,2013-06-07 02:40:00,
2013-06-06 22:41:00,75.9,62.9,29.80,ENE,68,0.0,1.1,64,0.00,,---,0.00,VWS V14.01,2013-06-07 02:41:00,
2013-06-06 22:42:00,75.9,62.9,29.80,WSW,248,0.9,0.9,64,0.00,,---,0.00,VWS V14.01,2013-06-07 02:42:00,
2013-06-06 22:43:00,75.9,62.9,29.79,South,180,0.0,0.9,64,0.00,,---,0.00,VWS V14.01,2013-06-07 02:43:00,
2013-06-06 22:44:00,75.9,62.9,29.80,South,180,0.0,0.9,64,0.00,,---,0.00,VWS V14.01,2013-06-07 02:44:00,
2013-06-06 22:45:00,75.7,62.7,29.80,NNW,338,2.5,2.5,64,0.00,,---,0.00,VWS V14.01,2013-06-07 02:45:00,
2013-06-06 22:46:00,75.7,62.7,29.80,SSE,158,2.0,2.5,64,0.00,,---,0.00,VWS V14.01,2013-06-07 02:46:00,
2013-06-06 22:47:00,75.7,63.2,29.80,NNW,338,1.6,2.0,65,0.00,,---,0.00,VWS V14.01,2013-06-07 02:47:00,
2013-06-06 22:48:00,75.9,63.3,29.79,ESE,112,1.6,2.5,65,0.00,,---,0.00,VWS V14.01,2013-06-07 02:48:00,
2013-06-06 22:49:00,75.9,63.3,29.80,ESE,112,1.6,2.5,65,0.00,,---,0.00,VWS V14.01,2013-06-07 02:49:00,
2013-06-06 22:50:00,75.9,63.3,29.80,SW,225,0.9,3.4,65,0.00,,---,0.00,VWS V14.01,2013-06-07 02:50:00,
2013-06-06 22:51:00,75.9,63.3,29.80,WSW,248,3.6,5.4,65,0.00,,---,0.00,VWS V14.01,2013-06-07 02:51:00,
2013-06-06 22:52:00,75.9,63.3,29.80,WSW,248,0.0,3.6,65,0.00,,---,0.00,VWS V14.01,2013-06-07 02:52:00,
2013-06-06 22:53:00,75.9,63.3,29.79,NNW,338,2.0,4.0,65,0.00,,---,0.00,VWS V14.01,2013-06-07 02:53:00,
2013-06-06 22:54:00,75.9,63.3,29.80,WSW,248,2.0,4.0,65,0.00,,---,0.00,VWS V14.01,2013-06-07 02:54:00,
2013-06-06 22:55:00,75.7,63.2,29.80,West,270,1.1,2.2,65,0.00,,---,0.00,VWS V14.01,2013-06-07 02:55:00,
2013-06-06 22:56:00,75.7,63.2,29.80,SSW,202,0.0,1.6,65,0.00,,---,0.00,VWS V14.01,2013-06-07 02:56:00,
2013-06-06 22:57:00,75.7,63.2,29.80,WSW,248,0.0,0.9,65,0.00,,---,0.00,VWS V14.01,2013-06-07 02:57:00,
2013-06-06 22:58:00,75.7,63.2,29.79,West,270,1.1,2.2,65,0.00,,---,0.00,VWS V14.01,2013-06-07 02:58:00,
2013-06-06 22:59:00,75.7,63.2,29.80,West,270,1.1,2.2,65,0.00,,---,0.00,VWS V14.01,2013-06-07 02:59:00,
2013-06-06 23:00:00,75.7,63.2,29.80,NNE,22,1.3,1.3,65,0.00,,---,0.00,VWS V14.01,2013-06-07 03:00:00,
2013-06-06 23:01:00,75.7,62.7,29.80,WSW,248,0.0,5.6,64,0.00,,---,0.00,VWS V14.01,2013-06-07 03:01:00,
2013-06-06 23:02:00,75.7,62.7,29.80,SSW,202,0.0,0.0,64,0.00,,---,0.00,VWS V14.01,2013-06-07 03:02:00,
2013-06-06 23:03:00,75.7,62.7,29.79,SSE,158,0.9,2.7,64,0.00,,---,0.00,VWS V14.01,2013-06-07 03:03:00,
2013-06-06 23:04:00,75.7,62.7,29.80,SSW,202,0.9,2.7,64,0.00,,---,0.00,VWS V14.01,2013-06-07 03:04:00,
2013-06-06 23:05:00,75.7,62.7,29.80,WSW,248,0.0,1.1,64,0.00,,---,0.00,VWS V14.01,2013-06-07 03:05:00,
2013-06-06 23:06:00,75.7,62.7,29.80,South,180,0.0,2.9,64,0.00,,---,0.00,VWS V14.01,2013-06-07 03:06:00,
2013-06-06 23:07:00,75.7,62.7,29.79,WNW,292,1.1,2.2,64,0.00,,---,0.00,VWS V14.01,2013-06-07 03:07:00,
2013-06-06 23:08:00,75.7,62.7,29.80,West,270,0.0,0.9,64,0.00,,---,0.00,VWS V14.01,2013-06-07 03:08:00,
2013-06-06 23:09:00,75.7,62.7,29.80,WNW,292,1.1,2.2,64,0.00,,---,0.00,VWS V14.01,2013-06-07 03:09:00,
2013-06-06 23:10:00,75.7,63.2,29.80,NNW,338,2.5,2.5,65,0.00,,---,0.00,VWS V14.01,2013-06-07 03:10:00,
2013-06-06 23:11:00,75.7,63.2,29.80,SSW,202,1.3,5.8,65,0.00,,---,0.00,VWS V14.01,2013-06-07 03:11:00,
2013-06-06 23:12:00,75.9,63.3,29.80,NNW,338,0.0,2.0,65,0.00,,---,0.00,VWS V14.01,2013-06-07 03:12:00,
2013-06-06 23:13:00,75.9,63.3,29.79,SSW,202,0.0,3.6,65,0.00,,---,0.00,VWS V14.01,2013-06-07 03:13:00,
2013-06-06 23:14:00,75.9,63.3,29.80,SSW,202,0.0,3.6,65,0.00,,---,0.00,VWS V14.01,2013-06-07 03:14:00,
2013-06-06 23:15:00,75.9,62.9,29.80,North,0,0.0,5.8,64,0.00,,---,0.00,VWS V14.01,2013-06-07 03:15:00,
2013-06-06 23:16:00,75.9,62.9,29.80,WSW,248,0.9,0.9,64,0.00,,---,0.00,VWS V14.01,2013-06-07 03:16:00,
2013-06-06 23:17:00,75.7,62.7,29.80,SSW,202,0.0,0.9,64,0.00,,---,0.00,VWS V14.01,2013-06-07 03:17:00,
2013-06-06 23:18:00,75.7,63.2,29.79,WSW,248,0.0,2.0,65,0.00,,---,0.00,VWS V14.01,2013-06-07 03:18:00,
2013-06-06 23:19:00,75.7,63.2,29.80,WSW,248,0.0,2.0,65,0.00,,---,0.00,VWS V14.01,2013-06-07 03:19:00,
2013-06-06 23:20:00,75.7,62.7,29.80,WSW,248,0.0,0.0,64,0.00,,---,0.00,VWS V14.01,2013-06-07 03:20:00,
2013-06-06 23:21:00,75.7,62.7,29.80,SSW,202,0.0,0.0,64,0.00,,---,0.00,VWS V14.01,2013-06-07 03:21:00,
2013-06-06 23:22:00,75.7,62.7,29.80,South,180,0.0,0.0,64,0.00,,---,0.00,VWS V14.01,2013-06-07 03:22:00,
2013-06-06 23:23:00,75.7,62.7,29.79,SSE,158,0.0,0.9,64,0.00,,---,0.00,VWS V14.01,2013-06-07 03:23:00,
2013-06-06 23:24:00,75.7,62.7,29.80,SSE,158,0.0,0.9,64,0.00,,---,0.00,VWS V14.01,2013-06-07 03:24:00,
2013-06-06 23:25:00,75.7,62.7,29.80,WSW,248,0.0,0.0,64,0.00,,---,0.00,VWS V14.01,2013-06-07 03:25:00,
2013-06-06 23:26:00,75.7,63.2,29.80,SW,225,0.0,0.9,65,0.00,,---,0.00,VWS V14.01,2013-06-07 03:26:00,
2013-06-06 23:27:00,75.6,63.0,29.80,SSW,202,0.9,0.9,65,0.00,,---,0.00,VWS V14.01,2013-06-07 03:27:00,
2013-06-06 23:28:00,75.6,63.0,29.79,WSW,248,0.0,1.1,65,0.00,,---,0.00,VWS V14.01,2013-06-07 03:28:00,
2013-06-06 23:29:00,75.6,63.0,29.80,WSW,248,0.0,1.1,65,0.00,,---,0.00,VWS V14.01,2013-06-07 03:29:00,
2013-06-06 23:30:00,75.6,63.0,29.80,WSW,248,0.0,0.0,65,0.00,,---,0.00,VWS V14.01,2013-06-07 03:30:00,
2013-06-06 23:31:00,75.6,63.0,29.80,NNE,22,0.0,0.0,65,0.00,,---,0.00,VWS V14.01,2013-06-07 03:31:00,
2013-06-06 23:32:00,75.6,63.0,29.80,NNW,338,0.0,0.0,65,0.00,,---,0.00,VWS V14.01,2013-06-07 03:32:00,
2013-06-06 23:33:00,75.6,63.0,29.79,WSW,248,0.0,0.0,65,0.00,,---,0.00,VWS V14.01,2013-06-07 03:33:00,
2013-06-06 23:34:00,75.6,63.0,29.80,WSW,248,0.0,0.0,65,0.00,,---,0.00,VWS V14.01,2013-06-07 03:34:00,
2013-06-06 23:35:00,75.6,63.0,29.80,WSW,248,0.0,0.0,65,0.00,,---,0.00,VWS V14.01,2013-06-07 03:35:00,
2013-06-06 23:36:00,75.6,63.0,29.80,SSW,202,0.0,3.1,65,0.00,,---,0.00,VWS V14.01,2013-06-07 03:36:00,
2013-06-06 23:37:00,75.4,62.8,29.80,NNE,22,0.0,0.9,65,0.00,,---,0.00,VWS V14.01,2013-06-07 03:37:00,
2013-06-06 23:38:00,75.6,63.0,29.79,SSE,158,1.6,1.6,65,0.00,,---,0.00,VWS V14.01,2013-06-07 03:38:00,
2013-06-06 23:39:00,75.6,63.0,29.80,North,0,0.0,1.6,65,0.00,,---,0.00,VWS V14.01,2013-06-07 03:39:00,
2013-06-06 23:40:00,75.4,62.8,29.80,SSE,158,1.3,1.3,65,0.00,,---,0.00,VWS V14.01,2013-06-07 03:40:00,
2013-06-06 23:41:00,75.6,63.0,29.80,WNW,292,0.0,2.7,65,0.00,,---,0.00,VWS V14.01,2013-06-07 03:41:00,
2013-06-06 23:42:00,75.6,63.0,29.80,SW,225,0.0,2.7,65,0.00,,---,0.00,VWS V14.01,2013-06-07 03:42:00,
2013-06-06 23:43:00,75.4,62.8,29.79,SSE,158,0.0,0.0,65,0.00,,---,0.00,VWS V14.01,2013-06-07 03:43:00,
2013-06-06 23:44:00,75.4,62.8,29.80,SSE,158,0.0,0.0,65,0.00,,---,0.00,VWS V14.01,2013-06-07 03:44:00,
2013-06-06 23:45:00,75.4,62.8,29.80,SSE,158,0.0,0.0,65,0.00,,---,0.00,VWS V14.01,2013-06-07 03:45:00,
2013-06-06 23:46:00,75.4,62.8,29.80,SSW,202,0.0,1.3,65,0.00,,---,0.00,VWS V14.01,2013-06-07 03:46:00,
2013-06-06 23:47:00,75.4,62.8,29.80,South,180,0.0,0.0,65,0.00,,---,0.00,VWS V14.01,2013-06-07 03:47:00,
2013-06-06 23:48:00,75.4,62.8,29.79,SSW,202,0.0,0.0,65,0.00,,---,0.00,VWS V14.01,2013-06-07 03:48:00,
2013-06-06 23:49:00,75.4,62.8,29.80,SSW,202,0.0,0.0,65,0.00,,---,0.00,VWS V14.01,2013-06-07 03:49:00,
2013-06-06 23:50:00,75.4,63.2,29.80,NNW,338,0.9,1.6,66,0.00,,---,0.00,VWS V14.01,2013-06-07 03:50:00,
2013-06-06 23:51:00,75.4,63.2,29.80,SSW,202,1.6,1.6,66,0.00,,---,0.00,VWS V14.01,2013-06-07 03:51:00,
2013-06-06 23:52:00,75.4,63.2,29.80,WNW,292,0.0,1.6,66,0.00,,---,0.00,VWS V14.01,2013-06-07 03:52:00,
2013-06-06 23:53:00,75.4,63.2,29.79,SW,225,0.0,0.0,66,0.00,,---,0.00,VWS V14.01,2013-06-07 03:53:00,
2013-06-06 23:54:00,75.4,63.2,29.80,SW,225,0.0,0.0,66,0.00,,---,0.00,VWS V14.01,2013-06-07 03:54:00,
2013-06-06 23:55:00,75.4,63.2,29.80,WNW,292,0.9,0.9,66,0.00,,---,0.00,VWS V14.01,2013-06-07 03:55:00,
2013-06-06 23:56:00,75.4,63.2,29.80,WSW,248,0.0,0.9,66,0.00,,---,0.00,VWS V14.01,2013-06-07 03:56:00,
2013-06-06 23:57:00,75.4,63.2,29.80,SE,135,0.0,0.0,66,0.00,,---,0.00,VWS V14.01,2013-06-07 03:57:00,
2013-06-06 23:58:00,75.4,63.2,29.79,NNW,338,0.0,3.1,66,0.00,,---,0.00,VWS V14.01,2013-06-07 03:58:00,
2013-06-06 23:59:00,75.4,63.2,29.80,NNW,338,0.0,3.1,66,0.00,,---,0.00,VWS V14.01,2013-06-07 03:59:00,